<?xml version='1.0' encoding='UTF-8'?><gpx version="1.1" creator="JPX - https://github.com/jenetics/jpx" xmlns="http://www.topografix.com/GPX/1/1"><trk><trkseg><trkpt lat="43.3469026" lon="11.9253962"><ele>314.0</ele><time>2026-04-26T09:50:12.065Z</time></trkpt><trkpt lat="43.346991" lon="11.9254488"><ele>314.0</ele><time>2026-04-26T09:50:14.065Z</time></trkpt><trkpt lat="43.3470626" lon="11.9254931"><ele>314.0</ele><time>2026-04-26T09:50:16.065Z</time></trkpt><trkpt lat="43.347158" lon="11.9255232"><ele>314.0</ele><time>2026-04-26T09:50:18.065Z</time></trkpt><trkpt lat="43.3472674" lon="11.9255302"><ele>314.0</ele><time>2026-04-26T09:50:20.065Z</time></trkpt><trkpt lat="43.3473811" lon="11.9255412"><ele>315.2</ele><time>2026-04-26T09:50:22.065Z</time></trkpt><trkpt lat="43.347484" lon="11.9255263"><ele>316.4</ele><time>2026-04-26T09:50:24.065Z</time></trkpt><trkpt lat="43.3475792" lon="11.9254844"><ele>317.6</ele><time>2026-04-26T09:50:26.065Z</time></trkpt><trkpt lat="43.3476641" lon="11.9254138"><ele>318.8</ele><time>2026-04-26T09:50:28.065Z</time></trkpt><trkpt lat="43.3477336" lon="11.9253171"><ele>320.0</ele><time>2026-04-26T09:50:30.065Z</time></trkpt><trkpt lat="43.3477986" lon="11.9252341"><ele>320.0</ele><time>2026-04-26T09:50:32.065Z</time></trkpt><trkpt lat="43.3478676" lon="11.9251672"><ele>320.0</ele><time>2026-04-26T09:50:34.065Z</time></trkpt><trkpt lat="43.3479498" lon="11.9251128"><ele>320.0</ele><time>2026-04-26T09:50:36.065Z</time></trkpt><trkpt lat="43.3480326" lon="11.9250811"><ele>320.0</ele><time>2026-04-26T09:50:38.065Z</time></trkpt><trkpt lat="43.3481139" lon="11.9250467"><ele>320.0</ele><time>2026-04-26T09:50:40.065Z</time></trkpt><trkpt lat="43.3481959" lon="11.9250146"><ele>320.0</ele><time>2026-04-26T09:50:42.065Z</time></trkpt><trkpt lat="43.3482866" lon="11.924992"><ele>320.0</ele><time>2026-04-26T09:50:44.065Z</time></trkpt><trkpt lat="43.3483854" lon="11.9249822"><ele>320.0</ele><time>2026-04-26T09:50:46.065Z</time></trkpt><trkpt lat="43.3484868" lon="11.9250215"><ele>320.0</ele><time>2026-04-26T09:50:48.065Z</time></trkpt><trkpt lat="43.3485737" lon="11.9251031"><ele>320.0</ele><time>2026-04-26T09:50:50.065Z</time></trkpt><trkpt lat="43.3486308" lon="11.9252289"><ele>320.0</ele><time>2026-04-26T09:50:52.065Z</time></trkpt><trkpt lat="43.3486686" lon="11.9253747"><ele>320.0</ele><time>2026-04-26T09:50:54.065Z</time></trkpt><trkpt lat="43.3487138" lon="11.9254976"><ele>320.0</ele><time>2026-04-26T09:50:56.065Z</time></trkpt><trkpt lat="43.3487724" lon="11.9256148"><ele>320.0</ele><time>2026-04-26T09:50:58.065Z</time></trkpt><trkpt lat="43.3488481" lon="11.9257147"><ele>320.0</ele><time>2026-04-26T09:51:00.065Z</time></trkpt><trkpt lat="43.3489412" lon="11.9257922"><ele>320.0</ele><time>2026-04-26T09:51:02.065Z</time></trkpt><trkpt lat="43.3490324" lon="11.9258524"><ele>323.0</ele><time>2026-04-26T09:51:04.065Z</time></trkpt><trkpt lat="43.3491399" lon="11.9258797"><ele>326.0</ele><time>2026-04-26T09:51:06.065Z</time></trkpt><trkpt lat="43.349248" lon="11.9258881"><ele>329.0</ele><time>2026-04-26T09:51:08.065Z</time></trkpt><trkpt lat="43.3493503" lon="11.9258938"><ele>332.0</ele><time>2026-04-26T09:51:10.065Z</time></trkpt><trkpt lat="43.3494426" lon="11.9258717"><ele>335.0</ele><time>2026-04-26T09:51:12.065Z</time></trkpt><trkpt lat="43.3495392" lon="11.9258278"><ele>335.0</ele><time>2026-04-26T09:51:14.065Z</time></trkpt><trkpt lat="43.3496283" lon="11.925776"><ele>335.0</ele><time>2026-04-26T09:51:16.065Z</time></trkpt><trkpt lat="43.3497246" lon="11.9257411"><ele>335.0</ele><time>2026-04-26T09:51:18.065Z</time></trkpt><trkpt lat="43.3498198" lon="11.9256877"><ele>335.0</ele><time>2026-04-26T09:51:20.065Z</time></trkpt><trkpt lat="43.3499145" lon="11.9256433"><ele>335.0</ele><time>2026-04-26T09:51:22.065Z</time></trkpt><trkpt lat="43.3500065" lon="11.9255946"><ele>334.6</ele><time>2026-04-26T09:51:24.065Z</time></trkpt><trkpt lat="43.350092" lon="11.9255362"><ele>334.2</ele><time>2026-04-26T09:51:26.065Z</time></trkpt><trkpt lat="43.3501725" lon="11.9254594"><ele>333.79999999999995</ele><time>2026-04-26T09:51:28.065Z</time></trkpt><trkpt lat="43.3502488" lon="11.9253863"><ele>333.4</ele><time>2026-04-26T09:51:30.065Z</time></trkpt><trkpt lat="43.3503301" lon="11.9253221"><ele>333.0</ele><time>2026-04-26T09:51:32.065Z</time></trkpt><trkpt lat="43.3504105" lon="11.9252617"><ele>333.0</ele><time>2026-04-26T09:51:34.065Z</time></trkpt><trkpt lat="43.3504932" lon="11.9252069"><ele>333.0</ele><time>2026-04-26T09:51:36.065Z</time></trkpt><trkpt lat="43.3505774" lon="11.9251584"><ele>333.0</ele><time>2026-04-26T09:51:38.065Z</time></trkpt><trkpt lat="43.3506591" lon="11.9251196"><ele>333.0</ele><time>2026-04-26T09:51:40.065Z</time></trkpt><trkpt lat="43.3507512" lon="11.9251118"><ele>333.0</ele><time>2026-04-26T09:51:42.065Z</time></trkpt><trkpt lat="43.3508412" lon="11.92511"><ele>334.5</ele><time>2026-04-26T09:51:44.065Z</time></trkpt><trkpt lat="43.3509266" lon="11.9251184"><ele>336.0</ele><time>2026-04-26T09:51:46.064Z</time></trkpt><trkpt lat="43.3510128" lon="11.9251374"><ele>337.5</ele><time>2026-04-26T09:51:48.065Z</time></trkpt><trkpt lat="43.3511025" lon="11.9251575"><ele>339.0</ele><time>2026-04-26T09:51:50.065Z</time></trkpt><trkpt lat="43.351182" lon="11.9252187"><ele>340.5</ele><time>2026-04-26T09:51:52.065Z</time></trkpt><trkpt lat="43.351215" lon="11.9253376"><ele>342.0</ele><time>2026-04-26T09:51:54.064Z</time></trkpt><trkpt lat="43.3512033" lon="11.9254696"><ele>342.0</ele><time>2026-04-26T09:51:56.065Z</time></trkpt><trkpt lat="43.3511698" lon="11.9255854"><ele>342.0</ele><time>2026-04-26T09:51:58.065Z</time></trkpt><trkpt lat="43.3511343" lon="11.9257014"><ele>342.0</ele><time>2026-04-26T09:52:00.065Z</time></trkpt><trkpt lat="43.35109" lon="11.9258101"><ele>342.0</ele><time>2026-04-26T09:52:02.065Z</time></trkpt><trkpt lat="43.351067" lon="11.9259165"><ele>342.0</ele><time>2026-04-26T09:52:04.065Z</time></trkpt><trkpt lat="43.3510351" lon="11.9260201"><ele>342.0</ele><time>2026-04-26T09:52:06.065Z</time></trkpt><trkpt lat="43.3510047" lon="11.9261297"><ele>342.5</ele><time>2026-04-26T09:52:08.065Z</time></trkpt><trkpt lat="43.3509713" lon="11.9262417"><ele>343.0</ele><time>2026-04-26T09:52:10.065Z</time></trkpt><trkpt lat="43.3509472" lon="11.9263493"><ele>343.5</ele><time>2026-04-26T09:52:12.065Z</time></trkpt><trkpt lat="43.3509229" lon="11.9264615"><ele>344.0</ele><time>2026-04-26T09:52:14.065Z</time></trkpt><trkpt lat="43.3509052" lon="11.9265685"><ele>344.5</ele><time>2026-04-26T09:52:16.065Z</time></trkpt><trkpt lat="43.3508833" lon="11.9266798"><ele>345.0</ele><time>2026-04-26T09:52:18.065Z</time></trkpt><trkpt lat="43.3508629" lon="11.9267868"><ele>346.0</ele><time>2026-04-26T09:52:20.065Z</time></trkpt><trkpt lat="43.3508521" lon="11.9268962"><ele>347.0</ele><time>2026-04-26T09:52:22.065Z</time></trkpt><trkpt lat="43.350841" lon="11.9270029"><ele>348.0</ele><time>2026-04-26T09:52:24.065Z</time></trkpt><trkpt lat="43.3508243" lon="11.9270999"><ele>349.0</ele><time>2026-04-26T09:52:26.065Z</time></trkpt><trkpt lat="43.3508005" lon="11.9271989"><ele>350.0</ele><time>2026-04-26T09:52:28.064Z</time></trkpt><trkpt lat="43.350784" lon="11.9273019"><ele>351.0</ele><time>2026-04-26T09:52:30.065Z</time></trkpt><trkpt lat="43.3507716" lon="11.9273942"><ele>351.00000000000006</ele><time>2026-04-26T09:52:32.065Z</time></trkpt><trkpt lat="43.3507627" lon="11.9274935"><ele>351.0</ele><time>2026-04-26T09:52:34.065Z</time></trkpt><trkpt lat="43.3507559" lon="11.9275924"><ele>351.0</ele><time>2026-04-26T09:52:36.065Z</time></trkpt><trkpt lat="43.3507539" lon="11.9276979"><ele>351.0</ele><time>2026-04-26T09:52:38.065Z</time></trkpt><trkpt lat="43.3507648" lon="11.9278001"><ele>351.0</ele><time>2026-04-26T09:52:40.065Z</time></trkpt><trkpt lat="43.35079" lon="11.9278956"><ele>351.00000000000006</ele><time>2026-04-26T09:52:42.065Z</time></trkpt><trkpt lat="43.3508234" lon="11.9279839"><ele>351.0</ele><time>2026-04-26T09:52:44.065Z</time></trkpt><trkpt lat="43.3508777" lon="11.928065"><ele>351.0</ele><time>2026-04-26T09:52:46.065Z</time></trkpt><trkpt lat="43.3509389" lon="11.9281337"><ele>351.0</ele><time>2026-04-26T09:52:48.065Z</time></trkpt><trkpt lat="43.3509922" lon="11.9282013"><ele>351.0</ele><time>2026-04-26T09:52:50.065Z</time></trkpt><trkpt lat="43.3510518" lon="11.9282563"><ele>351.0</ele><time>2026-04-26T09:52:52.065Z</time></trkpt><trkpt lat="43.3511161" lon="11.9283028"><ele>351.0</ele><time>2026-04-26T09:52:54.065Z</time></trkpt><trkpt lat="43.3511873" lon="11.9283514"><ele>351.0</ele><time>2026-04-26T09:52:56.065Z</time></trkpt><trkpt lat="43.3512584" lon="11.9283928"><ele>349.1666666666667</ele><time>2026-04-26T09:52:58.065Z</time></trkpt><trkpt lat="43.3513332" lon="11.9284337"><ele>347.3333333333333</ele><time>2026-04-26T09:53:00.065Z</time></trkpt><trkpt lat="43.351415" lon="11.9284602"><ele>345.5</ele><time>2026-04-26T09:53:02.065Z</time></trkpt><trkpt lat="43.3514974" lon="11.9284877"><ele>343.66666666666663</ele><time>2026-04-26T09:53:04.065Z</time></trkpt><trkpt lat="43.3515749" lon="11.928509"><ele>341.8333333333333</ele><time>2026-04-26T09:53:06.065Z</time></trkpt><trkpt lat="43.3516638" lon="11.9285172"><ele>340.0</ele><time>2026-04-26T09:53:08.065Z</time></trkpt><trkpt lat="43.351757" lon="11.9285275"><ele>340.0</ele><time>2026-04-26T09:53:10.065Z</time></trkpt><trkpt lat="43.3518416" lon="11.9285452"><ele>340.0</ele><time>2026-04-26T09:53:12.065Z</time></trkpt><trkpt lat="43.3519278" lon="11.9285759"><ele>340.0</ele><time>2026-04-26T09:53:14.065Z</time></trkpt><trkpt lat="43.352016" lon="11.9285906"><ele>340.0</ele><time>2026-04-26T09:53:16.065Z</time></trkpt><trkpt lat="43.3521024" lon="11.9286076"><ele>340.0</ele><time>2026-04-26T09:53:18.065Z</time></trkpt><trkpt lat="43.3521902" lon="11.9286357"><ele>340.0</ele><time>2026-04-26T09:53:20.065Z</time></trkpt><trkpt lat="43.3522794" lon="11.9286467"><ele>342.0</ele><time>2026-04-26T09:53:22.065Z</time></trkpt><trkpt lat="43.3523679" lon="11.9286601"><ele>344.0</ele><time>2026-04-26T09:53:24.065Z</time></trkpt><trkpt lat="43.352456" lon="11.9286645"><ele>346.0</ele><time>2026-04-26T09:53:26.065Z</time></trkpt><trkpt lat="43.3525508" lon="11.9286645"><ele>348.0</ele><time>2026-04-26T09:53:28.065Z</time></trkpt><trkpt lat="43.352649" lon="11.9286641"><ele>350.0</ele><time>2026-04-26T09:53:30.065Z</time></trkpt><trkpt lat="43.3527435" lon="11.9286577"><ele>350.0</ele><time>2026-04-26T09:53:32.065Z</time></trkpt><trkpt lat="43.3528254" lon="11.9286519"><ele>350.0</ele><time>2026-04-26T09:53:34.065Z</time></trkpt><trkpt lat="43.3529119" lon="11.928699"><ele>350.0</ele><time>2026-04-26T09:53:36.065Z</time></trkpt><trkpt lat="43.3529955" lon="11.9287797"><ele>350.0</ele><time>2026-04-26T09:53:38.065Z</time></trkpt><trkpt lat="43.3530513" lon="11.9288863"><ele>350.0</ele><time>2026-04-26T09:53:40.065Z</time></trkpt><trkpt lat="43.3530885" lon="11.9290026"><ele>354.4</ele><time>2026-04-26T09:53:42.065Z</time></trkpt><trkpt lat="43.353116" lon="11.9291294"><ele>358.8</ele><time>2026-04-26T09:53:44.065Z</time></trkpt><trkpt lat="43.3531435" lon="11.9292638"><ele>363.20000000000005</ele><time>2026-04-26T09:53:46.064Z</time></trkpt><trkpt lat="43.3531558" lon="11.9293991"><ele>367.6</ele><time>2026-04-26T09:53:48.065Z</time></trkpt><trkpt lat="43.3531445" lon="11.9295258"><ele>372.0</ele><time>2026-04-26T09:53:50.065Z</time></trkpt><trkpt lat="43.3531154" lon="11.929661"><ele>372.6</ele><time>2026-04-26T09:53:52.065Z</time></trkpt><trkpt lat="43.3530709" lon="11.929779"><ele>373.20000000000005</ele><time>2026-04-26T09:53:54.065Z</time></trkpt><trkpt lat="43.3530402" lon="11.9299125"><ele>373.8</ele><time>2026-04-26T09:53:56.065Z</time></trkpt><trkpt lat="43.3530119" lon="11.9300412"><ele>374.4</ele><time>2026-04-26T09:53:58.065Z</time></trkpt><trkpt lat="43.3529961" lon="11.9301614"><ele>375.0</ele><time>2026-04-26T09:54:00.065Z</time></trkpt><trkpt lat="43.3529949" lon="11.9302925"><ele>370.4</ele><time>2026-04-26T09:54:02.065Z</time></trkpt><trkpt lat="43.3529874" lon="11.9304272"><ele>365.8</ele><time>2026-04-26T09:54:04.065Z</time></trkpt><trkpt lat="43.3529813" lon="11.9305581"><ele>361.20000000000005</ele><time>2026-04-26T09:54:06.065Z</time></trkpt><trkpt lat="43.3529727" lon="11.9306882"><ele>356.6</ele><time>2026-04-26T09:54:08.065Z</time></trkpt><trkpt lat="43.3529639" lon="11.9308225"><ele>352.0</ele><time>2026-04-26T09:54:10.065Z</time></trkpt><trkpt lat="43.3529531" lon="11.9309566"><ele>351.8</ele><time>2026-04-26T09:54:12.064Z</time></trkpt><trkpt lat="43.3529477" lon="11.9310867"><ele>351.6</ele><time>2026-04-26T09:54:14.065Z</time></trkpt><trkpt lat="43.3529373" lon="11.9312098"><ele>351.40000000000003</ele><time>2026-04-26T09:54:16.065Z</time></trkpt><trkpt lat="43.3529364" lon="11.9313189"><ele>351.20000000000005</ele><time>2026-04-26T09:54:18.065Z</time></trkpt><trkpt lat="43.3529342" lon="11.9314502"><ele>351.0</ele><time>2026-04-26T09:54:20.065Z</time></trkpt><trkpt lat="43.3529285" lon="11.9315811"><ele>351.0</ele><time>2026-04-26T09:54:22.065Z</time></trkpt><trkpt lat="43.3529161" lon="11.9317092"><ele>351.0</ele><time>2026-04-26T09:54:24.065Z</time></trkpt><trkpt lat="43.3529126" lon="11.9318269"><ele>351.0</ele><time>2026-04-26T09:54:26.065Z</time></trkpt><trkpt lat="43.3529022" lon="11.9319469"><ele>351.0</ele><time>2026-04-26T09:54:28.065Z</time></trkpt><trkpt lat="43.3528997" lon="11.9320702"><ele>351.0</ele><time>2026-04-26T09:54:30.065Z</time></trkpt><trkpt lat="43.352901" lon="11.9321885"><ele>351.0</ele><time>2026-04-26T09:54:32.065Z</time></trkpt><trkpt lat="43.352892" lon="11.9323038"><ele>352.0</ele><time>2026-04-26T09:54:34.065Z</time></trkpt><trkpt lat="43.3528783" lon="11.9324164"><ele>353.0</ele><time>2026-04-26T09:54:36.065Z</time></trkpt><trkpt lat="43.3528471" lon="11.9325247"><ele>354.0</ele><time>2026-04-26T09:54:38.065Z</time></trkpt><trkpt lat="43.3527979" lon="11.9326112"><ele>355.0</ele><time>2026-04-26T09:54:40.065Z</time></trkpt><trkpt lat="43.3527443" lon="11.932686"><ele>356.0</ele><time>2026-04-26T09:54:42.064Z</time></trkpt><trkpt lat="43.3526879" lon="11.9327922"><ele>357.0</ele><time>2026-04-26T09:54:45.065Z</time></trkpt><trkpt lat="43.3526497" lon="11.9329077"><ele>357.3333333333333</ele><time>2026-04-26T09:54:48.065Z</time></trkpt><trkpt lat="43.3526383" lon="11.933006"><ele>357.6666666666667</ele><time>2026-04-26T09:54:50.065Z</time></trkpt><trkpt lat="43.3526409" lon="11.9331043"><ele>358.0</ele><time>2026-04-26T09:54:52.064Z</time></trkpt><trkpt lat="43.3526454" lon="11.9332093"><ele>358.33333333333337</ele><time>2026-04-26T09:54:54.065Z</time></trkpt><trkpt lat="43.3526538" lon="11.93332"><ele>358.6666666666667</ele><time>2026-04-26T09:54:56.065Z</time></trkpt><trkpt lat="43.3526687" lon="11.9334243"><ele>359.0</ele><time>2026-04-26T09:54:58.065Z</time></trkpt><trkpt lat="43.3526863" lon="11.9335294"><ele>359.0</ele><time>2026-04-26T09:55:00.064Z</time></trkpt><trkpt lat="43.3527102" lon="11.9336382"><ele>359.0</ele><time>2026-04-26T09:55:02.065Z</time></trkpt><trkpt lat="43.3527398" lon="11.9337322"><ele>359.0</ele><time>2026-04-26T09:55:04.065Z</time></trkpt><trkpt lat="43.3527879" lon="11.9338113"><ele>359.0</ele><time>2026-04-26T09:55:06.065Z</time></trkpt><trkpt lat="43.3528514" lon="11.9338684"><ele>359.0</ele><time>2026-04-26T09:55:08.065Z</time></trkpt><trkpt lat="43.3529143" lon="11.9339136"><ele>359.0</ele><time>2026-04-26T09:55:10.065Z</time></trkpt><trkpt lat="43.3529786" lon="11.933953"><ele>359.0</ele><time>2026-04-26T09:55:12.065Z</time></trkpt><trkpt lat="43.3530521" lon="11.933957"><ele>361.0</ele><time>2026-04-26T09:55:14.065Z</time></trkpt><trkpt lat="43.3531216" lon="11.9339848"><ele>363.0</ele><time>2026-04-26T09:55:16.065Z</time></trkpt><trkpt lat="43.3531961" lon="11.934002"><ele>365.0</ele><time>2026-04-26T09:55:18.065Z</time></trkpt><trkpt lat="43.3532713" lon="11.9340148"><ele>367.0</ele><time>2026-04-26T09:55:20.065Z</time></trkpt><trkpt lat="43.353355" lon="11.9340275"><ele>369.0</ele><time>2026-04-26T09:55:22.065Z</time></trkpt><trkpt lat="43.3534369" lon="11.9340388"><ele>371.0</ele><time>2026-04-26T09:55:24.065Z</time></trkpt><trkpt lat="43.3535179" lon="11.9340473"><ele>371.0</ele><time>2026-04-26T09:55:26.065Z</time></trkpt><trkpt lat="43.3535928" lon="11.9340685"><ele>371.0</ele><time>2026-04-26T09:55:28.065Z</time></trkpt><trkpt lat="43.3536723" lon="11.9340975"><ele>371.0</ele><time>2026-04-26T09:55:30.065Z</time></trkpt><trkpt lat="43.3537516" lon="11.9341121"><ele>371.0</ele><time>2026-04-26T09:55:32.065Z</time></trkpt><trkpt lat="43.3538309" lon="11.9341275"><ele>371.0</ele><time>2026-04-26T09:55:34.065Z</time></trkpt><trkpt lat="43.3539032" lon="11.9341441"><ele>371.0</ele><time>2026-04-26T09:55:36.065Z</time></trkpt><trkpt lat="43.3539811" lon="11.9341618"><ele>372.33333333333337</ele><time>2026-04-26T09:55:38.065Z</time></trkpt><trkpt lat="43.3540554" lon="11.9341669"><ele>373.6666666666667</ele><time>2026-04-26T09:55:40.065Z</time></trkpt><trkpt lat="43.3541295" lon="11.9341894"><ele>375.0</ele><time>2026-04-26T09:55:42.065Z</time></trkpt><trkpt lat="43.3541981" lon="11.9341987"><ele>376.3333333333333</ele><time>2026-04-26T09:55:44.065Z</time></trkpt><trkpt lat="43.3543025" lon="11.9342215"><ele>377.66666666666663</ele><time>2026-04-26T09:55:47.065Z</time></trkpt><trkpt lat="43.3543989" lon="11.9342396"><ele>379.0</ele><time>2026-04-26T09:55:49.065Z</time></trkpt><trkpt lat="43.3544876" lon="11.9342813"><ele>379.00000000000006</ele><time>2026-04-26T09:55:52.065Z</time></trkpt><trkpt lat="43.3545532" lon="11.9343079"><ele>379.0</ele><time>2026-04-26T09:55:54.065Z</time></trkpt><trkpt lat="43.3546052" lon="11.9343597"><ele>379.0</ele><time>2026-04-26T09:55:56.065Z</time></trkpt><trkpt lat="43.3546433" lon="11.9344473"><ele>379.0</ele><time>2026-04-26T09:55:58.065Z</time></trkpt><trkpt lat="43.3546556" lon="11.9345362"><ele>379.0</ele><time>2026-04-26T09:56:00.065Z</time></trkpt><trkpt lat="43.3546339" lon="11.9346255"><ele>379.00000000000006</ele><time>2026-04-26T09:56:02.065Z</time></trkpt><trkpt lat="43.3545781" lon="11.9346934"><ele>379.0</ele><time>2026-04-26T09:56:04.065Z</time></trkpt><trkpt lat="43.3545096" lon="11.9347507"><ele>379.0</ele><time>2026-04-26T09:56:06.065Z</time></trkpt><trkpt lat="43.3544374" lon="11.9348159"><ele>379.0</ele><time>2026-04-26T09:56:08.065Z</time></trkpt><trkpt lat="43.3543721" lon="11.9348898"><ele>379.0</ele><time>2026-04-26T09:56:10.065Z</time></trkpt><trkpt lat="43.3543141" lon="11.934948"><ele>379.0</ele><time>2026-04-26T09:56:12.065Z</time></trkpt><trkpt lat="43.3542636" lon="11.9350161"><ele>379.0</ele><time>2026-04-26T09:56:14.065Z</time></trkpt><trkpt lat="43.3542163" lon="11.9350903"><ele>379.0</ele><time>2026-04-26T09:56:16.065Z</time></trkpt><trkpt lat="43.3541822" lon="11.9351744"><ele>379.66666666666663</ele><time>2026-04-26T09:56:18.065Z</time></trkpt><trkpt lat="43.3541619" lon="11.9352701"><ele>380.3333333333333</ele><time>2026-04-26T09:56:20.065Z</time></trkpt><trkpt lat="43.3541529" lon="11.9353798"><ele>381.0</ele><time>2026-04-26T09:56:22.065Z</time></trkpt><trkpt lat="43.3541618" lon="11.9354815"><ele>381.6666666666667</ele><time>2026-04-26T09:56:24.065Z</time></trkpt><trkpt lat="43.3541872" lon="11.93558"><ele>382.33333333333337</ele><time>2026-04-26T09:56:26.065Z</time></trkpt><trkpt lat="43.3542174" lon="11.9356825"><ele>383.0</ele><time>2026-04-26T09:56:28.064Z</time></trkpt><trkpt lat="43.3542506" lon="11.9357639"><ele>383.0</ele><time>2026-04-26T09:56:30.065Z</time></trkpt><trkpt lat="43.3542852" lon="11.935849"><ele>383.0</ele><time>2026-04-26T09:56:32.064Z</time></trkpt><trkpt lat="43.3543191" lon="11.9359351"><ele>383.0</ele><time>2026-04-26T09:56:34.065Z</time></trkpt><trkpt lat="43.3543452" lon="11.9360386"><ele>383.0</ele><time>2026-04-26T09:56:36.065Z</time></trkpt><trkpt lat="43.3543578" lon="11.9361403"><ele>383.0</ele><time>2026-04-26T09:56:38.065Z</time></trkpt><trkpt lat="43.3543631" lon="11.9362416"><ele>383.0</ele><time>2026-04-26T09:56:40.065Z</time></trkpt><trkpt lat="43.3543457" lon="11.936336"><ele>383.0</ele><time>2026-04-26T09:56:42.065Z</time></trkpt><trkpt lat="43.354323" lon="11.936446"><ele>383.33333333333337</ele><time>2026-04-26T09:56:44.065Z</time></trkpt><trkpt lat="43.3543025" lon="11.9365505"><ele>383.6666666666667</ele><time>2026-04-26T09:56:46.065Z</time></trkpt><trkpt lat="43.3542945" lon="11.9366589"><ele>384.0</ele><time>2026-04-26T09:56:48.065Z</time></trkpt><trkpt lat="43.3542915" lon="11.9367644"><ele>384.33333333333337</ele><time>2026-04-26T09:56:50.065Z</time></trkpt><trkpt lat="43.354282" lon="11.9368734"><ele>384.6666666666667</ele><time>2026-04-26T09:56:52.065Z</time></trkpt><trkpt lat="43.3542752" lon="11.9369849"><ele>385.0</ele><time>2026-04-26T09:56:54.065Z</time></trkpt><trkpt lat="43.3542797" lon="11.9370845"><ele>385.00000000000006</ele><time>2026-04-26T09:56:56.065Z</time></trkpt><trkpt lat="43.3542791" lon="11.9371928"><ele>385.0</ele><time>2026-04-26T09:56:58.065Z</time></trkpt><trkpt lat="43.3542894" lon="11.9372968"><ele>385.0</ele><time>2026-04-26T09:57:00.065Z</time></trkpt><trkpt lat="43.3543095" lon="11.9373937"><ele>385.0</ele><time>2026-04-26T09:57:02.064Z</time></trkpt><trkpt lat="43.3543372" lon="11.9374877"><ele>385.00000000000006</ele><time>2026-04-26T09:57:04.065Z</time></trkpt><trkpt lat="43.3543784" lon="11.9375806"><ele>385.0</ele><time>2026-04-26T09:57:06.065Z</time></trkpt><trkpt lat="43.3544299" lon="11.9376596"><ele>385.6666666666667</ele><time>2026-04-26T09:57:08.065Z</time></trkpt><trkpt lat="43.3544928" lon="11.9377375"><ele>386.33333333333337</ele><time>2026-04-26T09:57:10.065Z</time></trkpt><trkpt lat="43.3545589" lon="11.9377818"><ele>387.0</ele><time>2026-04-26T09:57:12.064Z</time></trkpt><trkpt lat="43.3546394" lon="11.937789"><ele>387.66666666666663</ele><time>2026-04-26T09:57:14.064Z</time></trkpt><trkpt lat="43.3547195" lon="11.937777"><ele>388.3333333333333</ele><time>2026-04-26T09:57:16.064Z</time></trkpt><trkpt lat="43.3548001" lon="11.9377603"><ele>389.0</ele><time>2026-04-26T09:57:18.065Z</time></trkpt><trkpt lat="43.3548794" lon="11.9377472"><ele>388.99999999999994</ele><time>2026-04-26T09:57:20.064Z</time></trkpt><trkpt lat="43.3549492" lon="11.9377102"><ele>389.0</ele><time>2026-04-26T09:57:22.065Z</time></trkpt><trkpt lat="43.3550193" lon="11.9376812"><ele>389.0</ele><time>2026-04-26T09:57:24.065Z</time></trkpt><trkpt lat="43.3550812" lon="11.9376513"><ele>389.0</ele><time>2026-04-26T09:57:26.065Z</time></trkpt><trkpt lat="43.355164" lon="11.9376081"><ele>388.99999999999994</ele><time>2026-04-26T09:57:29.065Z</time></trkpt><trkpt lat="43.3552603" lon="11.9375622"><ele>389.0</ele><time>2026-04-26T09:57:32.065Z</time></trkpt><trkpt lat="43.3553356" lon="11.9375544"><ele>388.99999999999994</ele><time>2026-04-26T09:57:34.065Z</time></trkpt><trkpt lat="43.3554001" lon="11.937551"><ele>389.0</ele><time>2026-04-26T09:57:36.065Z</time></trkpt><trkpt lat="43.3554739" lon="11.937566"><ele>389.0</ele><time>2026-04-26T09:57:38.065Z</time></trkpt><trkpt lat="43.3555607" lon="11.9375834"><ele>389.0</ele><time>2026-04-26T09:57:40.065Z</time></trkpt><trkpt lat="43.3556256" lon="11.9376331"><ele>388.99999999999994</ele><time>2026-04-26T09:57:42.065Z</time></trkpt><trkpt lat="43.3556928" lon="11.9377179"><ele>389.0</ele><time>2026-04-26T09:57:45.065Z</time></trkpt><trkpt lat="43.3557368" lon="11.937824"><ele>393.49999999999994</ele><time>2026-04-26T09:57:48.065Z</time></trkpt><trkpt lat="43.3557509" lon="11.9379491"><ele>398.0</ele><time>2026-04-26T09:57:51.065Z</time></trkpt><trkpt lat="43.3557518" lon="11.938038"><ele>402.5</ele><time>2026-04-26T09:57:53.065Z</time></trkpt><trkpt lat="43.3557469" lon="11.9381294"><ele>407.0</ele><time>2026-04-26T09:57:55.065Z</time></trkpt><trkpt lat="43.3557317" lon="11.9382291"><ele>411.49999999999994</ele><time>2026-04-26T09:57:57.064Z</time></trkpt><trkpt lat="43.3557042" lon="11.9383299"><ele>416.0</ele><time>2026-04-26T09:57:59.064Z</time></trkpt><trkpt lat="43.3556708" lon="11.9384228"><ele>416.57142857142856</ele><time>2026-04-26T09:58:01.065Z</time></trkpt><trkpt lat="43.3556275" lon="11.9385122"><ele>417.14285714285717</ele><time>2026-04-26T09:58:03.065Z</time></trkpt><trkpt lat="43.3555882" lon="11.9385946"><ele>417.7142857142857</ele><time>2026-04-26T09:58:05.065Z</time></trkpt><trkpt lat="43.3555524" lon="11.938678"><ele>418.2857142857143</ele><time>2026-04-26T09:58:07.065Z</time></trkpt><trkpt lat="43.3555324" lon="11.9387696"><ele>418.8571428571429</ele><time>2026-04-26T09:58:09.065Z</time></trkpt><trkpt lat="43.3555278" lon="11.9388638"><ele>419.42857142857144</ele><time>2026-04-26T09:58:11.065Z</time></trkpt><trkpt lat="43.3555295" lon="11.9389596"><ele>420.0</ele><time>2026-04-26T09:58:13.065Z</time></trkpt><trkpt lat="43.3555344" lon="11.9390606"><ele>420.0</ele><time>2026-04-26T09:58:15.065Z</time></trkpt><trkpt lat="43.3555454" lon="11.9391522"><ele>420.0</ele><time>2026-04-26T09:58:17.064Z</time></trkpt><trkpt lat="43.3555625" lon="11.9392393"><ele>420.0</ele><time>2026-04-26T09:58:19.064Z</time></trkpt><trkpt lat="43.3555909" lon="11.9393174"><ele>420.0</ele><time>2026-04-26T09:58:21.064Z</time></trkpt><trkpt lat="43.3556413" lon="11.9394219"><ele>420.0</ele><time>2026-04-26T09:58:24.064Z</time></trkpt><trkpt lat="43.3556892" lon="11.9394859"><ele>420.0</ele><time>2026-04-26T09:58:26.064Z</time></trkpt><trkpt lat="43.355743" lon="11.9395833"><ele>420.0</ele><time>2026-04-26T09:58:29.064Z</time></trkpt><trkpt lat="43.3557989" lon="11.9396744"><ele>418.1666666666667</ele><time>2026-04-26T09:58:32.064Z</time></trkpt><trkpt lat="43.3558566" lon="11.9397622"><ele>416.33333333333337</ele><time>2026-04-26T09:58:35.064Z</time></trkpt><trkpt lat="43.3559047" lon="11.9398567"><ele>414.5</ele><time>2026-04-26T09:58:38.064Z</time></trkpt><trkpt lat="43.3559532" lon="11.939943"><ele>412.6666666666667</ele><time>2026-04-26T09:58:41.064Z</time></trkpt><trkpt lat="43.3560063" lon="11.9400333"><ele>410.83333333333337</ele><time>2026-04-26T09:58:44.064Z</time></trkpt><trkpt lat="43.3560631" lon="11.9401236"><ele>409.0</ele><time>2026-04-26T09:58:47.064Z</time></trkpt><trkpt lat="43.356118" lon="11.940212"><ele>407.50000000000006</ele><time>2026-04-26T09:58:50.064Z</time></trkpt><trkpt lat="43.3561699" lon="11.9403024"><ele>406.0</ele><time>2026-04-26T09:58:53.064Z</time></trkpt><trkpt lat="43.3562307" lon="11.9403796"><ele>404.5</ele><time>2026-04-26T09:58:56.063Z</time></trkpt><trkpt lat="43.3563012" lon="11.940458"><ele>403.0</ele><time>2026-04-26T09:58:59.063Z</time></trkpt><trkpt lat="43.3563754" lon="11.9405335"><ele>401.50000000000006</ele><time>2026-04-26T09:59:02.064Z</time></trkpt><trkpt lat="43.3564316" lon="11.9405749"><ele>400.0</ele><time>2026-04-26T09:59:04.064Z</time></trkpt><trkpt lat="43.3564892" lon="11.9406126"><ele>404.00000000000006</ele><time>2026-04-26T09:59:06.064Z</time></trkpt><trkpt lat="43.3565702" lon="11.9406726"><ele>408.0</ele><time>2026-04-26T09:59:09.064Z</time></trkpt><trkpt lat="43.3566323" lon="11.9407047"><ele>412.0</ele><time>2026-04-26T09:59:11.064Z</time></trkpt><trkpt lat="43.3566917" lon="11.9407411"><ele>416.0</ele><time>2026-04-26T09:59:13.064Z</time></trkpt><trkpt lat="43.3567488" lon="11.9407857"><ele>420.00000000000006</ele><time>2026-04-26T09:59:15.064Z</time></trkpt><trkpt lat="43.356825" lon="11.9408541"><ele>424.0</ele><time>2026-04-26T09:59:18.064Z</time></trkpt><trkpt lat="43.356898" lon="11.9409134"><ele>424.2857142857143</ele><time>2026-04-26T09:59:21.063Z</time></trkpt><trkpt lat="43.3569545" lon="11.9409517"><ele>424.57142857142856</ele><time>2026-04-26T09:59:23.064Z</time></trkpt><trkpt lat="43.3570166" lon="11.9410317"><ele>424.85714285714283</ele><time>2026-04-26T09:59:26.064Z</time></trkpt><trkpt lat="43.3570429" lon="11.941121"><ele>425.1428571428571</ele><time>2026-04-26T09:59:28.064Z</time></trkpt><trkpt lat="43.3570492" lon="11.9412198"><ele>425.42857142857144</ele><time>2026-04-26T09:59:30.064Z</time></trkpt><trkpt lat="43.3570247" lon="11.9413053"><ele>425.71428571428567</ele><time>2026-04-26T09:59:32.064Z</time></trkpt><trkpt lat="43.3569756" lon="11.9413645"><ele>426.0</ele><time>2026-04-26T09:59:34.064Z</time></trkpt><trkpt lat="43.3569182" lon="11.9414252"><ele>425.99999999999994</ele><time>2026-04-26T09:59:36.064Z</time></trkpt><trkpt lat="43.3568513" lon="11.9414747"><ele>426.0</ele><time>2026-04-26T09:59:38.064Z</time></trkpt><trkpt lat="43.3567892" lon="11.9415214"><ele>426.0</ele><time>2026-04-26T09:59:40.064Z</time></trkpt><trkpt lat="43.3567346" lon="11.9415767"><ele>426.0</ele><time>2026-04-26T09:59:42.064Z</time></trkpt><trkpt lat="43.3566785" lon="11.9416292"><ele>426.0</ele><time>2026-04-26T09:59:44.064Z</time></trkpt><trkpt lat="43.3566267" lon="11.9416877"><ele>425.99999999999994</ele><time>2026-04-26T09:59:46.064Z</time></trkpt><trkpt lat="43.3565549" lon="11.9417637"><ele>426.0</ele><time>2026-04-26T09:59:49.064Z</time></trkpt><trkpt lat="43.356503" lon="11.9418244"><ele>427.0</ele><time>2026-04-26T09:59:51.064Z</time></trkpt><trkpt lat="43.3564278" lon="11.9419028"><ele>428.0</ele><time>2026-04-26T09:59:54.064Z</time></trkpt><trkpt lat="43.3563675" lon="11.9419539"><ele>429.0</ele><time>2026-04-26T09:59:56.064Z</time></trkpt><trkpt lat="43.3563074" lon="11.9419925"><ele>430.0</ele><time>2026-04-26T09:59:58.064Z</time></trkpt><trkpt lat="43.3562464" lon="11.9420233"><ele>431.0</ele><time>2026-04-26T10:00:00.064Z</time></trkpt><trkpt lat="43.3561616" lon="11.9420827"><ele>432.0</ele><time>2026-04-26T10:00:03.064Z</time></trkpt><trkpt lat="43.3560776" lon="11.9421103"><ele>432.0</ele><time>2026-04-26T10:00:06.064Z</time></trkpt><trkpt lat="43.355991" lon="11.9421457"><ele>432.0</ele><time>2026-04-26T10:00:09.064Z</time></trkpt><trkpt lat="43.3559313" lon="11.9421788"><ele>432.0</ele><time>2026-04-26T10:00:11.063Z</time></trkpt><trkpt lat="43.3558425" lon="11.9422028"><ele>432.0</ele><time>2026-04-26T10:00:14.064Z</time></trkpt><trkpt lat="43.3557785" lon="11.9422253"><ele>432.0</ele><time>2026-04-26T10:00:16.064Z</time></trkpt><trkpt lat="43.3557156" lon="11.9422557"><ele>432.0</ele><time>2026-04-26T10:00:18.064Z</time></trkpt><trkpt lat="43.3556536" lon="11.9422852"><ele>432.0</ele><time>2026-04-26T10:00:20.064Z</time></trkpt><trkpt lat="43.3555639" lon="11.9423244"><ele>430.57142857142856</ele><time>2026-04-26T10:00:23.064Z</time></trkpt><trkpt lat="43.3554829" lon="11.9423574"><ele>429.1428571428571</ele><time>2026-04-26T10:00:25.064Z</time></trkpt><trkpt lat="43.3554078" lon="11.942389"><ele>427.7142857142857</ele><time>2026-04-26T10:00:27.064Z</time></trkpt><trkpt lat="43.3553384" lon="11.9424138"><ele>426.2857142857143</ele><time>2026-04-26T10:00:29.064Z</time></trkpt><trkpt lat="43.3552712" lon="11.9424365"><ele>424.8571428571429</ele><time>2026-04-26T10:00:31.064Z</time></trkpt><trkpt lat="43.3552079" lon="11.9424563"><ele>423.42857142857144</ele><time>2026-04-26T10:00:33.064Z</time></trkpt><trkpt lat="43.3551444" lon="11.9424822"><ele>422.0</ele><time>2026-04-26T10:00:35.064Z</time></trkpt><trkpt lat="43.3550854" lon="11.9425193"><ele>421.8571428571429</ele><time>2026-04-26T10:00:37.064Z</time></trkpt><trkpt lat="43.3550166" lon="11.942599"><ele>421.7142857142857</ele><time>2026-04-26T10:00:40.064Z</time></trkpt><trkpt lat="43.3549841" lon="11.9426839"><ele>421.57142857142856</ele><time>2026-04-26T10:00:42.064Z</time></trkpt><trkpt lat="43.3549729" lon="11.9427757"><ele>421.42857142857144</ele><time>2026-04-26T10:00:44.064Z</time></trkpt><trkpt lat="43.3549834" lon="11.9428641"><ele>421.2857142857143</ele><time>2026-04-26T10:00:46.064Z</time></trkpt><trkpt lat="43.3550232" lon="11.9429422"><ele>421.14285714285717</ele><time>2026-04-26T10:00:48.064Z</time></trkpt><trkpt lat="43.3550764" lon="11.9429933"><ele>421.0</ele><time>2026-04-26T10:00:50.064Z</time></trkpt><trkpt lat="43.3551591" lon="11.943052"><ele>421.00000000000006</ele><time>2026-04-26T10:00:53.063Z</time></trkpt><trkpt lat="43.3552355" lon="11.9430919"><ele>421.0</ele><time>2026-04-26T10:00:56.064Z</time></trkpt><trkpt lat="43.3553126" lon="11.9431391"><ele>421.0</ele><time>2026-04-26T10:00:59.064Z</time></trkpt><trkpt lat="43.3553934" lon="11.9432057"><ele>421.0</ele><time>2026-04-26T10:01:02.064Z</time></trkpt><trkpt lat="43.3554545" lon="11.9432456"><ele>421.00000000000006</ele><time>2026-04-26T10:01:04.064Z</time></trkpt><trkpt lat="43.3555195" lon="11.9432775"><ele>421.0</ele><time>2026-04-26T10:01:06.064Z</time></trkpt><trkpt lat="43.3555825" lon="11.9433287"><ele>421.33333333333337</ele><time>2026-04-26T10:01:08.064Z</time></trkpt><trkpt lat="43.3556378" lon="11.9433799"><ele>421.6666666666667</ele><time>2026-04-26T10:01:10.063Z</time></trkpt><trkpt lat="43.3557215" lon="11.9434377"><ele>422.0</ele><time>2026-04-26T10:01:13.064Z</time></trkpt><trkpt lat="43.3558001" lon="11.9434992"><ele>422.33333333333337</ele><time>2026-04-26T10:01:16.063Z</time></trkpt><trkpt lat="43.355851" lon="11.9435516"><ele>422.6666666666667</ele><time>2026-04-26T10:01:18.064Z</time></trkpt><trkpt lat="43.3559074" lon="11.9435971"><ele>423.0</ele><time>2026-04-26T10:01:20.064Z</time></trkpt><trkpt lat="43.3559891" lon="11.9436586"><ele>423.0</ele><time>2026-04-26T10:01:23.064Z</time></trkpt><trkpt lat="43.3560596" lon="11.9437227"><ele>423.0</ele><time>2026-04-26T10:01:26.064Z</time></trkpt><trkpt lat="43.3561388" lon="11.9437766"><ele>423.0</ele><time>2026-04-26T10:01:29.064Z</time></trkpt><trkpt lat="43.3562119" lon="11.9438428"><ele>423.0</ele><time>2026-04-26T10:01:32.063Z</time></trkpt><trkpt lat="43.3562839" lon="11.9439121"><ele>423.0</ele><time>2026-04-26T10:01:35.064Z</time></trkpt><trkpt lat="43.3563323" lon="11.9439679"><ele>423.0</ele><time>2026-04-26T10:01:37.064Z</time></trkpt><trkpt lat="43.3563816" lon="11.944024"><ele>424.4</ele><time>2026-04-26T10:01:39.064Z</time></trkpt><trkpt lat="43.3564572" lon="11.9441048"><ele>425.79999999999995</ele><time>2026-04-26T10:01:42.064Z</time></trkpt><trkpt lat="43.3565273" lon="11.9441857"><ele>427.2</ele><time>2026-04-26T10:01:45.064Z</time></trkpt><trkpt lat="43.3566004" lon="11.9442619"><ele>428.6</ele><time>2026-04-26T10:01:48.064Z</time></trkpt><trkpt lat="43.3566743" lon="11.9443383"><ele>430.0</ele><time>2026-04-26T10:01:51.063Z</time></trkpt><trkpt lat="43.3567475" lon="11.9444148"><ele>430.0</ele><time>2026-04-26T10:01:54.064Z</time></trkpt><trkpt lat="43.3567992" lon="11.9444739"><ele>430.0</ele><time>2026-04-26T10:01:56.064Z</time></trkpt><trkpt lat="43.3568449" lon="11.9445372"><ele>430.0</ele><time>2026-04-26T10:01:58.063Z</time></trkpt><trkpt lat="43.3568846" lon="11.9446054"><ele>430.0</ele><time>2026-04-26T10:02:00.064Z</time></trkpt><trkpt lat="43.3569235" lon="11.9446799"><ele>430.0</ele><time>2026-04-26T10:02:02.064Z</time></trkpt><trkpt lat="43.3569552" lon="11.9447558"><ele>430.0</ele><time>2026-04-26T10:02:04.064Z</time></trkpt><trkpt lat="43.3569958" lon="11.9448677"><ele>430.0</ele><time>2026-04-26T10:02:07.064Z</time></trkpt><trkpt lat="43.3570264" lon="11.9449454"><ele>427.6666666666667</ele><time>2026-04-26T10:02:09.064Z</time></trkpt><trkpt lat="43.3570543" lon="11.9450649"><ele>425.33333333333337</ele><time>2026-04-26T10:02:12.064Z</time></trkpt><trkpt lat="43.357085" lon="11.9451443"><ele>423.0</ele><time>2026-04-26T10:02:14.064Z</time></trkpt><trkpt lat="43.3571147" lon="11.9452215"><ele>420.66666666666663</ele><time>2026-04-26T10:02:16.064Z</time></trkpt><trkpt lat="43.3571722" lon="11.9453198"><ele>418.3333333333333</ele><time>2026-04-26T10:02:19.064Z</time></trkpt><trkpt lat="43.3572341" lon="11.9454118"><ele>416.0</ele><time>2026-04-26T10:02:22.064Z</time></trkpt><trkpt lat="43.3572894" lon="11.9454598"><ele>420.85714285714283</ele><time>2026-04-26T10:02:24.064Z</time></trkpt><trkpt lat="43.3573391" lon="11.9455162"><ele>425.7142857142858</ele><time>2026-04-26T10:02:26.064Z</time></trkpt><trkpt lat="43.3573955" lon="11.9455561"><ele>430.5714285714286</ele><time>2026-04-26T10:02:28.064Z</time></trkpt><trkpt lat="43.3574626" lon="11.9455911"><ele>435.42857142857144</ele><time>2026-04-26T10:02:30.064Z</time></trkpt><trkpt lat="43.3575478" lon="11.9456227"><ele>440.28571428571433</ele><time>2026-04-26T10:02:33.064Z</time></trkpt><trkpt lat="43.3576254" lon="11.9456432"><ele>445.1428571428572</ele><time>2026-04-26T10:02:36.063Z</time></trkpt><trkpt lat="43.3576938" lon="11.9456855"><ele>450.00000000000006</ele><time>2026-04-26T10:02:39.064Z</time></trkpt><trkpt lat="43.3577398" lon="11.9457833"><ele>450.0</ele><time>2026-04-26T10:02:42.064Z</time></trkpt><trkpt lat="43.357747" lon="11.9458735"><ele>450.0</ele><time>2026-04-26T10:02:44.064Z</time></trkpt><trkpt lat="43.3577477" lon="11.9459947"><ele>450.0</ele><time>2026-04-26T10:02:47.064Z</time></trkpt><trkpt lat="43.357758" lon="11.9461151"><ele>450.0</ele><time>2026-04-26T10:02:50.064Z</time></trkpt><trkpt lat="43.3577911" lon="11.9462223"><ele>450.0</ele><time>2026-04-26T10:02:53.064Z</time></trkpt><trkpt lat="43.3578425" lon="11.94633"><ele>450.0</ele><time>2026-04-26T10:02:56.064Z</time></trkpt><trkpt lat="43.3579055" lon="11.9464262"><ele>450.57142857142867</ele><time>2026-04-26T10:02:59.064Z</time></trkpt><trkpt lat="43.3579581" lon="11.9464756"><ele>451.14285714285717</ele><time>2026-04-26T10:03:01.063Z</time></trkpt><trkpt lat="43.358011" lon="11.9465235"><ele>451.7142857142858</ele><time>2026-04-26T10:03:03.064Z</time></trkpt><trkpt lat="43.3580666" lon="11.9465747"><ele>452.28571428571433</ele><time>2026-04-26T10:03:05.064Z</time></trkpt><trkpt lat="43.3581213" lon="11.9466245"><ele>452.8571428571429</ele><time>2026-04-26T10:03:07.064Z</time></trkpt><trkpt lat="43.3581703" lon="11.9466795"><ele>453.42857142857144</ele><time>2026-04-26T10:03:09.064Z</time></trkpt><trkpt lat="43.3582232" lon="11.9467589"><ele>454.0</ele><time>2026-04-26T10:03:12.064Z</time></trkpt><trkpt lat="43.358286" lon="11.9468373"><ele>454.00000000000006</ele><time>2026-04-26T10:03:15.064Z</time></trkpt><trkpt lat="43.3583486" lon="11.9469225"><ele>454.0</ele><time>2026-04-26T10:03:18.064Z</time></trkpt><trkpt lat="43.358395" lon="11.9469824"><ele>454.0</ele><time>2026-04-26T10:03:20.064Z</time></trkpt><trkpt lat="43.3584562" lon="11.947063"><ele>454.0</ele><time>2026-04-26T10:03:23.064Z</time></trkpt><trkpt lat="43.3584973" lon="11.9471352"><ele>454.00000000000006</ele><time>2026-04-26T10:03:25.064Z</time></trkpt><trkpt lat="43.3585486" lon="11.9472373"><ele>454.0</ele><time>2026-04-26T10:03:28.064Z</time></trkpt><trkpt lat="43.3585727" lon="11.9473181"><ele>454.00000000000006</ele><time>2026-04-26T10:03:30.064Z</time></trkpt><trkpt lat="43.3585894" lon="11.9474048"><ele>454.0</ele><time>2026-04-26T10:03:32.064Z</time></trkpt><trkpt lat="43.3586157" lon="11.9474844"><ele>454.0</ele><time>2026-04-26T10:03:34.064Z</time></trkpt><trkpt lat="43.3586482" lon="11.9476053"><ele>454.0</ele><time>2026-04-26T10:03:37.064Z</time></trkpt><trkpt lat="43.358682" lon="11.9476802"><ele>454.00000000000006</ele><time>2026-04-26T10:03:39.064Z</time></trkpt><trkpt lat="43.3587422" lon="11.9477616"><ele>454.0</ele><time>2026-04-26T10:03:42.064Z</time></trkpt><trkpt lat="43.3587865" lon="11.9478616"><ele>454.50000000000006</ele><time>2026-04-26T10:03:45.064Z</time></trkpt><trkpt lat="43.3588271" lon="11.9479301"><ele>455.0</ele><time>2026-04-26T10:03:47.064Z</time></trkpt><trkpt lat="43.358871" lon="11.9480365"><ele>455.5</ele><time>2026-04-26T10:03:50.063Z</time></trkpt><trkpt lat="43.3589151" lon="11.9481427"><ele>456.0</ele><time>2026-04-26T10:03:53.063Z</time></trkpt><trkpt lat="43.3589636" lon="11.9482328"><ele>456.50000000000006</ele><time>2026-04-26T10:03:56.064Z</time></trkpt><trkpt lat="43.3590206" lon="11.9483336"><ele>457.0</ele><time>2026-04-26T10:03:59.064Z</time></trkpt><trkpt lat="43.3590847" lon="11.9484184"><ele>461.83333333333337</ele><time>2026-04-26T10:04:02.064Z</time></trkpt><trkpt lat="43.3591425" lon="11.9484638"><ele>466.6666666666667</ele><time>2026-04-26T10:04:04.064Z</time></trkpt><trkpt lat="43.3591913" lon="11.9485188"><ele>471.5</ele><time>2026-04-26T10:04:06.064Z</time></trkpt><trkpt lat="43.3592179" lon="11.9486305"><ele>476.33333333333337</ele><time>2026-04-26T10:04:09.064Z</time></trkpt><trkpt lat="43.3592009" lon="11.948751"><ele>481.1666666666667</ele><time>2026-04-26T10:04:12.064Z</time></trkpt><trkpt lat="43.3591453" lon="11.9488528"><ele>486.0</ele><time>2026-04-26T10:04:15.063Z</time></trkpt><trkpt lat="43.3590809" lon="11.9489368"><ele>486.0</ele><time>2026-04-26T10:04:18.064Z</time></trkpt><trkpt lat="43.3590037" lon="11.9490025"><ele>486.0</ele><time>2026-04-26T10:04:21.064Z</time></trkpt><trkpt lat="43.3589265" lon="11.9490625"><ele>486.0</ele><time>2026-04-26T10:04:24.064Z</time></trkpt><trkpt lat="43.3588422" lon="11.9490926"><ele>486.0</ele><time>2026-04-26T10:04:27.064Z</time></trkpt><trkpt lat="43.3587544" lon="11.9491132"><ele>486.0</ele><time>2026-04-26T10:04:30.064Z</time></trkpt><trkpt lat="43.358666" lon="11.9491227"><ele>486.0</ele><time>2026-04-26T10:04:33.064Z</time></trkpt><trkpt lat="43.358572" lon="11.9491387"><ele>485.2857142857143</ele><time>2026-04-26T10:04:36.064Z</time></trkpt><trkpt lat="43.3585073" lon="11.949144"><ele>484.57142857142856</ele><time>2026-04-26T10:04:38.064Z</time></trkpt><trkpt lat="43.3584405" lon="11.9491475"><ele>483.85714285714283</ele><time>2026-04-26T10:04:40.063Z</time></trkpt><trkpt lat="43.3583742" lon="11.9491519"><ele>483.1428571428571</ele><time>2026-04-26T10:04:42.064Z</time></trkpt><trkpt lat="43.358306" lon="11.949145"><ele>482.42857142857144</ele><time>2026-04-26T10:04:44.064Z</time></trkpt><trkpt lat="43.3582364" lon="11.9491356"><ele>481.71428571428567</ele><time>2026-04-26T10:04:46.064Z</time></trkpt><trkpt lat="43.358171" lon="11.949114"><ele>480.99999999999994</ele><time>2026-04-26T10:04:48.064Z</time></trkpt><trkpt lat="43.3581101" lon="11.9490818"><ele>480.71428571428567</ele><time>2026-04-26T10:04:50.064Z</time></trkpt><trkpt lat="43.358034" lon="11.9490504"><ele>480.42857142857144</ele><time>2026-04-26T10:04:52.064Z</time></trkpt><trkpt lat="43.3579664" lon="11.9490299"><ele>480.1428571428571</ele><time>2026-04-26T10:04:54.064Z</time></trkpt><trkpt lat="43.3579006" lon="11.9490114"><ele>479.85714285714283</ele><time>2026-04-26T10:04:56.064Z</time></trkpt><trkpt lat="43.3578346" lon="11.9489978"><ele>479.57142857142856</ele><time>2026-04-26T10:04:58.064Z</time></trkpt><trkpt lat="43.3577682" lon="11.9490002"><ele>479.2857142857143</ele><time>2026-04-26T10:05:00.064Z</time></trkpt><trkpt lat="43.3577023" lon="11.949029"><ele>479.0</ele><time>2026-04-26T10:05:02.064Z</time></trkpt><trkpt lat="43.3576482" lon="11.9490829"><ele>479.0</ele><time>2026-04-26T10:05:04.064Z</time></trkpt><trkpt lat="43.3575965" lon="11.9491489"><ele>479.0</ele><time>2026-04-26T10:05:06.064Z</time></trkpt><trkpt lat="43.357544" lon="11.9492201"><ele>479.0</ele><time>2026-04-26T10:05:08.064Z</time></trkpt><trkpt lat="43.3574953" lon="11.949287"><ele>479.0</ele><time>2026-04-26T10:05:10.063Z</time></trkpt><trkpt lat="43.3574408" lon="11.9493336"><ele>479.0</ele><time>2026-04-26T10:05:12.064Z</time></trkpt><trkpt lat="43.3573499" lon="11.9493851"><ele>479.0</ele><time>2026-04-26T10:05:15.064Z</time></trkpt><trkpt lat="43.3572875" lon="11.9493971"><ele>479.0</ele><time>2026-04-26T10:05:17.064Z</time></trkpt><trkpt lat="43.3572227" lon="11.9493989"><ele>482.71428571428567</ele><time>2026-04-26T10:05:19.064Z</time></trkpt><trkpt lat="43.3571544" lon="11.9494001"><ele>486.42857142857144</ele><time>2026-04-26T10:05:21.064Z</time></trkpt><trkpt lat="43.3570899" lon="11.9493977"><ele>490.1428571428571</ele><time>2026-04-26T10:05:23.063Z</time></trkpt><trkpt lat="43.357026" lon="11.9493838"><ele>493.85714285714283</ele><time>2026-04-26T10:05:25.064Z</time></trkpt><trkpt lat="43.3569613" lon="11.9493915"><ele>497.57142857142856</ele><time>2026-04-26T10:05:27.064Z</time></trkpt><trkpt lat="43.356895" lon="11.9494001"><ele>501.2857142857143</ele><time>2026-04-26T10:05:29.064Z</time></trkpt><trkpt lat="43.35683" lon="11.9494033"><ele>505.0</ele><time>2026-04-26T10:05:31.064Z</time></trkpt><trkpt lat="43.356763" lon="11.9493971"><ele>505.0</ele><time>2026-04-26T10:05:33.064Z</time></trkpt><trkpt lat="43.3566895" lon="11.9493977"><ele>504.99999999999994</ele><time>2026-04-26T10:05:35.064Z</time></trkpt><trkpt lat="43.3566234" lon="11.9493898"><ele>505.0</ele><time>2026-04-26T10:05:37.064Z</time></trkpt><trkpt lat="43.3565559" lon="11.9493819"><ele>505.0</ele><time>2026-04-26T10:05:39.064Z</time></trkpt><trkpt lat="43.3564925" lon="11.9493884"><ele>504.99999999999994</ele><time>2026-04-26T10:05:41.064Z</time></trkpt><trkpt lat="43.3564282" lon="11.9494051"><ele>505.0</ele><time>2026-04-26T10:05:43.064Z</time></trkpt><trkpt lat="43.3563655" lon="11.9494375"><ele>505.0</ele><time>2026-04-26T10:05:45.064Z</time></trkpt><trkpt lat="43.3563036" lon="11.9494904"><ele>502.83333333333337</ele><time>2026-04-26T10:05:47.064Z</time></trkpt><trkpt lat="43.3562433" lon="11.9495508"><ele>500.6666666666667</ele><time>2026-04-26T10:05:49.064Z</time></trkpt><trkpt lat="43.3561695" lon="11.9496204"><ele>498.5</ele><time>2026-04-26T10:05:52.064Z</time></trkpt><trkpt lat="43.356116" lon="11.9496761"><ele>496.33333333333337</ele><time>2026-04-26T10:05:54.064Z</time></trkpt><trkpt lat="43.3560602" lon="11.9497364"><ele>494.1666666666667</ele><time>2026-04-26T10:05:56.064Z</time></trkpt><trkpt lat="43.3560048" lon="11.9497867"><ele>492.0</ele><time>2026-04-26T10:05:58.064Z</time></trkpt><trkpt lat="43.3559166" lon="11.9498369"><ele>492.00000000000006</ele><time>2026-04-26T10:06:01.064Z</time></trkpt><trkpt lat="43.3558531" lon="11.949867"><ele>492.0</ele><time>2026-04-26T10:06:03.064Z</time></trkpt><trkpt lat="43.3557913" lon="11.9499079"><ele>492.00000000000006</ele><time>2026-04-26T10:06:05.064Z</time></trkpt><trkpt lat="43.3557353" lon="11.9499605"><ele>492.00000000000006</ele><time>2026-04-26T10:06:07.064Z</time></trkpt><trkpt lat="43.3556908" lon="11.9500331"><ele>492.0</ele><time>2026-04-26T10:06:09.064Z</time></trkpt><trkpt lat="43.3556581" lon="11.9501212"><ele>492.00000000000006</ele><time>2026-04-26T10:06:11.063Z</time></trkpt><trkpt lat="43.3556372" lon="11.9502208"><ele>492.00000000000006</ele><time>2026-04-26T10:06:13.064Z</time></trkpt><trkpt lat="43.3556431" lon="11.950325"><ele>492.5</ele><time>2026-04-26T10:06:15.064Z</time></trkpt><trkpt lat="43.3556585" lon="11.95043"><ele>493.0</ele><time>2026-04-26T10:06:17.064Z</time></trkpt><trkpt lat="43.3556867" lon="11.9505285"><ele>493.5</ele><time>2026-04-26T10:06:19.064Z</time></trkpt><trkpt lat="43.3556947" lon="11.9506305"><ele>494.0</ele><time>2026-04-26T10:06:21.064Z</time></trkpt><trkpt lat="43.3556938" lon="11.9507459"><ele>494.5</ele><time>2026-04-26T10:06:23.064Z</time></trkpt><trkpt lat="43.3556951" lon="11.9508441"><ele>495.0</ele><time>2026-04-26T10:06:25.064Z</time></trkpt><trkpt lat="43.3556899" lon="11.9509367"><ele>494.99999999999994</ele><time>2026-04-26T10:06:27.064Z</time></trkpt><trkpt lat="43.3556923" lon="11.9510338"><ele>495.0</ele><time>2026-04-26T10:06:29.064Z</time></trkpt><trkpt lat="43.3557055" lon="11.9511293"><ele>494.99999999999994</ele><time>2026-04-26T10:06:31.064Z</time></trkpt><trkpt lat="43.355728" lon="11.9512168"><ele>494.99999999999994</ele><time>2026-04-26T10:06:33.064Z</time></trkpt><trkpt lat="43.3557591" lon="11.9513019"><ele>495.0</ele><time>2026-04-26T10:06:35.064Z</time></trkpt><trkpt lat="43.3557956" lon="11.9513863"><ele>494.99999999999994</ele><time>2026-04-26T10:06:37.064Z</time></trkpt><trkpt lat="43.3558273" lon="11.9514723"><ele>494.99999999999994</ele><time>2026-04-26T10:06:39.064Z</time></trkpt><trkpt lat="43.3558559" lon="11.9515547"><ele>494.99999999999994</ele><time>2026-04-26T10:06:41.064Z</time></trkpt><trkpt lat="43.3558962" lon="11.9516308"><ele>495.0</ele><time>2026-04-26T10:06:43.064Z</time></trkpt><trkpt lat="43.355943" lon="11.951691"><ele>494.99999999999994</ele><time>2026-04-26T10:06:45.064Z</time></trkpt><trkpt lat="43.3559959" lon="11.9517411"><ele>494.99999999999994</ele><time>2026-04-26T10:06:47.064Z</time></trkpt><trkpt lat="43.356055" lon="11.9517898"><ele>495.0</ele><time>2026-04-26T10:06:49.064Z</time></trkpt><trkpt lat="43.3561207" lon="11.9518141"><ele>494.99999999999994</ele><time>2026-04-26T10:06:51.064Z</time></trkpt><trkpt lat="43.3561851" lon="11.9518211"><ele>494.99999999999994</ele><time>2026-04-26T10:06:53.064Z</time></trkpt><trkpt lat="43.3562531" lon="11.9518235"><ele>493.2857142857142</ele><time>2026-04-26T10:06:55.063Z</time></trkpt><trkpt lat="43.3563188" lon="11.9518341"><ele>491.57142857142856</ele><time>2026-04-26T10:06:57.064Z</time></trkpt><trkpt lat="43.3563862" lon="11.9518385"><ele>489.85714285714283</ele><time>2026-04-26T10:06:59.064Z</time></trkpt><trkpt lat="43.3564548" lon="11.951843"><ele>488.1428571428571</ele><time>2026-04-26T10:07:01.064Z</time></trkpt><trkpt lat="43.3565242" lon="11.9518515"><ele>486.42857142857144</ele><time>2026-04-26T10:07:03.064Z</time></trkpt><trkpt lat="43.3565898" lon="11.9518638"><ele>484.7142857142857</ele><time>2026-04-26T10:07:05.064Z</time></trkpt><trkpt lat="43.3566832" lon="11.9518712"><ele>483.0</ele><time>2026-04-26T10:07:08.064Z</time></trkpt><trkpt lat="43.3567506" lon="11.9518905"><ele>483.0</ele><time>2026-04-26T10:07:10.064Z</time></trkpt><trkpt lat="43.3568203" lon="11.9519239"><ele>483.0</ele><time>2026-04-26T10:07:12.064Z</time></trkpt><trkpt lat="43.3568853" lon="11.9519544"><ele>483.0</ele><time>2026-04-26T10:07:14.064Z</time></trkpt><trkpt lat="43.3569456" lon="11.9519961"><ele>483.0</ele><time>2026-04-26T10:07:16.064Z</time></trkpt><trkpt lat="43.3570088" lon="11.9520618"><ele>483.0</ele><time>2026-04-26T10:07:18.064Z</time></trkpt><trkpt lat="43.3570635" lon="11.9521315"><ele>483.0</ele><time>2026-04-26T10:07:20.064Z</time></trkpt><trkpt lat="43.3571147" lon="11.9522054"><ele>483.0</ele><time>2026-04-26T10:07:22.064Z</time></trkpt><trkpt lat="43.3571584" lon="11.9522756"><ele>482.42857142857144</ele><time>2026-04-26T10:07:24.064Z</time></trkpt><trkpt lat="43.357209" lon="11.9523503"><ele>481.8571428571429</ele><time>2026-04-26T10:07:26.064Z</time></trkpt><trkpt lat="43.3572593" lon="11.952425"><ele>481.2857142857143</ele><time>2026-04-26T10:07:28.064Z</time></trkpt><trkpt lat="43.3573168" lon="11.9524803"><ele>480.7142857142857</ele><time>2026-04-26T10:07:30.064Z</time></trkpt><trkpt lat="43.35738" lon="11.95253"><ele>480.14285714285717</ele><time>2026-04-26T10:07:32.064Z</time></trkpt><trkpt lat="43.3574493" lon="11.9525667"><ele>479.57142857142856</ele><time>2026-04-26T10:07:34.064Z</time></trkpt><trkpt lat="43.3575182" lon="11.952584"><ele>479.0</ele><time>2026-04-26T10:07:36.064Z</time></trkpt><trkpt lat="43.3575895" lon="11.9525684"><ele>482.2857142857143</ele><time>2026-04-26T10:07:38.064Z</time></trkpt><trkpt lat="43.3576521" lon="11.9525132"><ele>485.57142857142856</ele><time>2026-04-26T10:07:40.064Z</time></trkpt><trkpt lat="43.3577044" lon="11.9524327"><ele>488.85714285714283</ele><time>2026-04-26T10:07:42.064Z</time></trkpt><trkpt lat="43.3577469" lon="11.9523565"><ele>492.1428571428571</ele><time>2026-04-26T10:07:44.064Z</time></trkpt><trkpt lat="43.3577832" lon="11.9522732"><ele>495.42857142857144</ele><time>2026-04-26T10:07:46.064Z</time></trkpt><trkpt lat="43.3578108" lon="11.9521818"><ele>498.71428571428567</ele><time>2026-04-26T10:07:48.064Z</time></trkpt><trkpt lat="43.3578325" lon="11.9520952"><ele>501.99999999999994</ele><time>2026-04-26T10:07:50.064Z</time></trkpt><trkpt lat="43.3578514" lon="11.9520098"><ele>502.00000000000006</ele><time>2026-04-26T10:07:52.064Z</time></trkpt><trkpt lat="43.3578747" lon="11.9519237"><ele>502.0</ele><time>2026-04-26T10:07:54.064Z</time></trkpt><trkpt lat="43.3578947" lon="11.9518396"><ele>502.0</ele><time>2026-04-26T10:07:56.064Z</time></trkpt><trkpt lat="43.3579375" lon="11.9517273"><ele>502.0</ele><time>2026-04-26T10:07:59.064Z</time></trkpt><trkpt lat="43.3579907" lon="11.9516129"><ele>502.00000000000006</ele><time>2026-04-26T10:08:02.064Z</time></trkpt><trkpt lat="43.3580397" lon="11.9515493"><ele>502.0</ele><time>2026-04-26T10:08:04.064Z</time></trkpt><trkpt lat="43.358098" lon="11.9514871"><ele>503.1428571428571</ele><time>2026-04-26T10:08:06.064Z</time></trkpt><trkpt lat="43.3581572" lon="11.9514381"><ele>504.2857142857143</ele><time>2026-04-26T10:08:08.064Z</time></trkpt><trkpt lat="43.3582249" lon="11.9513987"><ele>505.42857142857144</ele><time>2026-04-26T10:08:10.064Z</time></trkpt><trkpt lat="43.3582976" lon="11.9513828"><ele>506.57142857142856</ele><time>2026-04-26T10:08:12.063Z</time></trkpt><trkpt lat="43.3583755" lon="11.9513896"><ele>507.7142857142858</ele><time>2026-04-26T10:08:14.063Z</time></trkpt><trkpt lat="43.3584495" lon="11.9514052"><ele>508.8571428571429</ele><time>2026-04-26T10:08:16.064Z</time></trkpt><trkpt lat="43.3585219" lon="11.9514194"><ele>510.0</ele><time>2026-04-26T10:08:18.064Z</time></trkpt><trkpt lat="43.3585968" lon="11.9514134"><ele>510.0</ele><time>2026-04-26T10:08:20.064Z</time></trkpt><trkpt lat="43.3586685" lon="11.9514035"><ele>510.0</ele><time>2026-04-26T10:08:22.063Z</time></trkpt><trkpt lat="43.358747" lon="11.9513885"><ele>510.0</ele><time>2026-04-26T10:08:24.064Z</time></trkpt><trkpt lat="43.3588257" lon="11.9513715"><ele>510.0</ele><time>2026-04-26T10:08:26.064Z</time></trkpt><trkpt lat="43.3589029" lon="11.9513617"><ele>510.0</ele><time>2026-04-26T10:08:28.064Z</time></trkpt><trkpt lat="43.3589787" lon="11.951354"><ele>510.0</ele><time>2026-04-26T10:08:30.064Z</time></trkpt><trkpt lat="43.3590518" lon="11.9513411"><ele>509.42857142857144</ele><time>2026-04-26T10:08:32.064Z</time></trkpt><trkpt lat="43.3591266" lon="11.951335"><ele>508.8571428571429</ele><time>2026-04-26T10:08:34.064Z</time></trkpt><trkpt lat="43.3591998" lon="11.9513449"><ele>508.28571428571433</ele><time>2026-04-26T10:08:36.063Z</time></trkpt><trkpt lat="43.3592717" lon="11.9513565"><ele>507.7142857142858</ele><time>2026-04-26T10:08:38.064Z</time></trkpt><trkpt lat="43.3593423" lon="11.9513786"><ele>507.14285714285717</ele><time>2026-04-26T10:08:40.064Z</time></trkpt><trkpt lat="43.3594087" lon="11.9514198"><ele>506.57142857142867</ele><time>2026-04-26T10:08:42.064Z</time></trkpt><trkpt lat="43.3594681" lon="11.9514616"><ele>506.00000000000006</ele><time>2026-04-26T10:08:44.064Z</time></trkpt><trkpt lat="43.3595316" lon="11.9514983"><ele>505.99999999999994</ele><time>2026-04-26T10:08:46.064Z</time></trkpt><trkpt lat="43.359616" lon="11.9515571"><ele>506.0</ele><time>2026-04-26T10:08:49.064Z</time></trkpt><trkpt lat="43.3596748" lon="11.9516022"><ele>506.0</ele><time>2026-04-26T10:08:51.064Z</time></trkpt><trkpt lat="43.3597635" lon="11.9516392"><ele>506.0</ele><time>2026-04-26T10:08:54.064Z</time></trkpt><trkpt lat="43.3598313" lon="11.9516537"><ele>505.99999999999994</ele><time>2026-04-26T10:08:56.064Z</time></trkpt><trkpt lat="43.3598957" lon="11.9516598"><ele>506.0</ele><time>2026-04-26T10:08:58.064Z</time></trkpt><trkpt lat="43.3599591" lon="11.951653"><ele>507.66666666666663</ele><time>2026-04-26T10:09:00.064Z</time></trkpt><trkpt lat="43.3600243" lon="11.9516428"><ele>509.3333333333333</ele><time>2026-04-26T10:09:02.064Z</time></trkpt><trkpt lat="43.3600905" lon="11.9516339"><ele>511.0</ele><time>2026-04-26T10:09:04.064Z</time></trkpt><trkpt lat="43.3601773" lon="11.9515953"><ele>512.6666666666666</ele><time>2026-04-26T10:09:07.064Z</time></trkpt><trkpt lat="43.3602443" lon="11.9515967"><ele>514.3333333333334</ele><time>2026-04-26T10:09:09.064Z</time></trkpt><trkpt lat="43.3603352" lon="11.9515811"><ele>516.0</ele><time>2026-04-26T10:09:12.064Z</time></trkpt><trkpt lat="43.360424" lon="11.9515535"><ele>515.9999999999999</ele><time>2026-04-26T10:09:15.064Z</time></trkpt><trkpt lat="43.3604884" lon="11.9515498"><ele>516.0</ele><time>2026-04-26T10:09:17.064Z</time></trkpt><trkpt lat="43.3605527" lon="11.9515578"><ele>516.0</ele><time>2026-04-26T10:09:19.064Z</time></trkpt><trkpt lat="43.3606159" lon="11.9515682"><ele>516.0</ele><time>2026-04-26T10:09:21.064Z</time></trkpt><trkpt lat="43.360679" lon="11.9515943"><ele>516.0</ele><time>2026-04-26T10:09:23.064Z</time></trkpt><trkpt lat="43.360739" lon="11.951629"><ele>515.9999999999999</ele><time>2026-04-26T10:09:25.064Z</time></trkpt><trkpt lat="43.3607982" lon="11.9516739"><ele>516.0</ele><time>2026-04-26T10:09:27.064Z</time></trkpt><trkpt lat="43.3608499" lon="11.9517278"><ele>512.6666666666666</ele><time>2026-04-26T10:09:29.063Z</time></trkpt><trkpt lat="43.3609096" lon="11.9517814"><ele>509.33333333333337</ele><time>2026-04-26T10:09:31.064Z</time></trkpt><trkpt lat="43.3609674" lon="11.9518355"><ele>506.0</ele><time>2026-04-26T10:09:33.064Z</time></trkpt><trkpt lat="43.3610261" lon="11.9518793"><ele>502.6666666666667</ele><time>2026-04-26T10:09:35.064Z</time></trkpt><trkpt lat="43.3610877" lon="11.9519102"><ele>499.33333333333337</ele><time>2026-04-26T10:09:37.063Z</time></trkpt><trkpt lat="43.3611818" lon="11.9519265"><ele>496.0</ele><time>2026-04-26T10:09:40.064Z</time></trkpt><trkpt lat="43.361268" lon="11.9519318"><ele>496.00000000000006</ele><time>2026-04-26T10:09:43.064Z</time></trkpt><trkpt lat="43.3613602" lon="11.9519356"><ele>496.0</ele><time>2026-04-26T10:09:46.064Z</time></trkpt><trkpt lat="43.3614461" lon="11.9519147"><ele>496.0</ele><time>2026-04-26T10:09:49.064Z</time></trkpt><trkpt lat="43.3615321" lon="11.9518857"><ele>496.0</ele><time>2026-04-26T10:09:52.064Z</time></trkpt><trkpt lat="43.3616205" lon="11.951848"><ele>496.00000000000006</ele><time>2026-04-26T10:09:55.064Z</time></trkpt><trkpt lat="43.3616858" lon="11.9518064"><ele>496.0</ele><time>2026-04-26T10:09:58.064Z</time></trkpt><trkpt lat="43.3617667" lon="11.9517484"><ele>501.6666666666667</ele><time>2026-04-26T10:10:01.064Z</time></trkpt><trkpt lat="43.3618288" lon="11.9516694"><ele>507.33333333333337</ele><time>2026-04-26T10:10:04.064Z</time></trkpt><trkpt lat="43.3618835" lon="11.9515904"><ele>513.0</ele><time>2026-04-26T10:10:07.064Z</time></trkpt><trkpt lat="43.3619329" lon="11.9514868"><ele>518.6666666666666</ele><time>2026-04-26T10:10:10.064Z</time></trkpt><trkpt lat="43.3619845" lon="11.9513864"><ele>524.3333333333333</ele><time>2026-04-26T10:10:13.064Z</time></trkpt><trkpt lat="43.3620421" lon="11.9512925"><ele>530.0</ele><time>2026-04-26T10:10:16.064Z</time></trkpt><trkpt lat="43.3621121" lon="11.9512312"><ele>530.0</ele><time>2026-04-26T10:10:19.064Z</time></trkpt><trkpt lat="43.3621943" lon="11.9512081"><ele>530.0</ele><time>2026-04-26T10:10:22.064Z</time></trkpt><trkpt lat="43.362285" lon="11.95121"><ele>530.0</ele><time>2026-04-26T10:10:25.064Z</time></trkpt><trkpt lat="43.3623689" lon="11.9512114"><ele>530.0</ele><time>2026-04-26T10:10:28.064Z</time></trkpt><trkpt lat="43.3624477" lon="11.9511909"><ele>530.0</ele><time>2026-04-26T10:10:31.064Z</time></trkpt><trkpt lat="43.3625247" lon="11.9511508"><ele>530.0</ele><time>2026-04-26T10:10:34.064Z</time></trkpt><trkpt lat="43.3625945" lon="11.9510823"><ele>533.0</ele><time>2026-04-26T10:10:37.064Z</time></trkpt><trkpt lat="43.3626567" lon="11.9509978"><ele>536.0</ele><time>2026-04-26T10:10:40.064Z</time></trkpt><trkpt lat="43.3627139" lon="11.9509037"><ele>539.0</ele><time>2026-04-26T10:10:43.064Z</time></trkpt><trkpt lat="43.36277" lon="11.950804"><ele>542.0</ele><time>2026-04-26T10:10:46.063Z</time></trkpt><trkpt lat="43.362816" lon="11.9507043"><ele>545.0</ele><time>2026-04-26T10:10:49.064Z</time></trkpt><trkpt lat="43.3628685" lon="11.9506145"><ele>548.0</ele><time>2026-04-26T10:10:52.064Z</time></trkpt><trkpt lat="43.3629226" lon="11.950525"><ele>548.0</ele><time>2026-04-26T10:10:55.063Z</time></trkpt><trkpt lat="43.3629977" lon="11.9504596"><ele>548.0</ele><time>2026-04-26T10:10:58.064Z</time></trkpt><trkpt lat="43.363086" lon="11.9504714"><ele>548.0</ele><time>2026-04-26T10:11:01.064Z</time></trkpt><trkpt lat="43.3631687" lon="11.9504999"><ele>548.0</ele><time>2026-04-26T10:11:04.064Z</time></trkpt><trkpt lat="43.3632419" lon="11.9505445"><ele>548.0</ele><time>2026-04-26T10:11:07.064Z</time></trkpt><trkpt lat="43.3633097" lon="11.9506158"><ele>548.0</ele><time>2026-04-26T10:11:10.064Z</time></trkpt><trkpt lat="43.3633651" lon="11.9507054"><ele>547.0000000000001</ele><time>2026-04-26T10:11:13.064Z</time></trkpt><trkpt lat="43.3634034" lon="11.9507852"><ele>546.0</ele><time>2026-04-26T10:11:15.064Z</time></trkpt><trkpt lat="43.3634689" lon="11.9508752"><ele>545.0</ele><time>2026-04-26T10:11:18.064Z</time></trkpt><trkpt lat="43.3635218" lon="11.9509268"><ele>544.0</ele><time>2026-04-26T10:11:20.064Z</time></trkpt><trkpt lat="43.3635843" lon="11.95095"><ele>543.0</ele><time>2026-04-26T10:11:22.064Z</time></trkpt><trkpt lat="43.3636492" lon="11.9509468"><ele>542.0000000000001</ele><time>2026-04-26T10:11:24.063Z</time></trkpt><trkpt lat="43.3637281" lon="11.9508957"><ele>541.0</ele><time>2026-04-26T10:11:27.064Z</time></trkpt><trkpt lat="43.363772" lon="11.9508329"><ele>541.0</ele><time>2026-04-26T10:11:29.064Z</time></trkpt><trkpt lat="43.3638235" lon="11.9507321"><ele>541.0</ele><time>2026-04-26T10:11:32.064Z</time></trkpt><trkpt lat="43.3638639" lon="11.9506328"><ele>541.0</ele><time>2026-04-26T10:11:35.064Z</time></trkpt><trkpt lat="43.36391" lon="11.950544"><ele>541.0</ele><time>2026-04-26T10:11:38.064Z</time></trkpt><trkpt lat="43.3639631" lon="11.9504569"><ele>541.0</ele><time>2026-04-26T10:11:41.064Z</time></trkpt><trkpt lat="43.3640398" lon="11.9504066"><ele>541.0</ele><time>2026-04-26T10:11:44.064Z</time></trkpt><trkpt lat="43.364107" lon="11.9504151"><ele>541.3333333333334</ele><time>2026-04-26T10:11:46.064Z</time></trkpt><trkpt lat="43.3641711" lon="11.9504401"><ele>541.6666666666667</ele><time>2026-04-26T10:11:48.064Z</time></trkpt><trkpt lat="43.3642282" lon="11.9504791"><ele>542.0</ele><time>2026-04-26T10:11:50.064Z</time></trkpt><trkpt lat="43.364293" lon="11.9505417"><ele>542.3333333333334</ele><time>2026-04-26T10:11:53.064Z</time></trkpt><trkpt lat="43.364359" lon="11.9506156"><ele>542.6666666666666</ele><time>2026-04-26T10:11:56.063Z</time></trkpt><trkpt lat="43.3644421" lon="11.9506668"><ele>543.0</ele><time>2026-04-26T10:11:59.064Z</time></trkpt><trkpt lat="43.3645195" lon="11.9507045"><ele>543.0</ele><time>2026-04-26T10:12:02.064Z</time></trkpt><trkpt lat="43.3645981" lon="11.9507164"><ele>543.0</ele><time>2026-04-26T10:12:05.064Z</time></trkpt><trkpt lat="43.364677" lon="11.9507095"><ele>543.0</ele><time>2026-04-26T10:12:08.064Z</time></trkpt><trkpt lat="43.3647599" lon="11.9507041"><ele>543.0</ele><time>2026-04-26T10:12:11.064Z</time></trkpt><trkpt lat="43.3648462" lon="11.9507084"><ele>543.0</ele><time>2026-04-26T10:12:14.064Z</time></trkpt><trkpt lat="43.3649243" lon="11.9507157"><ele>543.0</ele><time>2026-04-26T10:12:17.063Z</time></trkpt><trkpt lat="43.3649901" lon="11.9507216"><ele>545.0</ele><time>2026-04-26T10:12:20.063Z</time></trkpt><trkpt lat="43.36506" lon="11.9507326"><ele>547.0</ele><time>2026-04-26T10:12:23.064Z</time></trkpt><trkpt lat="43.3651258" lon="11.95072"><ele>549.0</ele><time>2026-04-26T10:12:26.064Z</time></trkpt><trkpt lat="43.3652132" lon="11.9507346"><ele>551.0</ele><time>2026-04-26T10:12:29.064Z</time></trkpt><trkpt lat="43.3652998" lon="11.9507552"><ele>553.0</ele><time>2026-04-26T10:12:32.064Z</time></trkpt><trkpt lat="43.3653742" lon="11.9507744"><ele>555.0</ele><time>2026-04-26T10:12:35.064Z</time></trkpt><trkpt lat="43.3654423" lon="11.950812"><ele>555.0</ele><time>2026-04-26T10:12:38.064Z</time></trkpt><trkpt lat="43.3655135" lon="11.9508695"><ele>555.0</ele><time>2026-04-26T10:12:41.064Z</time></trkpt><trkpt lat="43.3655728" lon="11.950959"><ele>555.0</ele><time>2026-04-26T10:12:44.064Z</time></trkpt><trkpt lat="43.3656202" lon="11.9510507"><ele>555.0</ele><time>2026-04-26T10:12:47.064Z</time></trkpt><trkpt lat="43.3656578" lon="11.9511565"><ele>555.0</ele><time>2026-04-26T10:12:50.064Z</time></trkpt><trkpt lat="43.3657108" lon="11.951255"><ele>555.0</ele><time>2026-04-26T10:12:53.063Z</time></trkpt><trkpt lat="43.3657526" lon="11.9513294"><ele>555.8571428571429</ele><time>2026-04-26T10:12:55.064Z</time></trkpt><trkpt lat="43.3657953" lon="11.9514044"><ele>556.7142857142858</ele><time>2026-04-26T10:12:57.064Z</time></trkpt><trkpt lat="43.365829" lon="11.9514845"><ele>557.5714285714286</ele><time>2026-04-26T10:12:59.064Z</time></trkpt><trkpt lat="43.3658525" lon="11.951566"><ele>558.4285714285714</ele><time>2026-04-26T10:13:01.064Z</time></trkpt><trkpt lat="43.3658678" lon="11.9516834"><ele>559.2857142857142</ele><time>2026-04-26T10:13:04.064Z</time></trkpt><trkpt lat="43.3658624" lon="11.9517971"><ele>560.1428571428571</ele><time>2026-04-26T10:13:07.064Z</time></trkpt><trkpt lat="43.3658686" lon="11.9519017"><ele>561.0</ele><time>2026-04-26T10:13:10.064Z</time></trkpt><trkpt lat="43.365879" lon="11.9520111"><ele>558.8333333333334</ele><time>2026-04-26T10:13:13.063Z</time></trkpt><trkpt lat="43.365885" lon="11.9521181"><ele>556.6666666666666</ele><time>2026-04-26T10:13:16.064Z</time></trkpt><trkpt lat="43.365905" lon="11.9522214"><ele>554.5</ele><time>2026-04-26T10:13:19.064Z</time></trkpt><trkpt lat="43.3659241" lon="11.9523295"><ele>552.3333333333333</ele><time>2026-04-26T10:13:22.064Z</time></trkpt><trkpt lat="43.3659679" lon="11.9524216"><ele>550.1666666666666</ele><time>2026-04-26T10:13:25.064Z</time></trkpt><trkpt lat="43.3660297" lon="11.9524938"><ele>548.0</ele><time>2026-04-26T10:13:28.064Z</time></trkpt><trkpt lat="43.366099" lon="11.9525439"><ele>548.0</ele><time>2026-04-26T10:13:31.064Z</time></trkpt><trkpt lat="43.3661792" lon="11.9525623"><ele>548.0</ele><time>2026-04-26T10:13:34.064Z</time></trkpt><trkpt lat="43.3662492" lon="11.95256"><ele>548.0</ele><time>2026-04-26T10:13:37.064Z</time></trkpt><trkpt lat="43.3663211" lon="11.9525392"><ele>548.0</ele><time>2026-04-26T10:13:40.064Z</time></trkpt><trkpt lat="43.3663975" lon="11.9525125"><ele>548.0</ele><time>2026-04-26T10:13:43.064Z</time></trkpt><trkpt lat="43.3664714" lon="11.9524627"><ele>548.0</ele><time>2026-04-26T10:13:46.064Z</time></trkpt><trkpt lat="43.3665352" lon="11.9524469"><ele>551.1666666666666</ele><time>2026-04-26T10:13:48.064Z</time></trkpt><trkpt lat="43.3666248" lon="11.9524285"><ele>554.3333333333333</ele><time>2026-04-26T10:13:51.064Z</time></trkpt><trkpt lat="43.3667054" lon="11.9524385"><ele>557.5</ele><time>2026-04-26T10:13:54.064Z</time></trkpt><trkpt lat="43.3667888" lon="11.9524337"><ele>560.6666666666666</ele><time>2026-04-26T10:13:57.064Z</time></trkpt><trkpt lat="43.3668676" lon="11.9524149"><ele>563.8333333333334</ele><time>2026-04-26T10:14:00.064Z</time></trkpt><trkpt lat="43.3669497" lon="11.9523956"><ele>567.0</ele><time>2026-04-26T10:14:03.064Z</time></trkpt><trkpt lat="43.3670298" lon="11.9523544"><ele>567.0</ele><time>2026-04-26T10:14:06.064Z</time></trkpt><trkpt lat="43.3671134" lon="11.952302"><ele>567.0</ele><time>2026-04-26T10:14:09.064Z</time></trkpt><trkpt lat="43.3671836" lon="11.9522314"><ele>567.0</ele><time>2026-04-26T10:14:12.063Z</time></trkpt><trkpt lat="43.3672514" lon="11.9521769"><ele>567.0</ele><time>2026-04-26T10:14:15.064Z</time></trkpt><trkpt lat="43.3673313" lon="11.9521321"><ele>567.0</ele><time>2026-04-26T10:14:18.064Z</time></trkpt><trkpt lat="43.3674151" lon="11.952079"><ele>567.0</ele><time>2026-04-26T10:14:21.064Z</time></trkpt><trkpt lat="43.3674921" lon="11.9520203"><ele>567.8333333333334</ele><time>2026-04-26T10:14:24.064Z</time></trkpt><trkpt lat="43.3675663" lon="11.9519619"><ele>568.6666666666666</ele><time>2026-04-26T10:14:27.064Z</time></trkpt><trkpt lat="43.3676373" lon="11.9519025"><ele>569.5</ele><time>2026-04-26T10:14:30.064Z</time></trkpt><trkpt lat="43.3676987" lon="11.9518401"><ele>570.3333333333333</ele><time>2026-04-26T10:14:33.064Z</time></trkpt><trkpt lat="43.367757" lon="11.9517593"><ele>571.1666666666666</ele><time>2026-04-26T10:14:36.064Z</time></trkpt><trkpt lat="43.3678162" lon="11.9516868"><ele>572.0</ele><time>2026-04-26T10:14:39.064Z</time></trkpt><trkpt lat="43.3678395" lon="11.951601"><ele>571.2857142857142</ele><time>2026-04-26T10:14:43.064Z</time></trkpt><trkpt lat="43.3679003" lon="11.9515697"><ele>570.5714285714286</ele><time>2026-04-26T10:14:48.064Z</time></trkpt><trkpt lat="43.3679757" lon="11.9516116"><ele>569.8571428571429</ele><time>2026-04-26T10:14:53.064Z</time></trkpt><trkpt lat="43.3680269" lon="11.9516862"><ele>569.1428571428571</ele><time>2026-04-26T10:14:56.064Z</time></trkpt><trkpt lat="43.3680743" lon="11.9517581"><ele>568.4285714285714</ele><time>2026-04-26T10:14:59.064Z</time></trkpt><trkpt lat="43.3681255" lon="11.951809"><ele>567.7142857142857</ele><time>2026-04-26T10:15:02.064Z</time></trkpt><trkpt lat="43.3680604" lon="11.9517647"><ele>567.0</ele><time>2026-04-26T10:15:08.064Z</time></trkpt><trkpt lat="43.3680023" lon="11.9516725"><ele>567.8333333333334</ele><time>2026-04-26T10:15:11.064Z</time></trkpt><trkpt lat="43.3679426" lon="11.9515899"><ele>568.6666666666666</ele><time>2026-04-26T10:15:14.064Z</time></trkpt><trkpt lat="43.3678901" lon="11.9515299"><ele>569.5</ele><time>2026-04-26T10:15:18.064Z</time></trkpt><trkpt lat="43.3678248" lon="11.9515117"><ele>570.3333333333333</ele><time>2026-04-26T10:15:27.064Z</time></trkpt><trkpt lat="43.3677823" lon="11.9516137"><ele>571.1666666666666</ele><time>2026-04-26T10:15:31.064Z</time></trkpt><trkpt lat="43.3677428" lon="11.9517003"><ele>572.0</ele><time>2026-04-26T10:15:34.063Z</time></trkpt><trkpt lat="43.3676948" lon="11.9517906"><ele>572.0</ele><time>2026-04-26T10:15:37.064Z</time></trkpt><trkpt lat="43.3676245" lon="11.9518564"><ele>572.0</ele><time>2026-04-26T10:15:40.064Z</time></trkpt><trkpt lat="43.3675597" lon="11.9519123"><ele>572.0</ele><time>2026-04-26T10:15:43.064Z</time></trkpt><trkpt lat="43.3675044" lon="11.9519608"><ele>572.0</ele><time>2026-04-26T10:15:45.064Z</time></trkpt><trkpt lat="43.367421" lon="11.9520332"><ele>572.0</ele><time>2026-04-26T10:15:47.064Z</time></trkpt><trkpt lat="43.3673189" lon="11.9520999"><ele>572.0</ele><time>2026-04-26T10:15:49.064Z</time></trkpt><trkpt lat="43.3672065" lon="11.9521603"><ele>571.2857142857142</ele><time>2026-04-26T10:15:51.064Z</time></trkpt><trkpt lat="43.367151" lon="11.9522076"><ele>570.5714285714286</ele><time>2026-04-26T10:15:52.064Z</time></trkpt><trkpt lat="43.3670876" lon="11.9522555"><ele>569.8571428571429</ele><time>2026-04-26T10:15:53.064Z</time></trkpt><trkpt lat="43.3670212" lon="11.9523007"><ele>569.1428571428571</ele><time>2026-04-26T10:15:54.064Z</time></trkpt><trkpt lat="43.3669525" lon="11.9523417"><ele>568.4285714285714</ele><time>2026-04-26T10:15:55.064Z</time></trkpt><trkpt lat="43.3668763" lon="11.9523783"><ele>567.7142857142857</ele><time>2026-04-26T10:15:56.064Z</time></trkpt><trkpt lat="43.3667971" lon="11.9524"><ele>567.0</ele><time>2026-04-26T10:15:57.064Z</time></trkpt><trkpt lat="43.3667106" lon="11.9524161"><ele>567.0</ele><time>2026-04-26T10:15:58.063Z</time></trkpt><trkpt lat="43.3666199" lon="11.9524162"><ele>567.0</ele><time>2026-04-26T10:15:59.064Z</time></trkpt><trkpt lat="43.3665277" lon="11.9524186"><ele>567.0</ele><time>2026-04-26T10:16:00.064Z</time></trkpt><trkpt lat="43.366436" lon="11.952439"><ele>567.0</ele><time>2026-04-26T10:16:01.064Z</time></trkpt><trkpt lat="43.3663436" lon="11.9524855"><ele>567.0</ele><time>2026-04-26T10:16:02.064Z</time></trkpt><trkpt lat="43.3662492" lon="11.9525259"><ele>563.2</ele><time>2026-04-26T10:16:03.064Z</time></trkpt><trkpt lat="43.3661495" lon="11.9525371"><ele>559.4000000000001</ele><time>2026-04-26T10:16:04.064Z</time></trkpt><trkpt lat="43.3660488" lon="11.9524813"><ele>555.5999999999999</ele><time>2026-04-26T10:16:05.064Z</time></trkpt><trkpt lat="43.3659617" lon="11.9523731"><ele>551.8</ele><time>2026-04-26T10:16:06.064Z</time></trkpt><trkpt lat="43.3659152" lon="11.9522257"><ele>548.0</ele><time>2026-04-26T10:16:07.064Z</time></trkpt><trkpt lat="43.3659008" lon="11.9520945"><ele>548.0</ele><time>2026-04-26T10:16:08.064Z</time></trkpt><trkpt lat="43.3658891" lon="11.951951"><ele>548.0</ele><time>2026-04-26T10:16:09.064Z</time></trkpt><trkpt lat="43.3658865" lon="11.9518113"><ele>548.0</ele><time>2026-04-26T10:16:10.064Z</time></trkpt><trkpt lat="43.365875" lon="11.9516653"><ele>548.0</ele><time>2026-04-26T10:16:11.064Z</time></trkpt><trkpt lat="43.3658463" lon="11.9515244"><ele>548.0</ele><time>2026-04-26T10:16:12.063Z</time></trkpt><trkpt lat="43.3658022" lon="11.9513925"><ele>549.4</ele><time>2026-04-26T10:16:13.064Z</time></trkpt><trkpt lat="43.3657452" lon="11.9512688"><ele>550.8</ele><time>2026-04-26T10:16:14.064Z</time></trkpt><trkpt lat="43.3656868" lon="11.9511501"><ele>552.2</ele><time>2026-04-26T10:16:15.064Z</time></trkpt><trkpt lat="43.3656321" lon="11.9510289"><ele>553.6</ele><time>2026-04-26T10:16:16.064Z</time></trkpt><trkpt lat="43.365577" lon="11.9509109"><ele>555.0</ele><time>2026-04-26T10:16:17.064Z</time></trkpt><trkpt lat="43.3655034" lon="11.9508133"><ele>555.0</ele><time>2026-04-26T10:16:18.064Z</time></trkpt><trkpt lat="43.365413" lon="11.9507416"><ele>555.0</ele><time>2026-04-26T10:16:19.064Z</time></trkpt><trkpt lat="43.3653193" lon="11.9506834"><ele>555.0</ele><time>2026-04-26T10:16:20.064Z</time></trkpt><trkpt lat="43.3652179" lon="11.9506441"><ele>555.0</ele><time>2026-04-26T10:16:21.064Z</time></trkpt><trkpt lat="43.365111" lon="11.9506327"><ele>555.0</ele><time>2026-04-26T10:16:22.064Z</time></trkpt><trkpt lat="43.3650009" lon="11.950642"><ele>555.0</ele><time>2026-04-26T10:16:23.064Z</time></trkpt><trkpt lat="43.3648815" lon="11.9506528"><ele>555.0</ele><time>2026-04-26T10:16:24.064Z</time></trkpt><trkpt lat="43.3647588" lon="11.9506637"><ele>555.0</ele><time>2026-04-26T10:16:25.064Z</time></trkpt><trkpt lat="43.3646385" lon="11.9506824"><ele>555.0</ele><time>2026-04-26T10:16:26.064Z</time></trkpt><trkpt lat="43.3645202" lon="11.950675"><ele>552.0</ele><time>2026-04-26T10:16:27.063Z</time></trkpt><trkpt lat="43.3644071" lon="11.9506244"><ele>549.0</ele><time>2026-04-26T10:16:28.064Z</time></trkpt><trkpt lat="43.3643074" lon="11.9505417"><ele>546.0</ele><time>2026-04-26T10:16:29.064Z</time></trkpt><trkpt lat="43.3642163" lon="11.9504524"><ele>543.0</ele><time>2026-04-26T10:16:30.064Z</time></trkpt><trkpt lat="43.3641254" lon="11.9503717"><ele>543.0</ele><time>2026-04-26T10:16:31.064Z</time></trkpt><trkpt lat="43.3640252" lon="11.9503469"><ele>543.0</ele><time>2026-04-26T10:16:32.064Z</time></trkpt><trkpt lat="43.3639324" lon="11.9504021"><ele>543.0</ele><time>2026-04-26T10:16:33.064Z</time></trkpt><trkpt lat="43.3638684" lon="11.9505064"><ele>543.0</ele><time>2026-04-26T10:16:34.064Z</time></trkpt><trkpt lat="43.3638147" lon="11.9506317"><ele>543.0</ele><time>2026-04-26T10:16:35.064Z</time></trkpt><trkpt lat="43.3637518" lon="11.950761"><ele>542.6</ele><time>2026-04-26T10:16:36.064Z</time></trkpt><trkpt lat="43.3636867" lon="11.9508608"><ele>542.1999999999999</ele><time>2026-04-26T10:16:37.064Z</time></trkpt><trkpt lat="43.3635896" lon="11.9508945"><ele>541.8</ele><time>2026-04-26T10:16:38.064Z</time></trkpt><trkpt lat="43.3635026" lon="11.9508481"><ele>541.4</ele><time>2026-04-26T10:16:39.064Z</time></trkpt><trkpt lat="43.3634272" lon="11.9507603"><ele>541.0</ele><time>2026-04-26T10:16:40.064Z</time></trkpt><trkpt lat="43.3633692" lon="11.9506564"><ele>541.0</ele><time>2026-04-26T10:16:41.064Z</time></trkpt><trkpt lat="43.3632934" lon="11.9505611"><ele>541.0</ele><time>2026-04-26T10:16:42.064Z</time></trkpt><trkpt lat="43.3632053" lon="11.9504753"><ele>541.0</ele><time>2026-04-26T10:16:43.064Z</time></trkpt><trkpt lat="43.3631054" lon="11.9504182"><ele>541.0</ele><time>2026-04-26T10:16:44.064Z</time></trkpt><trkpt lat="43.3629924" lon="11.9504192"><ele>541.0</ele><time>2026-04-26T10:16:45.064Z</time></trkpt><trkpt lat="43.3628955" lon="11.9504891"><ele>542.4</ele><time>2026-04-26T10:16:46.063Z</time></trkpt><trkpt lat="43.362819" lon="11.9505916"><ele>543.8</ele><time>2026-04-26T10:16:47.064Z</time></trkpt><trkpt lat="43.3627523" lon="11.950713"><ele>545.1999999999999</ele><time>2026-04-26T10:16:48.064Z</time></trkpt><trkpt lat="43.3626867" lon="11.9508411"><ele>546.6</ele><time>2026-04-26T10:16:49.064Z</time></trkpt><trkpt lat="43.3626148" lon="11.950956"><ele>548.0</ele><time>2026-04-26T10:16:50.064Z</time></trkpt><trkpt lat="43.3625352" lon="11.9510579"><ele>544.4</ele><time>2026-04-26T10:16:51.064Z</time></trkpt><trkpt lat="43.362443" lon="11.9511414"><ele>540.8</ele><time>2026-04-26T10:16:52.064Z</time></trkpt><trkpt lat="43.3623412" lon="11.9511776"><ele>537.2</ele><time>2026-04-26T10:16:53.064Z</time></trkpt><trkpt lat="43.3622303" lon="11.9511822"><ele>533.6</ele><time>2026-04-26T10:16:54.064Z</time></trkpt><trkpt lat="43.3621227" lon="11.9511999"><ele>530.0</ele><time>2026-04-26T10:16:55.064Z</time></trkpt><trkpt lat="43.3620341" lon="11.9512712"><ele>530.0</ele><time>2026-04-26T10:16:56.064Z</time></trkpt><trkpt lat="43.3619608" lon="11.9513809"><ele>530.0</ele><time>2026-04-26T10:16:57.064Z</time></trkpt><trkpt lat="43.3618974" lon="11.9515012"><ele>530.0</ele><time>2026-04-26T10:16:58.064Z</time></trkpt><trkpt lat="43.3618273" lon="11.9516172"><ele>530.0</ele><time>2026-04-26T10:16:59.064Z</time></trkpt><trkpt lat="43.3617423" lon="11.9517174"><ele>530.0</ele><time>2026-04-26T10:17:00.063Z</time></trkpt><trkpt lat="43.3616441" lon="11.9517924"><ele>522.0</ele><time>2026-04-26T10:17:01.064Z</time></trkpt><trkpt lat="43.3615397" lon="11.9518527"><ele>514.0</ele><time>2026-04-26T10:17:02.064Z</time></trkpt><trkpt lat="43.3614261" lon="11.9518945"><ele>506.0</ele><time>2026-04-26T10:17:03.064Z</time></trkpt><trkpt lat="43.3613087" lon="11.9519219"><ele>498.0</ele><time>2026-04-26T10:17:04.063Z</time></trkpt><trkpt lat="43.3611898" lon="11.9519312"><ele>497.5</ele><time>2026-04-26T10:17:05.064Z</time></trkpt><trkpt lat="43.361079" lon="11.9519059"><ele>497.0</ele><time>2026-04-26T10:17:06.064Z</time></trkpt><trkpt lat="43.3609746" lon="11.9518378"><ele>496.5</ele><time>2026-04-26T10:17:07.063Z</time></trkpt><trkpt lat="43.3608796" lon="11.9517382"><ele>496.0</ele><time>2026-04-26T10:17:08.064Z</time></trkpt><trkpt lat="43.3607792" lon="11.9516381"><ele>501.0</ele><time>2026-04-26T10:17:09.064Z</time></trkpt><trkpt lat="43.3606718" lon="11.9515523"><ele>506.0</ele><time>2026-04-26T10:17:10.064Z</time></trkpt><trkpt lat="43.3605604" lon="11.9515072"><ele>511.0</ele><time>2026-04-26T10:17:11.064Z</time></trkpt><trkpt lat="43.3604368" lon="11.9514961"><ele>516.0</ele><time>2026-04-26T10:17:12.064Z</time></trkpt><trkpt lat="43.3603158" lon="11.9515173"><ele>516.0</ele><time>2026-04-26T10:17:13.064Z</time></trkpt><trkpt lat="43.3601964" lon="11.9515439"><ele>516.0</ele><time>2026-04-26T10:17:14.064Z</time></trkpt><trkpt lat="43.3600754" lon="11.9515667"><ele>516.0</ele><time>2026-04-26T10:17:15.064Z</time></trkpt><trkpt lat="43.3599521" lon="11.9515933"><ele>516.0</ele><time>2026-04-26T10:17:16.064Z</time></trkpt><trkpt lat="43.3598326" lon="11.951614"><ele>516.0</ele><time>2026-04-26T10:17:17.064Z</time></trkpt><trkpt lat="43.3597137" lon="11.9515912"><ele>516.0</ele><time>2026-04-26T10:17:18.064Z</time></trkpt><trkpt lat="43.3595991" lon="11.9515462"><ele>516.0</ele><time>2026-04-26T10:17:19.063Z</time></trkpt><trkpt lat="43.3594894" lon="11.9514766"><ele>516.0</ele><time>2026-04-26T10:17:20.064Z</time></trkpt><trkpt lat="43.35938" lon="11.9513961"><ele>514.5</ele><time>2026-04-26T10:17:21.064Z</time></trkpt><trkpt lat="43.3592594" lon="11.9513348"><ele>513.0</ele><time>2026-04-26T10:17:22.064Z</time></trkpt><trkpt lat="43.359131" lon="11.9513098"><ele>511.5</ele><time>2026-04-26T10:17:23.064Z</time></trkpt><trkpt lat="43.3589957" lon="11.9513096"><ele>510.0</ele><time>2026-04-26T10:17:24.064Z</time></trkpt><trkpt lat="43.3588662" lon="11.9513241"><ele>510.0</ele><time>2026-04-26T10:17:25.063Z</time></trkpt><trkpt lat="43.3587333" lon="11.9513434"><ele>510.0</ele><time>2026-04-26T10:17:26.064Z</time></trkpt><trkpt lat="43.3586015" lon="11.951368"><ele>510.0</ele><time>2026-04-26T10:17:27.064Z</time></trkpt><trkpt lat="43.358475" lon="11.9513795"><ele>510.0</ele><time>2026-04-26T10:17:28.064Z</time></trkpt><trkpt lat="43.3583511" lon="11.9513769"><ele>510.0</ele><time>2026-04-26T10:17:29.064Z</time></trkpt><trkpt lat="43.3582313" lon="11.9513758"><ele>510.0</ele><time>2026-04-26T10:17:30.064Z</time></trkpt><trkpt lat="43.3581228" lon="11.9514277"><ele>510.0</ele><time>2026-04-26T10:17:31.064Z</time></trkpt><trkpt lat="43.358035" lon="11.9515205"><ele>510.0</ele><time>2026-04-26T10:17:32.064Z</time></trkpt><trkpt lat="43.357955" lon="11.9516333"><ele>508.0</ele><time>2026-04-26T10:17:33.064Z</time></trkpt><trkpt lat="43.3578828" lon="11.9517687"><ele>506.0</ele><time>2026-04-26T10:17:34.064Z</time></trkpt><trkpt lat="43.3578269" lon="11.9519171"><ele>504.0</ele><time>2026-04-26T10:17:35.064Z</time></trkpt><trkpt lat="43.3577796" lon="11.9520714"><ele>502.0</ele><time>2026-04-26T10:17:36.064Z</time></trkpt><trkpt lat="43.3577293" lon="11.9522234"><ele>502.0</ele><time>2026-04-26T10:17:37.064Z</time></trkpt><trkpt lat="43.3576741" lon="11.952361"><ele>502.00000000000006</ele><time>2026-04-26T10:17:38.064Z</time></trkpt><trkpt lat="43.3576154" lon="11.9524674"><ele>502.00000000000006</ele><time>2026-04-26T10:17:39.064Z</time></trkpt><trkpt lat="43.3575393" lon="11.9525293"><ele>502.0</ele><time>2026-04-26T10:17:40.064Z</time></trkpt><trkpt lat="43.3574346" lon="11.9525121"><ele>502.0</ele><time>2026-04-26T10:17:41.064Z</time></trkpt><trkpt lat="43.3573345" lon="11.9524579"><ele>502.0</ele><time>2026-04-26T10:17:42.064Z</time></trkpt><trkpt lat="43.3572448" lon="11.9523814"><ele>502.00000000000006</ele><time>2026-04-26T10:17:43.064Z</time></trkpt><trkpt lat="43.3571666" lon="11.9522876"><ele>502.00000000000006</ele><time>2026-04-26T10:17:44.064Z</time></trkpt><trkpt lat="43.3570927" lon="11.9521833"><ele>502.0</ele><time>2026-04-26T10:17:45.064Z</time></trkpt><trkpt lat="43.3570181" lon="11.9520793"><ele>502.0</ele><time>2026-04-26T10:17:46.064Z</time></trkpt><trkpt lat="43.3569336" lon="11.9519871"><ele>498.20000000000005</ele><time>2026-04-26T10:17:47.064Z</time></trkpt><trkpt lat="43.3568438" lon="11.9519027"><ele>494.40000000000003</ele><time>2026-04-26T10:17:48.063Z</time></trkpt><trkpt lat="43.3567451" lon="11.9518459"><ele>490.59999999999997</ele><time>2026-04-26T10:17:49.064Z</time></trkpt><trkpt lat="43.3566403" lon="11.9518108"><ele>486.79999999999995</ele><time>2026-04-26T10:17:50.064Z</time></trkpt><trkpt lat="43.3565322" lon="11.9517905"><ele>483.0</ele><time>2026-04-26T10:17:51.064Z</time></trkpt><trkpt lat="43.3564206" lon="11.9517768"><ele>482.2</ele><time>2026-04-26T10:17:52.064Z</time></trkpt><trkpt lat="43.3563113" lon="11.9517696"><ele>481.4</ele><time>2026-04-26T10:17:53.064Z</time></trkpt><trkpt lat="43.3562025" lon="11.9517621"><ele>480.59999999999997</ele><time>2026-04-26T10:17:54.064Z</time></trkpt><trkpt lat="43.3560968" lon="11.9517299"><ele>479.79999999999995</ele><time>2026-04-26T10:17:55.064Z</time></trkpt><trkpt lat="43.3559993" lon="11.951679"><ele>479.0</ele><time>2026-04-26T10:17:56.064Z</time></trkpt><trkpt lat="43.3559174" lon="11.9515828"><ele>482.2</ele><time>2026-04-26T10:17:57.064Z</time></trkpt><trkpt lat="43.3558537" lon="11.9514771"><ele>485.4</ele><time>2026-04-26T10:17:58.064Z</time></trkpt><trkpt lat="43.3558038" lon="11.9513547"><ele>488.6</ele><time>2026-04-26T10:17:59.063Z</time></trkpt><trkpt lat="43.3557601" lon="11.9512247"><ele>491.8</ele><time>2026-04-26T10:18:00.064Z</time></trkpt><trkpt lat="43.3557226" lon="11.9510944"><ele>495.0</ele><time>2026-04-26T10:18:01.064Z</time></trkpt><trkpt lat="43.3557083" lon="11.9509631"><ele>495.4</ele><time>2026-04-26T10:18:02.064Z</time></trkpt><trkpt lat="43.3557138" lon="11.9508271"><ele>495.8</ele><time>2026-04-26T10:18:03.064Z</time></trkpt><trkpt lat="43.3557181" lon="11.9506851"><ele>496.20000000000005</ele><time>2026-04-26T10:18:04.064Z</time></trkpt><trkpt lat="43.3557113" lon="11.9505515"><ele>496.6</ele><time>2026-04-26T10:18:05.064Z</time></trkpt><trkpt lat="43.3556907" lon="11.950417"><ele>497.0</ele><time>2026-04-26T10:18:06.064Z</time></trkpt><trkpt lat="43.3556721" lon="11.9502827"><ele>497.0</ele><time>2026-04-26T10:18:07.064Z</time></trkpt><trkpt lat="43.3556683" lon="11.9501542"><ele>497.00000000000006</ele><time>2026-04-26T10:18:08.064Z</time></trkpt><trkpt lat="43.3557211" lon="11.9500412"><ele>497.00000000000006</ele><time>2026-04-26T10:18:09.064Z</time></trkpt><trkpt lat="43.3558006" lon="11.9499475"><ele>497.0</ele><time>2026-04-26T10:18:10.064Z</time></trkpt><trkpt lat="43.3558854" lon="11.9498861"><ele>497.0</ele><time>2026-04-26T10:18:11.064Z</time></trkpt><trkpt lat="43.3559766" lon="11.9498259"><ele>496.0</ele><time>2026-04-26T10:18:12.064Z</time></trkpt><trkpt lat="43.3560671" lon="11.9497554"><ele>495.00000000000006</ele><time>2026-04-26T10:18:13.064Z</time></trkpt><trkpt lat="43.356152" lon="11.9496709"><ele>494.00000000000006</ele><time>2026-04-26T10:18:14.064Z</time></trkpt><trkpt lat="43.3562362" lon="11.9495832"><ele>493.0</ele><time>2026-04-26T10:18:15.064Z</time></trkpt><trkpt lat="43.3563248" lon="11.9494949"><ele>492.0</ele><time>2026-04-26T10:18:16.064Z</time></trkpt><trkpt lat="43.3564226" lon="11.9494376"><ele>494.6</ele><time>2026-04-26T10:18:17.064Z</time></trkpt><trkpt lat="43.3565292" lon="11.9494219"><ele>497.20000000000005</ele><time>2026-04-26T10:18:18.064Z</time></trkpt><trkpt lat="43.3566418" lon="11.9494319"><ele>499.8</ele><time>2026-04-26T10:18:19.064Z</time></trkpt><trkpt lat="43.3567536" lon="11.9494369"><ele>502.4</ele><time>2026-04-26T10:18:20.064Z</time></trkpt><trkpt lat="43.3568646" lon="11.9494411"><ele>505.0</ele><time>2026-04-26T10:18:21.064Z</time></trkpt><trkpt lat="43.3569746" lon="11.9494375"><ele>505.0</ele><time>2026-04-26T10:18:22.064Z</time></trkpt><trkpt lat="43.357084" lon="11.94943"><ele>505.0</ele><time>2026-04-26T10:18:23.064Z</time></trkpt><trkpt lat="43.3571967" lon="11.9494244"><ele>505.0</ele><time>2026-04-26T10:18:24.064Z</time></trkpt><trkpt lat="43.3573086" lon="11.9494147"><ele>505.0</ele><time>2026-04-26T10:18:25.064Z</time></trkpt><trkpt lat="43.3574178" lon="11.9493752"><ele>505.0</ele><time>2026-04-26T10:18:26.064Z</time></trkpt><trkpt lat="43.3575169" lon="11.9493083"><ele>504.4</ele><time>2026-04-26T10:18:27.064Z</time></trkpt><trkpt lat="43.3576061" lon="11.9492155"><ele>503.8</ele><time>2026-04-26T10:18:28.064Z</time></trkpt><trkpt lat="43.3576931" lon="11.9491241"><ele>503.20000000000005</ele><time>2026-04-26T10:18:29.064Z</time></trkpt><trkpt lat="43.357791" lon="11.9490667"><ele>502.6</ele><time>2026-04-26T10:18:30.064Z</time></trkpt><trkpt lat="43.3578877" lon="11.9490622"><ele>502.0</ele><time>2026-04-26T10:18:31.064Z</time></trkpt><trkpt lat="43.3579915" lon="11.9490853"><ele>497.8</ele><time>2026-04-26T10:18:32.064Z</time></trkpt><trkpt lat="43.3580951" lon="11.9491123"><ele>493.6</ele><time>2026-04-26T10:18:33.064Z</time></trkpt><trkpt lat="43.3581932" lon="11.9491377"><ele>489.40000000000003</ele><time>2026-04-26T10:18:34.064Z</time></trkpt><trkpt lat="43.3582963" lon="11.9491539"><ele>485.20000000000005</ele><time>2026-04-26T10:18:35.064Z</time></trkpt><trkpt lat="43.3583966" lon="11.9491644"><ele>481.0</ele><time>2026-04-26T10:18:36.064Z</time></trkpt><trkpt lat="43.3584967" lon="11.9491666"><ele>481.0</ele><time>2026-04-26T10:18:37.064Z</time></trkpt><trkpt lat="43.3585963" lon="11.9491596"><ele>481.0</ele><time>2026-04-26T10:18:38.064Z</time></trkpt><trkpt lat="43.3587011" lon="11.9491535"><ele>481.0</ele><time>2026-04-26T10:18:39.064Z</time></trkpt><trkpt lat="43.3588027" lon="11.9491463"><ele>481.0</ele><time>2026-04-26T10:18:40.064Z</time></trkpt><trkpt lat="43.3589022" lon="11.9491158"><ele>481.0</ele><time>2026-04-26T10:18:41.064Z</time></trkpt><trkpt lat="43.3589917" lon="11.9490553"><ele>482.0</ele><time>2026-04-26T10:18:42.064Z</time></trkpt><trkpt lat="43.3590848" lon="11.948987"><ele>483.0</ele><time>2026-04-26T10:18:43.063Z</time></trkpt><trkpt lat="43.3591619" lon="11.9488991"><ele>484.0</ele><time>2026-04-26T10:18:44.064Z</time></trkpt><trkpt lat="43.3592118" lon="11.9487783"><ele>485.0</ele><time>2026-04-26T10:18:45.064Z</time></trkpt><trkpt lat="43.3592276" lon="11.9486434"><ele>486.0</ele><time>2026-04-26T10:18:46.064Z</time></trkpt><trkpt lat="43.3592045" lon="11.9485156"><ele>486.0</ele><time>2026-04-26T10:18:47.064Z</time></trkpt><trkpt lat="43.3591534" lon="11.9484137"><ele>486.0</ele><time>2026-04-26T10:18:48.063Z</time></trkpt><trkpt lat="43.3590801" lon="11.9483282"><ele>486.0</ele><time>2026-04-26T10:18:49.064Z</time></trkpt><trkpt lat="43.35901" lon="11.94825"><ele>486.0</ele><time>2026-04-26T10:18:50.064Z</time></trkpt><trkpt lat="43.3589524" lon="11.9481591"><ele>486.0</ele><time>2026-04-26T10:18:51.064Z</time></trkpt><trkpt lat="43.3588969" lon="11.9480576"><ele>480.20000000000005</ele><time>2026-04-26T10:18:52.064Z</time></trkpt><trkpt lat="43.358847" lon="11.947954"><ele>474.40000000000003</ele><time>2026-04-26T10:18:53.064Z</time></trkpt><trkpt lat="43.3587966" lon="11.9478436"><ele>468.6</ele><time>2026-04-26T10:18:54.064Z</time></trkpt><trkpt lat="43.3587447" lon="11.9477341"><ele>462.8</ele><time>2026-04-26T10:18:55.063Z</time></trkpt><trkpt lat="43.3586911" lon="11.9476178"><ele>457.0</ele><time>2026-04-26T10:18:56.064Z</time></trkpt><trkpt lat="43.3586382" lon="11.947508"><ele>456.40000000000003</ele><time>2026-04-26T10:18:57.064Z</time></trkpt><trkpt lat="43.3585948" lon="11.9473827"><ele>455.80000000000007</ele><time>2026-04-26T10:18:58.064Z</time></trkpt><trkpt lat="43.3585488" lon="11.947249"><ele>455.2</ele><time>2026-04-26T10:18:59.064Z</time></trkpt><trkpt lat="43.3584993" lon="11.9471273"><ele>454.6</ele><time>2026-04-26T10:19:00.064Z</time></trkpt><trkpt lat="43.3584427" lon="11.9470141"><ele>454.0</ele><time>2026-04-26T10:19:01.064Z</time></trkpt><trkpt lat="43.3583698" lon="11.9469134"><ele>454.0</ele><time>2026-04-26T10:19:02.064Z</time></trkpt><trkpt lat="43.3582943" lon="11.9468121"><ele>454.0</ele><time>2026-04-26T10:19:03.064Z</time></trkpt><trkpt lat="43.3582186" lon="11.9467085"><ele>454.0</ele><time>2026-04-26T10:19:04.064Z</time></trkpt><trkpt lat="43.3581355" lon="11.9466063"><ele>454.0</ele><time>2026-04-26T10:19:05.064Z</time></trkpt><trkpt lat="43.3580477" lon="11.9465151"><ele>454.0</ele><time>2026-04-26T10:19:06.064Z</time></trkpt><trkpt lat="43.3579594" lon="11.9464258"><ele>453.2</ele><time>2026-04-26T10:19:07.064Z</time></trkpt><trkpt lat="43.3578794" lon="11.9463272"><ele>452.4</ele><time>2026-04-26T10:19:08.063Z</time></trkpt><trkpt lat="43.3578099" lon="11.9462092"><ele>451.6</ele><time>2026-04-26T10:19:09.064Z</time></trkpt><trkpt lat="43.3577638" lon="11.9460674"><ele>450.8</ele><time>2026-04-26T10:19:10.064Z</time></trkpt><trkpt lat="43.3577387" lon="11.9459272"><ele>450.0</ele><time>2026-04-26T10:19:11.064Z</time></trkpt><trkpt lat="43.3577205" lon="11.9457891"><ele>450.0</ele><time>2026-04-26T10:19:12.064Z</time></trkpt><trkpt lat="43.3576729" lon="11.9456745"><ele>450.0</ele><time>2026-04-26T10:19:13.063Z</time></trkpt><trkpt lat="43.3575968" lon="11.945596"><ele>450.0</ele><time>2026-04-26T10:19:14.064Z</time></trkpt><trkpt lat="43.3575012" lon="11.9455527"><ele>450.0</ele><time>2026-04-26T10:19:15.064Z</time></trkpt><trkpt lat="43.357401" lon="11.9455048"><ele>450.0</ele><time>2026-04-26T10:19:16.064Z</time></trkpt><trkpt lat="43.3573019" lon="11.9454314"><ele>450.0</ele><time>2026-04-26T10:19:17.064Z</time></trkpt><trkpt lat="43.3572122" lon="11.9453087"><ele>450.0</ele><time>2026-04-26T10:19:18.063Z</time></trkpt><trkpt lat="43.357134" lon="11.9451717"><ele>450.0</ele><time>2026-04-26T10:19:19.064Z</time></trkpt><trkpt lat="43.3570623" lon="11.9450227"><ele>450.0</ele><time>2026-04-26T10:19:20.064Z</time></trkpt><trkpt lat="43.3570023" lon="11.9448666"><ele>445.0</ele><time>2026-04-26T10:19:21.064Z</time></trkpt><trkpt lat="43.3569401" lon="11.9447102"><ele>440.0</ele><time>2026-04-26T10:19:22.064Z</time></trkpt><trkpt lat="43.3568713" lon="11.9445656"><ele>435.0</ele><time>2026-04-26T10:19:23.064Z</time></trkpt><trkpt lat="43.3567886" lon="11.9444272"><ele>430.0</ele><time>2026-04-26T10:19:24.064Z</time></trkpt><trkpt lat="43.3566955" lon="11.9443086"><ele>428.25</ele><time>2026-04-26T10:19:25.064Z</time></trkpt><trkpt lat="43.356598" lon="11.9442012"><ele>426.5</ele><time>2026-04-26T10:19:26.064Z</time></trkpt><trkpt lat="43.3564985" lon="11.94409"><ele>424.75</ele><time>2026-04-26T10:19:27.063Z</time></trkpt><trkpt lat="43.356398" lon="11.943986"><ele>423.0</ele><time>2026-04-26T10:19:28.064Z</time></trkpt><trkpt lat="43.3562985" lon="11.9438871"><ele>423.0</ele><time>2026-04-26T10:19:29.064Z</time></trkpt><trkpt lat="43.3561986" lon="11.9437952"><ele>423.0</ele><time>2026-04-26T10:19:30.064Z</time></trkpt><trkpt lat="43.3560982" lon="11.9437037"><ele>423.0</ele><time>2026-04-26T10:19:31.063Z</time></trkpt><trkpt lat="43.3559949" lon="11.9436247"><ele>423.0</ele><time>2026-04-26T10:19:32.063Z</time></trkpt><trkpt lat="43.3558904" lon="11.9435462"><ele>423.0</ele><time>2026-04-26T10:19:33.063Z</time></trkpt><trkpt lat="43.3557886" lon="11.9434696"><ele>423.0</ele><time>2026-04-26T10:19:34.062Z</time></trkpt><trkpt lat="43.3556863" lon="11.9433957"><ele>423.0</ele><time>2026-04-26T10:19:35.063Z</time></trkpt><trkpt lat="43.3555849" lon="11.9433217"><ele>423.0</ele><time>2026-04-26T10:19:36.063Z</time></trkpt><trkpt lat="43.3554818" lon="11.9432501"><ele>422.59999999999997</ele><time>2026-04-26T10:19:37.063Z</time></trkpt><trkpt lat="43.3553817" lon="11.9431807"><ele>422.2</ele><time>2026-04-26T10:19:38.063Z</time></trkpt><trkpt lat="43.3552808" lon="11.9431147"><ele>421.8</ele><time>2026-04-26T10:19:39.063Z</time></trkpt><trkpt lat="43.3551868" lon="11.943052"><ele>421.4</ele><time>2026-04-26T10:19:40.063Z</time></trkpt><trkpt lat="43.3551007" lon="11.9429784"><ele>421.0</ele><time>2026-04-26T10:19:41.063Z</time></trkpt><trkpt lat="43.3550293" lon="11.9428867"><ele>421.0</ele><time>2026-04-26T10:19:42.063Z</time></trkpt><trkpt lat="43.354993" lon="11.9427708"><ele>421.0</ele><time>2026-04-26T10:19:43.063Z</time></trkpt><trkpt lat="43.3549973" lon="11.9426623"><ele>421.0</ele><time>2026-04-26T10:19:44.063Z</time></trkpt><trkpt lat="43.3550603" lon="11.9425736"><ele>421.0</ele><time>2026-04-26T10:19:45.063Z</time></trkpt><trkpt lat="43.3551468" lon="11.9425177"><ele>421.0</ele><time>2026-04-26T10:19:46.063Z</time></trkpt><trkpt lat="43.3552433" lon="11.9424854"><ele>421.20000000000005</ele><time>2026-04-26T10:19:47.062Z</time></trkpt><trkpt lat="43.3553398" lon="11.9424629"><ele>421.40000000000003</ele><time>2026-04-26T10:19:48.063Z</time></trkpt><trkpt lat="43.3554363" lon="11.9424323"><ele>421.6</ele><time>2026-04-26T10:19:49.063Z</time></trkpt><trkpt lat="43.3555349" lon="11.9423952"><ele>421.8</ele><time>2026-04-26T10:19:50.063Z</time></trkpt><trkpt lat="43.3556293" lon="11.9423498"><ele>422.0</ele><time>2026-04-26T10:19:51.063Z</time></trkpt><trkpt lat="43.3557225" lon="11.9423023"><ele>424.0</ele><time>2026-04-26T10:19:52.063Z</time></trkpt><trkpt lat="43.3558193" lon="11.9422605"><ele>426.0</ele><time>2026-04-26T10:19:53.063Z</time></trkpt><trkpt lat="43.3559182" lon="11.9422175"><ele>428.00000000000006</ele><time>2026-04-26T10:19:54.063Z</time></trkpt><trkpt lat="43.3560167" lon="11.9421773"><ele>430.0</ele><time>2026-04-26T10:19:55.063Z</time></trkpt><trkpt lat="43.3561162" lon="11.9421424"><ele>432.0</ele><time>2026-04-26T10:19:56.063Z</time></trkpt><trkpt lat="43.3562181" lon="11.9420966"><ele>432.0</ele><time>2026-04-26T10:19:57.063Z</time></trkpt><trkpt lat="43.356317" lon="11.9420403"><ele>432.00000000000006</ele><time>2026-04-26T10:19:58.063Z</time></trkpt><trkpt lat="43.3564117" lon="11.9419724"><ele>432.00000000000006</ele><time>2026-04-26T10:19:59.063Z</time></trkpt><trkpt lat="43.3565038" lon="11.9418939"><ele>432.0</ele><time>2026-04-26T10:20:00.063Z</time></trkpt><trkpt lat="43.3565937" lon="11.9418006"><ele>432.0</ele><time>2026-04-26T10:20:01.063Z</time></trkpt><trkpt lat="43.3566784" lon="11.9416988"><ele>430.8</ele><time>2026-04-26T10:20:02.063Z</time></trkpt><trkpt lat="43.3567617" lon="11.9416029"><ele>429.6</ele><time>2026-04-26T10:20:03.063Z</time></trkpt><trkpt lat="43.3568419" lon="11.9415177"><ele>428.40000000000003</ele><time>2026-04-26T10:20:04.063Z</time></trkpt><trkpt lat="43.3569241" lon="11.9414411"><ele>427.20000000000005</ele><time>2026-04-26T10:20:05.063Z</time></trkpt><trkpt lat="43.3569914" lon="11.9413675"><ele>426.0</ele><time>2026-04-26T10:20:06.063Z</time></trkpt><trkpt lat="43.3570398" lon="11.9412806"><ele>426.0</ele><time>2026-04-26T10:20:07.063Z</time></trkpt><trkpt lat="43.3570514" lon="11.9411664"><ele>426.0</ele><time>2026-04-26T10:20:08.063Z</time></trkpt><trkpt lat="43.3570295" lon="11.941041"><ele>426.0</ele><time>2026-04-26T10:20:09.063Z</time></trkpt><trkpt lat="43.356981" lon="11.9409477"><ele>426.0</ele><time>2026-04-26T10:20:10.063Z</time></trkpt><trkpt lat="43.3569182" lon="11.9408628"><ele>426.0</ele><time>2026-04-26T10:20:11.063Z</time></trkpt><trkpt lat="43.3568385" lon="11.9407994"><ele>426.0</ele><time>2026-04-26T10:20:12.063Z</time></trkpt><trkpt lat="43.3567511" lon="11.9407425"><ele>425.6</ele><time>2026-04-26T10:20:13.063Z</time></trkpt><trkpt lat="43.3566641" lon="11.9406817"><ele>425.20000000000005</ele><time>2026-04-26T10:20:14.063Z</time></trkpt><trkpt lat="43.3565789" lon="11.940621"><ele>424.79999999999995</ele><time>2026-04-26T10:20:15.063Z</time></trkpt><trkpt lat="43.3564944" lon="11.9405625"><ele>424.4</ele><time>2026-04-26T10:20:16.063Z</time></trkpt><trkpt lat="43.3564099" lon="11.9404967"><ele>424.0</ele><time>2026-04-26T10:20:17.063Z</time></trkpt><trkpt lat="43.3563291" lon="11.9404298"><ele>421.0</ele><time>2026-04-26T10:20:18.063Z</time></trkpt><trkpt lat="43.3562517" lon="11.9403487"><ele>418.0</ele><time>2026-04-26T10:20:19.063Z</time></trkpt><trkpt lat="43.356179" lon="11.9402589"><ele>415.0</ele><time>2026-04-26T10:20:20.063Z</time></trkpt><trkpt lat="43.3561119" lon="11.940155"><ele>412.0</ele><time>2026-04-26T10:20:21.062Z</time></trkpt><trkpt lat="43.3560515" lon="11.9400408"><ele>409.0</ele><time>2026-04-26T10:20:22.063Z</time></trkpt><trkpt lat="43.3559873" lon="11.939931"><ele>409.0</ele><time>2026-04-26T10:20:23.063Z</time></trkpt><trkpt lat="43.3559214" lon="11.9398212"><ele>409.0</ele><time>2026-04-26T10:20:24.063Z</time></trkpt><trkpt lat="43.3558574" lon="11.93971"><ele>409.0</ele><time>2026-04-26T10:20:25.063Z</time></trkpt><trkpt lat="43.3557946" lon="11.9395974"><ele>409.0</ele><time>2026-04-26T10:20:26.063Z</time></trkpt><trkpt lat="43.3557294" lon="11.9394861"><ele>409.0</ele><time>2026-04-26T10:20:27.063Z</time></trkpt><trkpt lat="43.3556674" lon="11.9393728"><ele>409.0</ele><time>2026-04-26T10:20:28.063Z</time></trkpt><trkpt lat="43.3556065" lon="11.939254"><ele>409.0</ele><time>2026-04-26T10:20:29.063Z</time></trkpt><trkpt lat="43.3555586" lon="11.9391261"><ele>409.0</ele><time>2026-04-26T10:20:30.063Z</time></trkpt><trkpt lat="43.3555353" lon="11.9389874"><ele>409.0</ele><time>2026-04-26T10:20:31.063Z</time></trkpt><trkpt lat="43.3555252" lon="11.9388479"><ele>409.0</ele><time>2026-04-26T10:20:32.063Z</time></trkpt><trkpt lat="43.3555441" lon="11.9387054"><ele>410.4</ele><time>2026-04-26T10:20:33.063Z</time></trkpt><trkpt lat="43.3555917" lon="11.938572"><ele>411.79999999999995</ele><time>2026-04-26T10:20:34.063Z</time></trkpt><trkpt lat="43.3556486" lon="11.9384563"><ele>413.20000000000005</ele><time>2026-04-26T10:20:35.063Z</time></trkpt><trkpt lat="43.355706" lon="11.9383419"><ele>414.6</ele><time>2026-04-26T10:20:36.063Z</time></trkpt><trkpt lat="43.3557408" lon="11.9382252"><ele>416.0</ele><time>2026-04-26T10:20:37.063Z</time></trkpt><trkpt lat="43.3557603" lon="11.9380984"><ele>416.0</ele><time>2026-04-26T10:20:38.063Z</time></trkpt><trkpt lat="43.355767" lon="11.9379645"><ele>416.0</ele><time>2026-04-26T10:20:39.063Z</time></trkpt><trkpt lat="43.3557622" lon="11.9378367"><ele>416.0</ele><time>2026-04-26T10:20:40.063Z</time></trkpt><trkpt lat="43.3557296" lon="11.937715"><ele>416.0</ele><time>2026-04-26T10:20:41.063Z</time></trkpt><trkpt lat="43.3556652" lon="11.9376098"><ele>416.0</ele><time>2026-04-26T10:20:42.063Z</time></trkpt><trkpt lat="43.3555634" lon="11.9375335"><ele>412.25</ele><time>2026-04-26T10:20:43.063Z</time></trkpt><trkpt lat="43.3554455" lon="11.9375072"><ele>408.5</ele><time>2026-04-26T10:20:44.063Z</time></trkpt><trkpt lat="43.3553299" lon="11.9375034"><ele>404.75</ele><time>2026-04-26T10:20:45.063Z</time></trkpt><trkpt lat="43.3552202" lon="11.9375255"><ele>401.0</ele><time>2026-04-26T10:20:46.062Z</time></trkpt><trkpt lat="43.3551122" lon="11.9375641"><ele>398.6</ele><time>2026-04-26T10:20:47.063Z</time></trkpt><trkpt lat="43.3550105" lon="11.9376142"><ele>396.20000000000005</ele><time>2026-04-26T10:20:48.062Z</time></trkpt><trkpt lat="43.3549036" lon="11.9376591"><ele>393.79999999999995</ele><time>2026-04-26T10:20:49.063Z</time></trkpt><trkpt lat="43.3547972" lon="11.9377073"><ele>391.4</ele><time>2026-04-26T10:20:50.063Z</time></trkpt><trkpt lat="43.3546962" lon="11.9377435"><ele>389.0</ele><time>2026-04-26T10:20:51.063Z</time></trkpt><trkpt lat="43.3545991" lon="11.9377598"><ele>388.2</ele><time>2026-04-26T10:20:52.063Z</time></trkpt><trkpt lat="43.3545059" lon="11.9377149"><ele>387.4</ele><time>2026-04-26T10:20:53.063Z</time></trkpt><trkpt lat="43.3544348" lon="11.937628"><ele>386.6</ele><time>2026-04-26T10:20:54.063Z</time></trkpt><trkpt lat="43.3543781" lon="11.9375244"><ele>385.8</ele><time>2026-04-26T10:20:55.063Z</time></trkpt><trkpt lat="43.3543317" lon="11.9374016"><ele>385.0</ele><time>2026-04-26T10:20:56.062Z</time></trkpt><trkpt lat="43.3543066" lon="11.9372803"><ele>385.0</ele><time>2026-04-26T10:20:57.063Z</time></trkpt><trkpt lat="43.3542947" lon="11.9371495"><ele>385.0</ele><time>2026-04-26T10:20:58.063Z</time></trkpt><trkpt lat="43.3542889" lon="11.9370159"><ele>385.0</ele><time>2026-04-26T10:20:59.063Z</time></trkpt><trkpt lat="43.3542905" lon="11.9368823"><ele>385.0</ele><time>2026-04-26T10:21:00.063Z</time></trkpt><trkpt lat="43.3542962" lon="11.9367437"><ele>385.0</ele><time>2026-04-26T10:21:01.063Z</time></trkpt><trkpt lat="43.3543114" lon="11.936611"><ele>385.0</ele><time>2026-04-26T10:21:02.063Z</time></trkpt><trkpt lat="43.3543339" lon="11.9364758"><ele>385.0</ele><time>2026-04-26T10:21:03.062Z</time></trkpt><trkpt lat="43.3543572" lon="11.9363366"><ele>385.0</ele><time>2026-04-26T10:21:04.063Z</time></trkpt><trkpt lat="43.3543715" lon="11.9361977"><ele>385.0</ele><time>2026-04-26T10:21:05.063Z</time></trkpt><trkpt lat="43.3543737" lon="11.9360621"><ele>385.0</ele><time>2026-04-26T10:21:06.063Z</time></trkpt><trkpt lat="43.3543485" lon="11.9359304"><ele>384.6</ele><time>2026-04-26T10:21:07.063Z</time></trkpt><trkpt lat="43.3543093" lon="11.9358003"><ele>384.2</ele><time>2026-04-26T10:21:08.063Z</time></trkpt><trkpt lat="43.3542614" lon="11.9356774"><ele>383.79999999999995</ele><time>2026-04-26T10:21:09.063Z</time></trkpt><trkpt lat="43.3542208" lon="11.9355532"><ele>383.4</ele><time>2026-04-26T10:21:10.063Z</time></trkpt><trkpt lat="43.3541901" lon="11.9354216"><ele>383.0</ele><time>2026-04-26T10:21:11.063Z</time></trkpt><trkpt lat="43.3541806" lon="11.9352887"><ele>383.0</ele><time>2026-04-26T10:21:12.063Z</time></trkpt><trkpt lat="43.3542023" lon="11.9351545"><ele>383.0</ele><time>2026-04-26T10:21:13.062Z</time></trkpt><trkpt lat="43.3542589" lon="11.935033"><ele>383.0</ele><time>2026-04-26T10:21:14.063Z</time></trkpt><trkpt lat="43.3543309" lon="11.9349323"><ele>383.0</ele><time>2026-04-26T10:21:15.063Z</time></trkpt><trkpt lat="43.3544089" lon="11.9348545"><ele>383.0</ele><time>2026-04-26T10:21:16.063Z</time></trkpt><trkpt lat="43.3544908" lon="11.9347782"><ele>382.33333333333337</ele><time>2026-04-26T10:21:17.063Z</time></trkpt><trkpt lat="43.3545741" lon="11.9347065"><ele>381.6666666666667</ele><time>2026-04-26T10:21:18.062Z</time></trkpt><trkpt lat="43.3546396" lon="11.934624"><ele>381.0</ele><time>2026-04-26T10:21:19.063Z</time></trkpt><trkpt lat="43.354673" lon="11.934526"><ele>380.3333333333333</ele><time>2026-04-26T10:21:20.063Z</time></trkpt><trkpt lat="43.3546548" lon="11.9344208"><ele>379.66666666666663</ele><time>2026-04-26T10:21:21.063Z</time></trkpt><trkpt lat="43.3546074" lon="11.9343269"><ele>379.0</ele><time>2026-04-26T10:21:22.063Z</time></trkpt><trkpt lat="43.3545278" lon="11.9342581"><ele>380.2</ele><time>2026-04-26T10:21:23.063Z</time></trkpt><trkpt lat="43.35443" lon="11.9342147"><ele>381.4</ele><time>2026-04-26T10:21:24.063Z</time></trkpt><trkpt lat="43.3543229" lon="11.9341955"><ele>382.6</ele><time>2026-04-26T10:21:25.063Z</time></trkpt><trkpt lat="43.3542157" lon="11.9341858"><ele>383.8</ele><time>2026-04-26T10:21:26.063Z</time></trkpt><trkpt lat="43.3541048" lon="11.9341713"><ele>385.0</ele><time>2026-04-26T10:21:27.063Z</time></trkpt><trkpt lat="43.3539918" lon="11.934143"><ele>385.0</ele><time>2026-04-26T10:21:28.062Z</time></trkpt><trkpt lat="43.3538804" lon="11.934117"><ele>385.0</ele><time>2026-04-26T10:21:29.063Z</time></trkpt><trkpt lat="43.3537707" lon="11.9340919"><ele>385.0</ele><time>2026-04-26T10:21:30.063Z</time></trkpt><trkpt lat="43.3536638" lon="11.9340684"><ele>385.0</ele><time>2026-04-26T10:21:31.063Z</time></trkpt><trkpt lat="43.3535557" lon="11.9340427"><ele>385.0</ele><time>2026-04-26T10:21:32.063Z</time></trkpt><trkpt lat="43.3534528" lon="11.9340226"><ele>382.2</ele><time>2026-04-26T10:21:33.062Z</time></trkpt><trkpt lat="43.3533522" lon="11.9339991"><ele>379.4</ele><time>2026-04-26T10:21:34.063Z</time></trkpt><trkpt lat="43.3532518" lon="11.9339835"><ele>376.6</ele><time>2026-04-26T10:21:35.063Z</time></trkpt><trkpt lat="43.3531528" lon="11.9339639"><ele>373.8</ele><time>2026-04-26T10:21:36.063Z</time></trkpt><trkpt lat="43.3530592" lon="11.9339411"><ele>371.0</ele><time>2026-04-26T10:21:37.063Z</time></trkpt><trkpt lat="43.3529633" lon="11.9339107"><ele>368.6</ele><time>2026-04-26T10:21:38.063Z</time></trkpt><trkpt lat="43.3528715" lon="11.9338677"><ele>366.20000000000005</ele><time>2026-04-26T10:21:39.063Z</time></trkpt><trkpt lat="43.3527867" lon="11.9337953"><ele>363.79999999999995</ele><time>2026-04-26T10:21:40.063Z</time></trkpt><trkpt lat="43.3527306" lon="11.9336794"><ele>361.4</ele><time>2026-04-26T10:21:41.063Z</time></trkpt><trkpt lat="43.352691" lon="11.9335523"><ele>359.0</ele><time>2026-04-26T10:21:42.062Z</time></trkpt><trkpt lat="43.3526653" lon="11.9334247"><ele>360.4</ele><time>2026-04-26T10:21:43.063Z</time></trkpt><trkpt lat="43.3526466" lon="11.9332877"><ele>361.79999999999995</ele><time>2026-04-26T10:21:44.063Z</time></trkpt><trkpt lat="43.3526322" lon="11.9331551"><ele>363.20000000000005</ele><time>2026-04-26T10:21:45.063Z</time></trkpt><trkpt lat="43.3526327" lon="11.9330144"><ele>364.6</ele><time>2026-04-26T10:21:46.063Z</time></trkpt><trkpt lat="43.352647" lon="11.9328756"><ele>366.0</ele><time>2026-04-26T10:21:47.063Z</time></trkpt><trkpt lat="43.3526902" lon="11.9327528"><ele>366.0</ele><time>2026-04-26T10:21:48.062Z</time></trkpt><trkpt lat="43.3527497" lon="11.9326502"><ele>366.0</ele><time>2026-04-26T10:21:49.063Z</time></trkpt><trkpt lat="43.3528201" lon="11.932547"><ele>366.0</ele><time>2026-04-26T10:21:50.063Z</time></trkpt><trkpt lat="43.3528764" lon="11.9324266"><ele>366.0</ele><time>2026-04-26T10:21:51.063Z</time></trkpt><trkpt lat="43.3529044" lon="11.9322976"><ele>366.0</ele><time>2026-04-26T10:21:52.063Z</time></trkpt><trkpt lat="43.3529142" lon="11.9321597"><ele>364.20000000000005</ele><time>2026-04-26T10:21:53.063Z</time></trkpt><trkpt lat="43.3529168" lon="11.9320147"><ele>362.40000000000003</ele><time>2026-04-26T10:21:54.062Z</time></trkpt><trkpt lat="43.3529169" lon="11.9318722"><ele>360.6</ele><time>2026-04-26T10:21:55.063Z</time></trkpt><trkpt lat="43.3529165" lon="11.9317257"><ele>358.8</ele><time>2026-04-26T10:21:56.063Z</time></trkpt><trkpt lat="43.3529191" lon="11.931582"><ele>357.0</ele><time>2026-04-26T10:21:57.063Z</time></trkpt><trkpt lat="43.3529251" lon="11.931433"><ele>356.0</ele><time>2026-04-26T10:21:58.063Z</time></trkpt><trkpt lat="43.3529334" lon="11.9312841"><ele>355.0</ele><time>2026-04-26T10:21:59.063Z</time></trkpt><trkpt lat="43.3529442" lon="11.9311359"><ele>354.0</ele><time>2026-04-26T10:22:00.063Z</time></trkpt><trkpt lat="43.3529545" lon="11.9309893"><ele>353.0</ele><time>2026-04-26T10:22:01.062Z</time></trkpt><trkpt lat="43.3529681" lon="11.9308433"><ele>352.0</ele><time>2026-04-26T10:22:02.063Z</time></trkpt><trkpt lat="43.3529796" lon="11.9306923"><ele>352.0</ele><time>2026-04-26T10:22:03.063Z</time></trkpt><trkpt lat="43.3529872" lon="11.9305424"><ele>352.0</ele><time>2026-04-26T10:22:04.063Z</time></trkpt><trkpt lat="43.3529945" lon="11.9303936"><ele>352.0</ele><time>2026-04-26T10:22:05.063Z</time></trkpt><trkpt lat="43.3529991" lon="11.9302515"><ele>352.0</ele><time>2026-04-26T10:22:06.063Z</time></trkpt><trkpt lat="43.3530081" lon="11.9301011"><ele>352.0</ele><time>2026-04-26T10:22:07.063Z</time></trkpt><trkpt lat="43.3530269" lon="11.9299493"><ele>356.6</ele><time>2026-04-26T10:22:08.063Z</time></trkpt><trkpt lat="43.3530536" lon="11.929798"><ele>361.20000000000005</ele><time>2026-04-26T10:22:09.063Z</time></trkpt><trkpt lat="43.353089" lon="11.9296565"><ele>365.8</ele><time>2026-04-26T10:22:10.062Z</time></trkpt><trkpt lat="43.353126" lon="11.9295212"><ele>370.4</ele><time>2026-04-26T10:22:11.063Z</time></trkpt><trkpt lat="43.3531581" lon="11.9293992"><ele>375.0</ele><time>2026-04-26T10:22:12.063Z</time></trkpt><trkpt lat="43.3531638" lon="11.9292642"><ele>374.4</ele><time>2026-04-26T10:22:13.063Z</time></trkpt><trkpt lat="43.3531504" lon="11.929127"><ele>373.8</ele><time>2026-04-26T10:22:14.063Z</time></trkpt><trkpt lat="43.3531199" lon="11.9290054"><ele>373.20000000000005</ele><time>2026-04-26T10:22:15.062Z</time></trkpt><trkpt lat="43.3530758" lon="11.9288845"><ele>372.6</ele><time>2026-04-26T10:22:16.063Z</time></trkpt><trkpt lat="43.353026" lon="11.9287719"><ele>372.0</ele><time>2026-04-26T10:22:17.063Z</time></trkpt><trkpt lat="43.3529601" lon="11.9286738"><ele>367.6</ele><time>2026-04-26T10:22:18.063Z</time></trkpt><trkpt lat="43.3528754" lon="11.9286161"><ele>363.20000000000005</ele><time>2026-04-26T10:22:19.063Z</time></trkpt><trkpt lat="43.3527694" lon="11.9286053"><ele>358.8</ele><time>2026-04-26T10:22:20.063Z</time></trkpt><trkpt lat="43.3526773" lon="11.9286081"><ele>354.4</ele><time>2026-04-26T10:22:21.063Z</time></trkpt><trkpt lat="43.3525794" lon="11.9286231"><ele>350.0</ele><time>2026-04-26T10:22:22.063Z</time></trkpt><trkpt lat="43.3524816" lon="11.9286367"><ele>350.0</ele><time>2026-04-26T10:22:23.063Z</time></trkpt><trkpt lat="43.3523855" lon="11.9286344"><ele>350.0</ele><time>2026-04-26T10:22:24.063Z</time></trkpt><trkpt lat="43.3522957" lon="11.9286241"><ele>350.0</ele><time>2026-04-26T10:22:25.063Z</time></trkpt><trkpt lat="43.352206" lon="11.928607"><ele>350.0</ele><time>2026-04-26T10:22:26.062Z</time></trkpt><trkpt lat="43.3521174" lon="11.9285902"><ele>350.0</ele><time>2026-04-26T10:22:27.063Z</time></trkpt><trkpt lat="43.3520297" lon="11.9285727"><ele>348.33333333333337</ele><time>2026-04-26T10:22:28.063Z</time></trkpt><trkpt lat="43.3519433" lon="11.9285486"><ele>346.6666666666667</ele><time>2026-04-26T10:22:29.063Z</time></trkpt><trkpt lat="43.3518584" lon="11.9285229"><ele>345.0</ele><time>2026-04-26T10:22:30.063Z</time></trkpt><trkpt lat="43.3517762" lon="11.9285017"><ele>343.3333333333333</ele><time>2026-04-26T10:22:31.063Z</time></trkpt><trkpt lat="43.3516956" lon="11.9284852"><ele>341.66666666666663</ele><time>2026-04-26T10:22:32.063Z</time></trkpt><trkpt lat="43.351615" lon="11.9284678"><ele>340.0</ele><time>2026-04-26T10:22:33.063Z</time></trkpt><trkpt lat="43.3515368" lon="11.9284535"><ele>340.0</ele><time>2026-04-26T10:22:34.063Z</time></trkpt><trkpt lat="43.3514534" lon="11.9284352"><ele>340.0</ele><time>2026-04-26T10:22:35.063Z</time></trkpt><trkpt lat="43.3513732" lon="11.9284105"><ele>340.0</ele><time>2026-04-26T10:22:36.063Z</time></trkpt><trkpt lat="43.3512915" lon="11.928381"><ele>340.0</ele><time>2026-04-26T10:22:37.063Z</time></trkpt><trkpt lat="43.3512107" lon="11.9283431"><ele>340.0</ele><time>2026-04-26T10:22:38.063Z</time></trkpt><trkpt lat="43.3511349" lon="11.9282964"><ele>340.0</ele><time>2026-04-26T10:22:39.063Z</time></trkpt><trkpt lat="43.3510618" lon="11.9282432"><ele>342.2</ele><time>2026-04-26T10:22:40.063Z</time></trkpt><trkpt lat="43.3509929" lon="11.9281746"><ele>344.4</ele><time>2026-04-26T10:22:41.062Z</time></trkpt><trkpt lat="43.3509264" lon="11.9280919"><ele>346.6</ele><time>2026-04-26T10:22:42.063Z</time></trkpt><trkpt lat="43.3508664" lon="11.9280019"><ele>348.8</ele><time>2026-04-26T10:22:43.063Z</time></trkpt><trkpt lat="43.3508168" lon="11.9278984"><ele>351.0</ele><time>2026-04-26T10:22:44.063Z</time></trkpt><trkpt lat="43.3507863" lon="11.9277728"><ele>351.0</ele><time>2026-04-26T10:22:45.063Z</time></trkpt><trkpt lat="43.3507751" lon="11.9276412"><ele>351.0</ele><time>2026-04-26T10:22:46.063Z</time></trkpt><trkpt lat="43.3507826" lon="11.9275131"><ele>351.0</ele><time>2026-04-26T10:22:47.063Z</time></trkpt><trkpt lat="43.3508" lon="11.9273835"><ele>351.0</ele><time>2026-04-26T10:22:48.063Z</time></trkpt><trkpt lat="43.3508155" lon="11.9272504"><ele>351.0</ele><time>2026-04-26T10:22:49.063Z</time></trkpt><trkpt lat="43.3508309" lon="11.9271222"><ele>351.0</ele><time>2026-04-26T10:22:50.062Z</time></trkpt><trkpt lat="43.3508467" lon="11.9269945"><ele>351.0</ele><time>2026-04-26T10:22:51.064Z</time></trkpt><trkpt lat="43.3508631" lon="11.9268647"><ele>351.0</ele><time>2026-04-26T10:22:52.064Z</time></trkpt><trkpt lat="43.3508792" lon="11.9267327"><ele>351.0</ele><time>2026-04-26T10:22:53.064Z</time></trkpt><trkpt lat="43.3508989" lon="11.926603"><ele>351.0</ele><time>2026-04-26T10:22:54.064Z</time></trkpt><trkpt lat="43.3509216" lon="11.9264731"><ele>349.8</ele><time>2026-04-26T10:22:55.064Z</time></trkpt><trkpt lat="43.350946" lon="11.9263434"><ele>348.6</ele><time>2026-04-26T10:22:56.064Z</time></trkpt><trkpt lat="43.3509783" lon="11.9262204"><ele>347.4</ele><time>2026-04-26T10:22:57.064Z</time></trkpt><trkpt lat="43.3510165" lon="11.9260924"><ele>346.2</ele><time>2026-04-26T10:22:58.064Z</time></trkpt><trkpt lat="43.3510551" lon="11.9259672"><ele>345.0</ele><time>2026-04-26T10:22:59.064Z</time></trkpt><trkpt lat="43.3511005" lon="11.9258478"><ele>344.4</ele><time>2026-04-26T10:23:00.064Z</time></trkpt><trkpt lat="43.3511416" lon="11.9257207"><ele>343.8</ele><time>2026-04-26T10:23:01.064Z</time></trkpt><trkpt lat="43.3511819" lon="11.925601"><ele>343.20000000000005</ele><time>2026-04-26T10:23:02.064Z</time></trkpt><trkpt lat="43.3512154" lon="11.9254765"><ele>342.6</ele><time>2026-04-26T10:23:03.064Z</time></trkpt><trkpt lat="43.3512346" lon="11.9253563"><ele>342.0</ele><time>2026-04-26T10:23:04.064Z</time></trkpt><trkpt lat="43.3512124" lon="11.925246"><ele>342.0</ele><time>2026-04-26T10:23:05.064Z</time></trkpt><trkpt lat="43.3511558" lon="11.9251472"><ele>342.0</ele><time>2026-04-26T10:23:06.064Z</time></trkpt><trkpt lat="43.3510803" lon="11.9250855"><ele>342.0</ele><time>2026-04-26T10:23:07.064Z</time></trkpt><trkpt lat="43.3509985" lon="11.9250611"><ele>342.0</ele><time>2026-04-26T10:23:08.064Z</time></trkpt><trkpt lat="43.350918" lon="11.9250548"><ele>342.0</ele><time>2026-04-26T10:23:09.063Z</time></trkpt><trkpt lat="43.3508372" lon="11.9250553"><ele>342.0</ele><time>2026-04-26T10:23:10.064Z</time></trkpt><trkpt lat="43.3507546" lon="11.9250538"><ele>342.0</ele><time>2026-04-26T10:23:11.064Z</time></trkpt><trkpt lat="43.350671" lon="11.9250592"><ele>342.0</ele><time>2026-04-26T10:23:12.064Z</time></trkpt><trkpt lat="43.3505868" lon="11.9250781"><ele>342.0</ele><time>2026-04-26T10:23:13.064Z</time></trkpt><trkpt lat="43.350506" lon="11.9251144"><ele>342.0</ele><time>2026-04-26T10:23:14.064Z</time></trkpt><trkpt lat="43.3504232" lon="11.9251607"><ele>342.0</ele><time>2026-04-26T10:23:15.064Z</time></trkpt><trkpt lat="43.3503427" lon="11.9252237"><ele>342.0</ele><time>2026-04-26T10:23:16.064Z</time></trkpt><trkpt lat="43.3502681" lon="11.9252947"><ele>340.20000000000005</ele><time>2026-04-26T10:23:17.064Z</time></trkpt><trkpt lat="43.3501912" lon="11.9253698"><ele>338.4</ele><time>2026-04-26T10:23:18.064Z</time></trkpt><trkpt lat="43.3501131" lon="11.9254506"><ele>336.6</ele><time>2026-04-26T10:23:19.064Z</time></trkpt><trkpt lat="43.350031" lon="11.9255226"><ele>334.79999999999995</ele><time>2026-04-26T10:23:20.064Z</time></trkpt><trkpt lat="43.3499457" lon="11.9255832"><ele>333.0</ele><time>2026-04-26T10:23:21.064Z</time></trkpt><trkpt lat="43.3498555" lon="11.9256311"><ele>333.0</ele><time>2026-04-26T10:23:22.064Z</time></trkpt><trkpt lat="43.3497616" lon="11.9256799"><ele>333.0</ele><time>2026-04-26T10:23:23.064Z</time></trkpt><trkpt lat="43.3496713" lon="11.9257213"><ele>333.0</ele><time>2026-04-26T10:23:24.064Z</time></trkpt><trkpt lat="43.3495782" lon="11.9257674"><ele>333.0</ele><time>2026-04-26T10:23:25.064Z</time></trkpt><trkpt lat="43.3494879" lon="11.9258146"><ele>333.0</ele><time>2026-04-26T10:23:26.064Z</time></trkpt><trkpt lat="43.3493958" lon="11.9258512"><ele>333.4</ele><time>2026-04-26T10:23:27.064Z</time></trkpt><trkpt lat="43.3493045" lon="11.9258669"><ele>333.79999999999995</ele><time>2026-04-26T10:23:28.064Z</time></trkpt><trkpt lat="43.3492104" lon="11.9258681"><ele>334.2</ele><time>2026-04-26T10:23:29.064Z</time></trkpt><trkpt lat="43.349112" lon="11.9258451"><ele>334.6</ele><time>2026-04-26T10:23:30.064Z</time></trkpt><trkpt lat="43.3490146" lon="11.9257982"><ele>335.0</ele><time>2026-04-26T10:23:31.064Z</time></trkpt><trkpt lat="43.3489172" lon="11.9257389"><ele>332.0</ele><time>2026-04-26T10:23:32.064Z</time></trkpt><trkpt lat="43.3488313" lon="11.925657"><ele>329.0</ele><time>2026-04-26T10:23:33.064Z</time></trkpt><trkpt lat="43.3487571" lon="11.9255508"><ele>326.0</ele><time>2026-04-26T10:23:34.064Z</time></trkpt><trkpt lat="43.3486977" lon="11.9254128"><ele>323.0</ele><time>2026-04-26T10:23:35.064Z</time></trkpt><trkpt lat="43.3486468" lon="11.9252669"><ele>320.0</ele><time>2026-04-26T10:23:36.064Z</time></trkpt><trkpt lat="43.3486026" lon="11.9251257"><ele>323.2</ele><time>2026-04-26T10:23:37.064Z</time></trkpt><trkpt lat="43.348535" lon="11.925014"><ele>326.4</ele><time>2026-04-26T10:23:38.064Z</time></trkpt><trkpt lat="43.3484436" lon="11.9249531"><ele>329.6</ele><time>2026-04-26T10:23:39.064Z</time></trkpt><trkpt lat="43.3483318" lon="11.9249446"><ele>332.8</ele><time>2026-04-26T10:23:40.064Z</time></trkpt><trkpt lat="43.3482174" lon="11.9249599"><ele>336.0</ele><time>2026-04-26T10:23:41.064Z</time></trkpt><trkpt lat="43.3481017" lon="11.9249868"><ele>336.25</ele><time>2026-04-26T10:23:42.064Z</time></trkpt><trkpt lat="43.3479872" lon="11.9250291"><ele>336.5</ele><time>2026-04-26T10:23:43.064Z</time></trkpt><trkpt lat="43.3478808" lon="11.9250994"><ele>336.75</ele><time>2026-04-26T10:23:44.064Z</time></trkpt><trkpt lat="43.3477726" lon="11.9251946"><ele>337.0</ele><time>2026-04-26T10:23:45.064Z</time></trkpt><trkpt lat="43.3476776" lon="11.9253016"><ele>333.6</ele><time>2026-04-26T10:23:46.063Z</time></trkpt><trkpt lat="43.3475891" lon="11.9254055"><ele>330.20000000000005</ele><time>2026-04-26T10:23:47.064Z</time></trkpt><trkpt lat="43.3474969" lon="11.925485"><ele>326.8</ele><time>2026-04-26T10:23:48.064Z</time></trkpt><trkpt lat="43.3473875" lon="11.9255198"><ele>323.4</ele><time>2026-04-26T10:23:49.064Z</time></trkpt><trkpt lat="43.3472766" lon="11.9255093"><ele>320.0</ele><time>2026-04-26T10:23:50.064Z</time></trkpt><trkpt lat="43.3471638" lon="11.9254889"><ele>318.8</ele><time>2026-04-26T10:23:51.064Z</time></trkpt><trkpt lat="43.3470534" lon="11.9254606"><ele>317.6</ele><time>2026-04-26T10:23:52.064Z</time></trkpt><trkpt lat="43.3469456" lon="11.9254169"><ele>316.4</ele><time>2026-04-26T10:23:53.064Z</time></trkpt><trkpt lat="43.3468457" lon="11.9253626"><ele>315.2</ele><time>2026-04-26T10:23:54.064Z</time></trkpt><trkpt lat="43.3467457" lon="11.9252932"><ele>314.0</ele><time>2026-04-26T10:23:55.064Z</time></trkpt><trkpt lat="43.346646" lon="11.9252252"><ele>314.0</ele><time>2026-04-26T10:23:56.064Z</time></trkpt><trkpt lat="43.3465475" lon="11.9251639"><ele>314.0</ele><time>2026-04-26T10:23:57.064Z</time></trkpt><trkpt lat="43.3464505" lon="11.9250911"><ele>314.0</ele><time>2026-04-26T10:23:58.064Z</time></trkpt><trkpt lat="43.3463632" lon="11.9250229"><ele>314.0</ele><time>2026-04-26T10:23:59.064Z</time></trkpt><trkpt lat="43.3462741" lon="11.9249578"><ele>314.0</ele><time>2026-04-26T10:24:00.064Z</time></trkpt><trkpt lat="43.3461858" lon="11.9248942"><ele>314.59999999999997</ele><time>2026-04-26T10:24:01.064Z</time></trkpt><trkpt lat="43.3460982" lon="11.9248339"><ele>315.2</ele><time>2026-04-26T10:24:02.064Z</time></trkpt><trkpt lat="43.3460115" lon="11.9247808"><ele>315.79999999999995</ele><time>2026-04-26T10:24:03.064Z</time></trkpt><trkpt lat="43.3459312" lon="11.9247203"><ele>316.4</ele><time>2026-04-26T10:24:04.064Z</time></trkpt><trkpt lat="43.3458531" lon="11.924653"><ele>317.0</ele><time>2026-04-26T10:24:05.064Z</time></trkpt><trkpt lat="43.3457792" lon="11.9245789"><ele>317.0</ele><time>2026-04-26T10:24:06.064Z</time></trkpt><trkpt lat="43.3457147" lon="11.9245007"><ele>317.0</ele><time>2026-04-26T10:24:07.064Z</time></trkpt><trkpt lat="43.3456488" lon="11.9244211"><ele>317.0</ele><time>2026-04-26T10:24:08.064Z</time></trkpt><trkpt lat="43.3455854" lon="11.924341"><ele>317.0</ele><time>2026-04-26T10:24:09.064Z</time></trkpt><trkpt lat="43.3455219" lon="11.9242643"><ele>317.0</ele><time>2026-04-26T10:24:10.064Z</time></trkpt><trkpt lat="43.3454581" lon="11.9241913"><ele>317.0</ele><time>2026-04-26T10:24:11.064Z</time></trkpt><trkpt lat="43.3453969" lon="11.9241234"><ele>317.1666666666667</ele><time>2026-04-26T10:24:12.064Z</time></trkpt><trkpt lat="43.3453396" lon="11.9240561"><ele>317.33333333333337</ele><time>2026-04-26T10:24:13.064Z</time></trkpt><trkpt lat="43.3452791" lon="11.9239868"><ele>317.5</ele><time>2026-04-26T10:24:14.064Z</time></trkpt><trkpt lat="43.3452245" lon="11.9239163"><ele>317.6666666666667</ele><time>2026-04-26T10:24:15.064Z</time></trkpt><trkpt lat="43.3451684" lon="11.923841"><ele>317.8333333333333</ele><time>2026-04-26T10:24:16.064Z</time></trkpt><trkpt lat="43.3451109" lon="11.9237654"><ele>318.0</ele><time>2026-04-26T10:24:17.064Z</time></trkpt><trkpt lat="43.3450601" lon="11.9236865"><ele>318.0</ele><time>2026-04-26T10:24:18.064Z</time></trkpt><trkpt lat="43.3450109" lon="11.9236066"><ele>318.0</ele><time>2026-04-26T10:24:19.064Z</time></trkpt><trkpt lat="43.344962" lon="11.9235243"><ele>318.0</ele><time>2026-04-26T10:24:20.064Z</time></trkpt><trkpt lat="43.3449165" lon="11.9234491"><ele>318.0</ele><time>2026-04-26T10:24:21.063Z</time></trkpt><trkpt lat="43.3448728" lon="11.923376"><ele>318.0</ele><time>2026-04-26T10:24:22.063Z</time></trkpt><trkpt lat="43.3448309" lon="11.9233043"><ele>318.0</ele><time>2026-04-26T10:24:23.063Z</time></trkpt><trkpt lat="43.344792" lon="11.9232286"><ele>318.0</ele><time>2026-04-26T10:24:24.063Z</time></trkpt><trkpt lat="43.3447517" lon="11.923158"><ele>318.4</ele><time>2026-04-26T10:24:25.063Z</time></trkpt><trkpt lat="43.3446768" lon="11.9230322"><ele>318.8</ele><time>2026-04-26T10:24:27.063Z</time></trkpt><trkpt lat="43.3446094" lon="11.9229133"><ele>319.2</ele><time>2026-04-26T10:24:29.063Z</time></trkpt><trkpt lat="43.3445583" lon="11.9228167"><ele>319.6</ele><time>2026-04-26T10:24:31.063Z</time></trkpt><trkpt lat="43.3444381" lon="11.9228148"><ele>320.0</ele><time>2026-04-26T10:24:40.062Z</time></trkpt><trkpt lat="43.3443703" lon="11.9228969"><ele>320.0</ele><time>2026-04-26T10:24:42.063Z</time></trkpt><trkpt lat="43.3442928" lon="11.9229848"><ele>320.0</ele><time>2026-04-26T10:24:44.063Z</time></trkpt><trkpt lat="43.344223" lon="11.9230703"><ele>320.0</ele><time>2026-04-26T10:24:46.063Z</time></trkpt><trkpt lat="43.3441334" lon="11.9231343"><ele>320.0</ele><time>2026-04-26T10:24:48.063Z</time></trkpt><trkpt lat="43.3440332" lon="11.9231785"><ele>320.0</ele><time>2026-04-26T10:24:50.063Z</time></trkpt><trkpt lat="43.3439332" lon="11.923234"><ele>320.1666666666667</ele><time>2026-04-26T10:24:52.063Z</time></trkpt><trkpt lat="43.3438333" lon="11.9232796"><ele>320.33333333333337</ele><time>2026-04-26T10:24:54.063Z</time></trkpt><trkpt lat="43.3437853" lon="11.9233994"><ele>320.5</ele><time>2026-04-26T10:24:56.063Z</time></trkpt><trkpt lat="43.3437928" lon="11.9235163"><ele>320.6666666666667</ele><time>2026-04-26T10:24:58.063Z</time></trkpt><trkpt lat="43.3437974" lon="11.9236175"><ele>320.8333333333333</ele><time>2026-04-26T10:25:00.063Z</time></trkpt><trkpt lat="43.34381" lon="11.9237228"><ele>321.0</ele><time>2026-04-26T10:25:03.063Z</time></trkpt><trkpt lat="43.3438941" lon="11.9237246"><ele>318.5</ele><time>2026-04-26T10:25:06.063Z</time></trkpt><trkpt lat="43.3439463" lon="11.9236738"><ele>316.0</ele><time>2026-04-26T10:25:08.063Z</time></trkpt><trkpt lat="43.3440078" lon="11.9236222"><ele>313.5</ele><time>2026-04-26T10:25:10.063Z</time></trkpt><trkpt lat="43.3440656" lon="11.9235699"><ele>311.0</ele><time>2026-04-26T10:25:12.063Z</time></trkpt><trkpt lat="43.3441335" lon="11.9235177"><ele>308.5</ele><time>2026-04-26T10:25:14.063Z</time></trkpt><trkpt lat="43.3442402" lon="11.9235013"><ele>306.0</ele><time>2026-04-26T10:25:16.063Z</time></trkpt><trkpt lat="43.3443046" lon="11.9235144"><ele>306.0</ele><time>2026-04-26T10:25:17.063Z</time></trkpt><trkpt lat="43.3443716" lon="11.9235412"><ele>306.0</ele><time>2026-04-26T10:25:18.063Z</time></trkpt><trkpt lat="43.3444402" lon="11.9235778"><ele>306.0</ele><time>2026-04-26T10:25:19.063Z</time></trkpt><trkpt lat="43.3445027" lon="11.923627"><ele>306.0</ele><time>2026-04-26T10:25:20.063Z</time></trkpt><trkpt lat="43.3445513" lon="11.9237013"><ele>306.0</ele><time>2026-04-26T10:25:21.063Z</time></trkpt><trkpt lat="43.3445945" lon="11.9237886"><ele>306.0</ele><time>2026-04-26T10:25:22.063Z</time></trkpt><trkpt lat="43.3446038" lon="11.9239062"><ele>306.0</ele><time>2026-04-26T10:25:23.063Z</time></trkpt><trkpt lat="43.3445763" lon="11.9240188"><ele>306.0</ele><time>2026-04-26T10:25:24.062Z</time></trkpt><trkpt lat="43.3445141" lon="11.9241154"><ele>306.0</ele><time>2026-04-26T10:25:25.063Z</time></trkpt><trkpt lat="43.3444317" lon="11.9241924"><ele>306.0</ele><time>2026-04-26T10:25:26.063Z</time></trkpt><trkpt lat="43.3443217" lon="11.924231"><ele>306.0</ele><time>2026-04-26T10:25:27.063Z</time></trkpt><trkpt lat="43.3442151" lon="11.9242677"><ele>303.25</ele><time>2026-04-26T10:25:28.063Z</time></trkpt><trkpt lat="43.3441053" lon="11.9243088"><ele>300.5</ele><time>2026-04-26T10:25:29.063Z</time></trkpt><trkpt lat="43.3439902" lon="11.9243539"><ele>297.75</ele><time>2026-04-26T10:25:30.063Z</time></trkpt><trkpt lat="43.3438732" lon="11.9244079"><ele>295.0</ele><time>2026-04-26T10:25:31.063Z</time></trkpt><trkpt lat="43.3437537" lon="11.92446"><ele>293.75</ele><time>2026-04-26T10:25:32.063Z</time></trkpt><trkpt lat="43.3436313" lon="11.9245104"><ele>292.5</ele><time>2026-04-26T10:25:33.063Z</time></trkpt><trkpt lat="43.3435079" lon="11.9245517"><ele>291.25</ele><time>2026-04-26T10:25:34.063Z</time></trkpt><trkpt lat="43.3433834" lon="11.9245856"><ele>290.0</ele><time>2026-04-26T10:25:35.063Z</time></trkpt><trkpt lat="43.3432592" lon="11.9246197"><ele>290.0</ele><time>2026-04-26T10:25:36.063Z</time></trkpt><trkpt lat="43.3431389" lon="11.9246516"><ele>290.0</ele><time>2026-04-26T10:25:37.063Z</time></trkpt><trkpt lat="43.343022" lon="11.9246963"><ele>290.0</ele><time>2026-04-26T10:25:38.063Z</time></trkpt><trkpt lat="43.3429075" lon="11.9247443"><ele>290.0</ele><time>2026-04-26T10:25:39.063Z</time></trkpt><trkpt lat="43.3427957" lon="11.9248016"><ele>290.5</ele><time>2026-04-26T10:25:40.063Z</time></trkpt><trkpt lat="43.3426908" lon="11.9248719"><ele>291.0</ele><time>2026-04-26T10:25:41.062Z</time></trkpt><trkpt lat="43.3426046" lon="11.9249746"><ele>291.5</ele><time>2026-04-26T10:25:42.063Z</time></trkpt><trkpt lat="43.3425272" lon="11.9251054"><ele>292.0</ele><time>2026-04-26T10:25:43.063Z</time></trkpt><trkpt lat="43.3424627" lon="11.9252511"><ele>289.0</ele><time>2026-04-26T10:25:44.063Z</time></trkpt><trkpt lat="43.3424124" lon="11.9254142"><ele>286.0</ele><time>2026-04-26T10:25:45.063Z</time></trkpt><trkpt lat="43.3423675" lon="11.9255904"><ele>283.0</ele><time>2026-04-26T10:25:46.063Z</time></trkpt><trkpt lat="43.3423308" lon="11.925771"><ele>280.0</ele><time>2026-04-26T10:25:47.063Z</time></trkpt><trkpt lat="43.3422995" lon="11.9259374"><ele>279.25</ele><time>2026-04-26T10:25:48.063Z</time></trkpt><trkpt lat="43.3422621" lon="11.9260926"><ele>278.5</ele><time>2026-04-26T10:25:49.063Z</time></trkpt><trkpt lat="43.3422224" lon="11.9262475"><ele>277.75</ele><time>2026-04-26T10:25:50.063Z</time></trkpt><trkpt lat="43.3421872" lon="11.9263976"><ele>277.0</ele><time>2026-04-26T10:25:51.062Z</time></trkpt><trkpt lat="43.3421664" lon="11.9265488"><ele>277.0</ele><time>2026-04-26T10:25:52.063Z</time></trkpt><trkpt lat="43.3421671" lon="11.9266966"><ele>277.0</ele><time>2026-04-26T10:25:53.063Z</time></trkpt><trkpt lat="43.3421966" lon="11.9268298"><ele>277.0</ele><time>2026-04-26T10:25:54.063Z</time></trkpt><trkpt lat="43.3422442" lon="11.9269576"><ele>277.0</ele><time>2026-04-26T10:25:55.063Z</time></trkpt><trkpt lat="43.3423083" lon="11.9270734"><ele>277.0</ele><time>2026-04-26T10:25:56.063Z</time></trkpt><trkpt lat="43.3423795" lon="11.9271777"><ele>276.2</ele><time>2026-04-26T10:25:57.063Z</time></trkpt><trkpt lat="43.3424493" lon="11.9272898"><ele>275.4</ele><time>2026-04-26T10:25:58.063Z</time></trkpt><trkpt lat="43.3425245" lon="11.9273952"><ele>274.6</ele><time>2026-04-26T10:25:59.063Z</time></trkpt><trkpt lat="43.3425973" lon="11.927505"><ele>273.8</ele><time>2026-04-26T10:26:00.063Z</time></trkpt><trkpt lat="43.3426664" lon="11.9276139"><ele>273.0</ele><time>2026-04-26T10:26:01.063Z</time></trkpt><trkpt lat="43.3427371" lon="11.9277219"><ele>272.6</ele><time>2026-04-26T10:26:02.063Z</time></trkpt><trkpt lat="43.3428092" lon="11.9278308"><ele>272.20000000000005</ele><time>2026-04-26T10:26:03.063Z</time></trkpt><trkpt lat="43.3428793" lon="11.9279361"><ele>271.8</ele><time>2026-04-26T10:26:04.063Z</time></trkpt><trkpt lat="43.3429469" lon="11.9280422"><ele>271.40000000000003</ele><time>2026-04-26T10:26:05.063Z</time></trkpt><trkpt lat="43.343014" lon="11.9281515"><ele>271.0</ele><time>2026-04-26T10:26:06.063Z</time></trkpt><trkpt lat="43.3430772" lon="11.928257"><ele>271.0</ele><time>2026-04-26T10:26:07.063Z</time></trkpt><trkpt lat="43.3431379" lon="11.928361"><ele>271.0</ele><time>2026-04-26T10:26:08.063Z</time></trkpt><trkpt lat="43.3432006" lon="11.9284572"><ele>271.0</ele><time>2026-04-26T10:26:09.063Z</time></trkpt><trkpt lat="43.3432658" lon="11.9285476"><ele>271.0</ele><time>2026-04-26T10:26:10.063Z</time></trkpt><trkpt lat="43.3433271" lon="11.9286374"><ele>271.0</ele><time>2026-04-26T10:26:11.063Z</time></trkpt><trkpt lat="43.3433852" lon="11.9287275"><ele>270.66666666666663</ele><time>2026-04-26T10:26:12.063Z</time></trkpt><trkpt lat="43.343441" lon="11.9288125"><ele>270.3333333333333</ele><time>2026-04-26T10:26:13.062Z</time></trkpt><trkpt lat="43.3434942" lon="11.928897"><ele>270.0</ele><time>2026-04-26T10:26:14.063Z</time></trkpt><trkpt lat="43.3435485" lon="11.9289822"><ele>269.6666666666667</ele><time>2026-04-26T10:26:15.063Z</time></trkpt><trkpt lat="43.3436029" lon="11.929067"><ele>269.33333333333337</ele><time>2026-04-26T10:26:16.062Z</time></trkpt><trkpt lat="43.343654" lon="11.9291533"><ele>269.0</ele><time>2026-04-26T10:26:17.063Z</time></trkpt><trkpt lat="43.3437014" lon="11.9292428"><ele>269.0</ele><time>2026-04-26T10:26:18.063Z</time></trkpt><trkpt lat="43.343745" lon="11.9293263"><ele>269.0</ele><time>2026-04-26T10:26:19.063Z</time></trkpt><trkpt lat="43.3437873" lon="11.9294087"><ele>269.0</ele><time>2026-04-26T10:26:20.063Z</time></trkpt><trkpt lat="43.3438281" lon="11.9294853"><ele>269.0</ele><time>2026-04-26T10:26:21.063Z</time></trkpt><trkpt lat="43.3438674" lon="11.929561"><ele>269.0</ele><time>2026-04-26T10:26:22.063Z</time></trkpt><trkpt lat="43.3439048" lon="11.9296373"><ele>269.0</ele><time>2026-04-26T10:26:23.063Z</time></trkpt><trkpt lat="43.3439416" lon="11.9297111"><ele>269.0</ele><time>2026-04-26T10:26:24.063Z</time></trkpt><trkpt lat="43.3439751" lon="11.929786"><ele>269.4</ele><time>2026-04-26T10:26:25.063Z</time></trkpt><trkpt lat="43.3440066" lon="11.9298648"><ele>269.79999999999995</ele><time>2026-04-26T10:26:26.063Z</time></trkpt><trkpt lat="43.3440633" lon="11.9300168"><ele>270.20000000000005</ele><time>2026-04-26T10:26:28.063Z</time></trkpt><trkpt lat="43.3441195" lon="11.9301664"><ele>270.6</ele><time>2026-04-26T10:26:30.063Z</time></trkpt><trkpt lat="43.3441703" lon="11.9303196"><ele>271.0</ele><time>2026-04-26T10:26:32.063Z</time></trkpt><trkpt lat="43.3441831" lon="11.9304701"><ele>271.2</ele><time>2026-04-26T10:26:34.063Z</time></trkpt><trkpt lat="43.3441563" lon="11.93061"><ele>271.40000000000003</ele><time>2026-04-26T10:26:36.063Z</time></trkpt><trkpt lat="43.3441051" lon="11.9307364"><ele>271.6</ele><time>2026-04-26T10:26:38.063Z</time></trkpt><trkpt lat="43.34404" lon="11.9308498"><ele>271.8</ele><time>2026-04-26T10:26:40.062Z</time></trkpt><trkpt lat="43.3439661" lon="11.9309708"><ele>272.0</ele><time>2026-04-26T10:26:42.063Z</time></trkpt><trkpt lat="43.3439227" lon="11.9310418"><ele>272.0</ele><time>2026-04-26T10:26:43.063Z</time></trkpt><trkpt lat="43.3438839" lon="11.9311265"><ele>272.0</ele><time>2026-04-26T10:26:44.063Z</time></trkpt><trkpt lat="43.3438479" lon="11.931223"><ele>272.0</ele><time>2026-04-26T10:26:45.063Z</time></trkpt><trkpt lat="43.343825" lon="11.9313295"><ele>272.0</ele><time>2026-04-26T10:26:46.063Z</time></trkpt><trkpt lat="43.3438076" lon="11.9314388"><ele>272.0</ele><time>2026-04-26T10:26:47.063Z</time></trkpt><trkpt lat="43.3437908" lon="11.9315523"><ele>272.0</ele><time>2026-04-26T10:26:48.063Z</time></trkpt><trkpt lat="43.3437767" lon="11.931668"><ele>271.1666666666667</ele><time>2026-04-26T10:26:49.062Z</time></trkpt><trkpt lat="43.3437646" lon="11.9317846"><ele>270.33333333333337</ele><time>2026-04-26T10:26:50.063Z</time></trkpt><trkpt lat="43.3437521" lon="11.9318988"><ele>269.5</ele><time>2026-04-26T10:26:51.063Z</time></trkpt><trkpt lat="43.3437411" lon="11.9320137"><ele>268.6666666666667</ele><time>2026-04-26T10:26:52.063Z</time></trkpt><trkpt lat="43.3437301" lon="11.9321298"><ele>267.8333333333333</ele><time>2026-04-26T10:26:53.063Z</time></trkpt><trkpt lat="43.3437145" lon="11.9322495"><ele>267.0</ele><time>2026-04-26T10:26:54.063Z</time></trkpt><trkpt lat="43.343704" lon="11.9323671"><ele>267.0</ele><time>2026-04-26T10:26:55.063Z</time></trkpt><trkpt lat="43.3436954" lon="11.9324878"><ele>267.0</ele><time>2026-04-26T10:26:56.063Z</time></trkpt><trkpt lat="43.3436888" lon="11.9326034"><ele>267.0</ele><time>2026-04-26T10:26:57.063Z</time></trkpt><trkpt lat="43.3436916" lon="11.9327196"><ele>267.0</ele><time>2026-04-26T10:26:58.063Z</time></trkpt><trkpt lat="43.3436997" lon="11.9328301"><ele>267.0</ele><time>2026-04-26T10:26:59.063Z</time></trkpt><trkpt lat="43.3437104" lon="11.9329396"><ele>267.0</ele><time>2026-04-26T10:27:00.063Z</time></trkpt><trkpt lat="43.3437241" lon="11.9330495"><ele>266.8333333333333</ele><time>2026-04-26T10:27:01.063Z</time></trkpt><trkpt lat="43.3437355" lon="11.9331605"><ele>266.6666666666667</ele><time>2026-04-26T10:27:02.063Z</time></trkpt><trkpt lat="43.3437489" lon="11.9332742"><ele>266.5</ele><time>2026-04-26T10:27:03.063Z</time></trkpt><trkpt lat="43.3437626" lon="11.9333906"><ele>266.33333333333337</ele><time>2026-04-26T10:27:04.063Z</time></trkpt><trkpt lat="43.3437767" lon="11.933497"><ele>266.1666666666667</ele><time>2026-04-26T10:27:05.063Z</time></trkpt><trkpt lat="43.3437893" lon="11.9336078"><ele>266.0</ele><time>2026-04-26T10:27:06.063Z</time></trkpt><trkpt lat="43.3437951" lon="11.9337169"><ele>266.0</ele><time>2026-04-26T10:27:07.063Z</time></trkpt><trkpt lat="43.3437935" lon="11.933829"><ele>266.0</ele><time>2026-04-26T10:27:08.063Z</time></trkpt><trkpt lat="43.3437888" lon="11.9339409"><ele>266.0</ele><time>2026-04-26T10:27:09.063Z</time></trkpt><trkpt lat="43.3437807" lon="11.9340511"><ele>266.0</ele><time>2026-04-26T10:27:10.063Z</time></trkpt><trkpt lat="43.3437742" lon="11.9341597"><ele>266.0</ele><time>2026-04-26T10:27:11.063Z</time></trkpt><trkpt lat="43.3437619" lon="11.9342643"><ele>266.0</ele><time>2026-04-26T10:27:12.063Z</time></trkpt><trkpt lat="43.3437534" lon="11.9343691"><ele>266.14285714285717</ele><time>2026-04-26T10:27:13.063Z</time></trkpt><trkpt lat="43.3437405" lon="11.9344742"><ele>266.2857142857143</ele><time>2026-04-26T10:27:14.063Z</time></trkpt><trkpt lat="43.3437275" lon="11.9345769"><ele>266.42857142857144</ele><time>2026-04-26T10:27:15.063Z</time></trkpt><trkpt lat="43.3437206" lon="11.9346774"><ele>266.57142857142856</ele><time>2026-04-26T10:27:16.063Z</time></trkpt><trkpt lat="43.3437088" lon="11.9347737"><ele>266.7142857142857</ele><time>2026-04-26T10:27:17.063Z</time></trkpt><trkpt lat="43.3436918" lon="11.9348704"><ele>266.8571428571429</ele><time>2026-04-26T10:27:18.063Z</time></trkpt><trkpt lat="43.3436763" lon="11.9349654"><ele>267.0</ele><time>2026-04-26T10:27:19.063Z</time></trkpt><trkpt lat="43.34366" lon="11.9350623"><ele>267.5</ele><time>2026-04-26T10:27:20.063Z</time></trkpt><trkpt lat="43.343647" lon="11.9351587"><ele>268.0</ele><time>2026-04-26T10:27:21.063Z</time></trkpt><trkpt lat="43.3436358" lon="11.9352533"><ele>268.5</ele><time>2026-04-26T10:27:22.063Z</time></trkpt><trkpt lat="43.3436213" lon="11.9353495"><ele>269.0</ele><time>2026-04-26T10:27:23.063Z</time></trkpt><trkpt lat="43.3436084" lon="11.9354413"><ele>269.5</ele><time>2026-04-26T10:27:24.063Z</time></trkpt><trkpt lat="43.3435859" lon="11.9355275"><ele>270.0</ele><time>2026-04-26T10:27:25.063Z</time></trkpt><trkpt lat="43.3434891" lon="11.9356432"><ele>270.0</ele><time>2026-04-26T10:27:27.063Z</time></trkpt><trkpt lat="43.3434273" lon="11.9356792"><ele>270.0</ele><time>2026-04-26T10:27:28.063Z</time></trkpt><trkpt lat="43.3433614" lon="11.9357062"><ele>270.0</ele><time>2026-04-26T10:27:29.063Z</time></trkpt><trkpt lat="43.3432928" lon="11.9357284"><ele>270.0</ele><time>2026-04-26T10:27:30.063Z</time></trkpt><trkpt lat="43.3432173" lon="11.9357476"><ele>270.0</ele><time>2026-04-26T10:27:31.063Z</time></trkpt><trkpt lat="43.3431441" lon="11.9357669"><ele>270.0</ele><time>2026-04-26T10:27:32.063Z</time></trkpt><trkpt lat="43.3430742" lon="11.9357852"><ele>270.0</ele><time>2026-04-26T10:27:33.063Z</time></trkpt><trkpt lat="43.3430055" lon="11.9358013"><ele>269.2</ele><time>2026-04-26T10:27:34.063Z</time></trkpt><trkpt lat="43.3429383" lon="11.9357977"><ele>268.4</ele><time>2026-04-26T10:27:35.063Z</time></trkpt><trkpt lat="43.3428284" lon="11.9357465"><ele>267.6</ele><time>2026-04-26T10:27:37.063Z</time></trkpt><trkpt lat="43.3427342" lon="11.9357602"><ele>266.8</ele><time>2026-04-26T10:27:39.063Z</time></trkpt><trkpt lat="43.3426669" lon="11.9358537"><ele>266.0</ele><time>2026-04-26T10:27:41.063Z</time></trkpt><trkpt lat="43.3426168" lon="11.9359803"><ele>266.0</ele><time>2026-04-26T10:27:43.062Z</time></trkpt><trkpt lat="43.3426106" lon="11.9361294"><ele>266.0</ele><time>2026-04-26T10:27:45.063Z</time></trkpt><trkpt lat="43.3426276" lon="11.9362887"><ele>266.0</ele><time>2026-04-26T10:27:47.062Z</time></trkpt><trkpt lat="43.3426089" lon="11.9364441"><ele>266.0</ele><time>2026-04-26T10:27:49.063Z</time></trkpt><trkpt lat="43.3425893" lon="11.9365264"><ele>266.0</ele><time>2026-04-26T10:27:50.063Z</time></trkpt><trkpt lat="43.3425664" lon="11.9366147"><ele>266.0</ele><time>2026-04-26T10:27:51.063Z</time></trkpt><trkpt lat="43.342544" lon="11.936703"><ele>266.0</ele><time>2026-04-26T10:27:52.064Z</time></trkpt><trkpt lat="43.3425198" lon="11.9367878"><ele>266.0</ele><time>2026-04-26T10:27:53.063Z</time></trkpt><trkpt lat="43.3424912" lon="11.9368787"><ele>266.0</ele><time>2026-04-26T10:27:54.064Z</time></trkpt><trkpt lat="43.3424644" lon="11.9369698"><ele>266.0</ele><time>2026-04-26T10:27:55.064Z</time></trkpt><trkpt lat="43.3424377" lon="11.9370592"><ele>266.0</ele><time>2026-04-26T10:27:56.064Z</time></trkpt><trkpt lat="43.3424118" lon="11.9371502"><ele>266.0</ele><time>2026-04-26T10:27:57.064Z</time></trkpt><trkpt lat="43.3423839" lon="11.9372431"><ele>265.83333333333337</ele><time>2026-04-26T10:27:58.064Z</time></trkpt><trkpt lat="43.3423563" lon="11.9373385"><ele>265.6666666666667</ele><time>2026-04-26T10:27:59.064Z</time></trkpt><trkpt lat="43.3423316" lon="11.9374369"><ele>265.5</ele><time>2026-04-26T10:28:00.064Z</time></trkpt><trkpt lat="43.3423029" lon="11.9375378"><ele>265.3333333333333</ele><time>2026-04-26T10:28:01.064Z</time></trkpt><trkpt lat="43.3422776" lon="11.9376357"><ele>265.16666666666663</ele><time>2026-04-26T10:28:02.064Z</time></trkpt><trkpt lat="43.3422537" lon="11.9377368"><ele>265.0</ele><time>2026-04-26T10:28:03.064Z</time></trkpt><trkpt lat="43.3422322" lon="11.9378398"><ele>264.8333333333333</ele><time>2026-04-26T10:28:04.064Z</time></trkpt><trkpt lat="43.342216" lon="11.9379428"><ele>264.66666666666663</ele><time>2026-04-26T10:28:05.064Z</time></trkpt><trkpt lat="43.342201" lon="11.9380427"><ele>264.5</ele><time>2026-04-26T10:28:06.064Z</time></trkpt><trkpt lat="43.3421898" lon="11.9381452"><ele>264.3333333333333</ele><time>2026-04-26T10:28:07.064Z</time></trkpt><trkpt lat="43.3421771" lon="11.938246"><ele>264.1666666666667</ele><time>2026-04-26T10:28:08.064Z</time></trkpt><trkpt lat="43.3421665" lon="11.9383481"><ele>264.0</ele><time>2026-04-26T10:28:09.064Z</time></trkpt><trkpt lat="43.3421543" lon="11.9384494"><ele>263.85714285714283</ele><time>2026-04-26T10:28:10.064Z</time></trkpt><trkpt lat="43.3421396" lon="11.9385538"><ele>263.7142857142857</ele><time>2026-04-26T10:28:11.064Z</time></trkpt><trkpt lat="43.3421252" lon="11.9386545"><ele>263.57142857142856</ele><time>2026-04-26T10:28:12.064Z</time></trkpt><trkpt lat="43.3421048" lon="11.9387507"><ele>263.42857142857144</ele><time>2026-04-26T10:28:13.064Z</time></trkpt><trkpt lat="43.3420799" lon="11.9388485"><ele>263.2857142857143</ele><time>2026-04-26T10:28:14.064Z</time></trkpt><trkpt lat="43.3420562" lon="11.9389417"><ele>263.1428571428571</ele><time>2026-04-26T10:28:15.064Z</time></trkpt><trkpt lat="43.3420298" lon="11.9390323"><ele>263.0</ele><time>2026-04-26T10:28:16.064Z</time></trkpt><trkpt lat="43.3419968" lon="11.9391232"><ele>263.0</ele><time>2026-04-26T10:28:17.064Z</time></trkpt><trkpt lat="43.3419606" lon="11.93921"><ele>263.0</ele><time>2026-04-26T10:28:18.064Z</time></trkpt><trkpt lat="43.3419257" lon="11.9392958"><ele>263.0</ele><time>2026-04-26T10:28:19.064Z</time></trkpt><trkpt lat="43.3418852" lon="11.9393813"><ele>263.0</ele><time>2026-04-26T10:28:20.064Z</time></trkpt><trkpt lat="43.3418446" lon="11.9394579"><ele>263.0</ele><time>2026-04-26T10:28:21.064Z</time></trkpt><trkpt lat="43.3418011" lon="11.9395376"><ele>263.0</ele><time>2026-04-26T10:28:22.063Z</time></trkpt><trkpt lat="43.3417553" lon="11.9396119"><ele>263.0</ele><time>2026-04-26T10:28:23.064Z</time></trkpt><trkpt lat="43.3417122" lon="11.9396829"><ele>263.2857142857143</ele><time>2026-04-26T10:28:24.064Z</time></trkpt><trkpt lat="43.3416711" lon="11.9397579"><ele>263.57142857142856</ele><time>2026-04-26T10:28:25.064Z</time></trkpt><trkpt lat="43.3416352" lon="11.939832"><ele>263.85714285714283</ele><time>2026-04-26T10:28:26.064Z</time></trkpt><trkpt lat="43.3415996" lon="11.9399062"><ele>264.1428571428571</ele><time>2026-04-26T10:28:27.064Z</time></trkpt><trkpt lat="43.3415658" lon="11.9399844"><ele>264.42857142857144</ele><time>2026-04-26T10:28:28.064Z</time></trkpt><trkpt lat="43.3415353" lon="11.940069"><ele>264.71428571428567</ele><time>2026-04-26T10:28:29.064Z</time></trkpt><trkpt lat="43.34151" lon="11.9401597"><ele>265.0</ele><time>2026-04-26T10:28:30.064Z</time></trkpt><trkpt lat="43.3414867" lon="11.9402473"><ele>264.99999999999994</ele><time>2026-04-26T10:28:31.064Z</time></trkpt><trkpt lat="43.3414672" lon="11.9403362"><ele>265.0</ele><time>2026-04-26T10:28:32.064Z</time></trkpt><trkpt lat="43.341446" lon="11.9404279"><ele>265.0</ele><time>2026-04-26T10:28:33.064Z</time></trkpt><trkpt lat="43.341432" lon="11.9405209"><ele>265.0</ele><time>2026-04-26T10:28:34.064Z</time></trkpt><trkpt lat="43.3414223" lon="11.9406148"><ele>265.0</ele><time>2026-04-26T10:28:35.064Z</time></trkpt><trkpt lat="43.3414138" lon="11.9407071"><ele>264.99999999999994</ele><time>2026-04-26T10:28:36.064Z</time></trkpt><trkpt lat="43.3414108" lon="11.9408011"><ele>265.0</ele><time>2026-04-26T10:28:37.064Z</time></trkpt><trkpt lat="43.3414081" lon="11.9408949"><ele>264.85714285714283</ele><time>2026-04-26T10:28:38.064Z</time></trkpt><trkpt lat="43.3414061" lon="11.9409878"><ele>264.7142857142857</ele><time>2026-04-26T10:28:39.064Z</time></trkpt><trkpt lat="43.3413991" lon="11.9410815"><ele>264.57142857142856</ele><time>2026-04-26T10:28:40.064Z</time></trkpt><trkpt lat="43.3413956" lon="11.941176"><ele>264.42857142857144</ele><time>2026-04-26T10:28:41.064Z</time></trkpt><trkpt lat="43.3413903" lon="11.941273"><ele>264.2857142857143</ele><time>2026-04-26T10:28:42.063Z</time></trkpt><trkpt lat="43.3413848" lon="11.9413613"><ele>264.1428571428571</ele><time>2026-04-26T10:28:43.064Z</time></trkpt><trkpt lat="43.3413773" lon="11.9414517"><ele>264.0</ele><time>2026-04-26T10:28:44.064Z</time></trkpt><trkpt lat="43.3413615" lon="11.9416189"><ele>263.59999999999997</ele><time>2026-04-26T10:28:46.064Z</time></trkpt><trkpt lat="43.3413315" lon="11.9417735"><ele>263.2</ele><time>2026-04-26T10:28:48.063Z</time></trkpt><trkpt lat="43.3412845" lon="11.9419329"><ele>262.79999999999995</ele><time>2026-04-26T10:28:50.064Z</time></trkpt><trkpt lat="43.341256" lon="11.9420189"><ele>262.4</ele><time>2026-04-26T10:28:51.064Z</time></trkpt><trkpt lat="43.3412266" lon="11.94211"><ele>262.0</ele><time>2026-04-26T10:28:52.064Z</time></trkpt><trkpt lat="43.3411953" lon="11.9421996"><ele>262.0</ele><time>2026-04-26T10:28:53.063Z</time></trkpt><trkpt lat="43.3411669" lon="11.9422942"><ele>262.0</ele><time>2026-04-26T10:28:54.064Z</time></trkpt><trkpt lat="43.3411344" lon="11.9423883"><ele>262.0</ele><time>2026-04-26T10:28:55.064Z</time></trkpt><trkpt lat="43.3411035" lon="11.9424829"><ele>262.0</ele><time>2026-04-26T10:28:56.064Z</time></trkpt><trkpt lat="43.3410739" lon="11.9425764"><ele>262.0</ele><time>2026-04-26T10:28:57.064Z</time></trkpt><trkpt lat="43.341045" lon="11.9426733"><ele>262.0</ele><time>2026-04-26T10:28:58.064Z</time></trkpt><trkpt lat="43.3410158" lon="11.94277"><ele>262.14285714285717</ele><time>2026-04-26T10:28:59.064Z</time></trkpt><trkpt lat="43.3409928" lon="11.942861"><ele>262.28571428571433</ele><time>2026-04-26T10:29:00.064Z</time></trkpt><trkpt lat="43.3409653" lon="11.9429558"><ele>262.42857142857144</ele><time>2026-04-26T10:29:01.064Z</time></trkpt><trkpt lat="43.3409362" lon="11.9430465"><ele>262.57142857142856</ele><time>2026-04-26T10:29:02.064Z</time></trkpt><trkpt lat="43.3408997" lon="11.9431318"><ele>262.71428571428567</ele><time>2026-04-26T10:29:03.064Z</time></trkpt><trkpt lat="43.3408539" lon="11.9432162"><ele>262.85714285714283</ele><time>2026-04-26T10:29:04.064Z</time></trkpt><trkpt lat="43.3408039" lon="11.9432891"><ele>263.0</ele><time>2026-04-26T10:29:05.064Z</time></trkpt><trkpt lat="43.3407489" lon="11.9433476"><ele>262.85714285714283</ele><time>2026-04-26T10:29:06.064Z</time></trkpt><trkpt lat="43.3406873" lon="11.943401"><ele>262.71428571428567</ele><time>2026-04-26T10:29:07.064Z</time></trkpt><trkpt lat="43.3406248" lon="11.9434515"><ele>262.57142857142856</ele><time>2026-04-26T10:29:08.063Z</time></trkpt><trkpt lat="43.3405674" lon="11.9435008"><ele>262.42857142857144</ele><time>2026-04-26T10:29:09.064Z</time></trkpt><trkpt lat="43.340514" lon="11.9435561"><ele>262.28571428571433</ele><time>2026-04-26T10:29:10.063Z</time></trkpt><trkpt lat="43.340461" lon="11.9436136"><ele>262.14285714285717</ele><time>2026-04-26T10:29:11.064Z</time></trkpt><trkpt lat="43.3404128" lon="11.943679"><ele>262.0</ele><time>2026-04-26T10:29:12.064Z</time></trkpt><trkpt lat="43.3403724" lon="11.9437477"><ele>262.0</ele><time>2026-04-26T10:29:13.064Z</time></trkpt><trkpt lat="43.340309" lon="11.9438964"><ele>262.0</ele><time>2026-04-26T10:29:15.064Z</time></trkpt><trkpt lat="43.3402903" lon="11.9439802"><ele>262.0</ele><time>2026-04-26T10:29:16.064Z</time></trkpt><trkpt lat="43.3402626" lon="11.9441456"><ele>262.0</ele><time>2026-04-26T10:29:18.064Z</time></trkpt><trkpt lat="43.3402282" lon="11.9443041"><ele>262.0</ele><time>2026-04-26T10:29:20.063Z</time></trkpt><trkpt lat="43.3401978" lon="11.9444691"><ele>262.2</ele><time>2026-04-26T10:29:22.064Z</time></trkpt><trkpt lat="43.3401602" lon="11.9446316"><ele>262.4</ele><time>2026-04-26T10:29:24.064Z</time></trkpt><trkpt lat="43.3401149" lon="11.9447822"><ele>262.6</ele><time>2026-04-26T10:29:26.064Z</time></trkpt><trkpt lat="43.3401015" lon="11.944912"><ele>262.8</ele><time>2026-04-26T10:29:28.064Z</time></trkpt><trkpt lat="43.3401381" lon="11.945002"><ele>263.0</ele><time>2026-04-26T10:29:30.064Z</time></trkpt><trkpt lat="43.3401957" lon="11.9450628"><ele>263.0</ele><time>2026-04-26T10:29:33.063Z</time></trkpt><trkpt lat="43.3402413" lon="11.9451573"><ele>263.0</ele><time>2026-04-26T10:29:37.063Z</time></trkpt><trkpt lat="43.3402872" lon="11.9452269"><ele>263.0</ele><time>2026-04-26T10:29:40.063Z</time></trkpt><trkpt lat="43.3403531" lon="11.9453134"><ele>263.0</ele><time>2026-04-26T10:29:43.063Z</time></trkpt><trkpt lat="43.3403928" lon="11.9453971"><ele>263.0</ele><time>2026-04-26T10:29:45.063Z</time></trkpt><trkpt lat="43.3404401" lon="11.9454943"><ele>263.0</ele><time>2026-04-26T10:29:47.063Z</time></trkpt><trkpt lat="43.3405015" lon="11.9455938"><ele>263.2</ele><time>2026-04-26T10:29:49.063Z</time></trkpt><trkpt lat="43.3405624" lon="11.945698"><ele>263.4</ele><time>2026-04-26T10:29:51.063Z</time></trkpt><trkpt lat="43.3406214" lon="11.9458048"><ele>263.59999999999997</ele><time>2026-04-26T10:29:53.063Z</time></trkpt><trkpt lat="43.3406836" lon="11.9459179"><ele>263.8</ele><time>2026-04-26T10:29:55.063Z</time></trkpt><trkpt lat="43.3407443" lon="11.9460413"><ele>264.0</ele><time>2026-04-26T10:29:57.062Z</time></trkpt><trkpt lat="43.3408016" lon="11.9461656"><ele>264.25</ele><time>2026-04-26T10:29:59.062Z</time></trkpt><trkpt lat="43.3408605" lon="11.9462904"><ele>264.5</ele><time>2026-04-26T10:30:01.063Z</time></trkpt><trkpt lat="43.3409249" lon="11.9464254"><ele>264.75</ele><time>2026-04-26T10:30:03.063Z</time></trkpt><trkpt lat="43.3409938" lon="11.9465542"><ele>265.0</ele><time>2026-04-26T10:30:05.063Z</time></trkpt><trkpt lat="43.3410663" lon="11.9466751"><ele>265.0</ele><time>2026-04-26T10:30:07.063Z</time></trkpt><trkpt lat="43.3411404" lon="11.9467953"><ele>265.0</ele><time>2026-04-26T10:30:09.063Z</time></trkpt><trkpt lat="43.3412101" lon="11.9469096"><ele>265.0</ele><time>2026-04-26T10:30:11.063Z</time></trkpt><trkpt lat="43.3412766" lon="11.9470292"><ele>265.0</ele><time>2026-04-26T10:30:13.063Z</time></trkpt><trkpt lat="43.3413443" lon="11.947144"><ele>265.0</ele><time>2026-04-26T10:30:15.063Z</time></trkpt><trkpt lat="43.3414092" lon="11.9472505"><ele>265.0</ele><time>2026-04-26T10:30:17.063Z</time></trkpt><trkpt lat="43.3414734" lon="11.9473415"><ele>265.0</ele><time>2026-04-26T10:30:19.063Z</time></trkpt><trkpt lat="43.341528" lon="11.9474427"><ele>265.0</ele><time>2026-04-26T10:30:21.063Z</time></trkpt><trkpt lat="43.3415745" lon="11.9475686"><ele>265.0</ele><time>2026-04-26T10:30:23.063Z</time></trkpt><trkpt lat="43.3416346" lon="11.9477156"><ele>265.0</ele><time>2026-04-26T10:30:25.063Z</time></trkpt><trkpt lat="43.3416686" lon="11.947791"><ele>265.0</ele><time>2026-04-26T10:30:26.063Z</time></trkpt><trkpt lat="43.341741" lon="11.9479361"><ele>265.0</ele><time>2026-04-26T10:30:28.063Z</time></trkpt><trkpt lat="43.3417863" lon="11.9480083"><ele>265.0</ele><time>2026-04-26T10:30:29.063Z</time></trkpt><trkpt lat="43.3418659" lon="11.9481405"><ele>265.0</ele><time>2026-04-26T10:30:31.063Z</time></trkpt><trkpt lat="43.3419054" lon="11.9482089"><ele>265.0</ele><time>2026-04-26T10:30:32.063Z</time></trkpt><trkpt lat="43.3419783" lon="11.9483461"><ele>264.85714285714283</ele><time>2026-04-26T10:30:34.063Z</time></trkpt><trkpt lat="43.3420178" lon="11.9484137"><ele>264.7142857142857</ele><time>2026-04-26T10:30:35.063Z</time></trkpt><trkpt lat="43.3420961" lon="11.9485486"><ele>264.57142857142856</ele><time>2026-04-26T10:30:37.063Z</time></trkpt><trkpt lat="43.3421328" lon="11.9486201"><ele>264.42857142857144</ele><time>2026-04-26T10:30:38.063Z</time></trkpt><trkpt lat="43.3421692" lon="11.9486921"><ele>264.2857142857143</ele><time>2026-04-26T10:30:39.063Z</time></trkpt><trkpt lat="43.342211" lon="11.9487628"><ele>264.1428571428571</ele><time>2026-04-26T10:30:40.063Z</time></trkpt><trkpt lat="43.3422531" lon="11.9488341"><ele>264.0</ele><time>2026-04-26T10:30:41.063Z</time></trkpt><trkpt lat="43.3422924" lon="11.9489055"><ele>264.0</ele><time>2026-04-26T10:30:42.063Z</time></trkpt><trkpt lat="43.342332" lon="11.9489786"><ele>264.0</ele><time>2026-04-26T10:30:43.063Z</time></trkpt><trkpt lat="43.3423732" lon="11.9490493"><ele>264.0</ele><time>2026-04-26T10:30:44.063Z</time></trkpt><trkpt lat="43.3424157" lon="11.9491154"><ele>264.0</ele><time>2026-04-26T10:30:45.063Z</time></trkpt><trkpt lat="43.342457" lon="11.9491845"><ele>264.0</ele><time>2026-04-26T10:30:46.063Z</time></trkpt><trkpt lat="43.3425384" lon="11.9493132"><ele>264.0</ele><time>2026-04-26T10:30:48.062Z</time></trkpt><trkpt lat="43.3426109" lon="11.9494448"><ele>264.0</ele><time>2026-04-26T10:30:50.063Z</time></trkpt><trkpt lat="43.3426762" lon="11.9495715"><ele>264.0</ele><time>2026-04-26T10:30:52.063Z</time></trkpt><trkpt lat="43.34274" lon="11.9497044"><ele>264.0</ele><time>2026-04-26T10:30:54.062Z</time></trkpt><trkpt lat="43.3428153" lon="11.9498348"><ele>264.0</ele><time>2026-04-26T10:30:56.063Z</time></trkpt><trkpt lat="43.3428916" lon="11.9499588"><ele>264.0</ele><time>2026-04-26T10:30:58.063Z</time></trkpt><trkpt lat="43.3429609" lon="11.9500779"><ele>264.0</ele><time>2026-04-26T10:31:00.063Z</time></trkpt><trkpt lat="43.3430307" lon="11.9501987"><ele>264.0</ele><time>2026-04-26T10:31:02.063Z</time></trkpt><trkpt lat="43.3431079" lon="11.9503247"><ele>264.0</ele><time>2026-04-26T10:31:04.063Z</time></trkpt><trkpt lat="43.3431831" lon="11.9504504"><ele>264.4</ele><time>2026-04-26T10:31:06.063Z</time></trkpt><trkpt lat="43.3432523" lon="11.9505777"><ele>264.79999999999995</ele><time>2026-04-26T10:31:08.063Z</time></trkpt><trkpt lat="43.3433258" lon="11.9506953"><ele>265.20000000000005</ele><time>2026-04-26T10:31:10.063Z</time></trkpt><trkpt lat="43.3433999" lon="11.9507925"><ele>265.6</ele><time>2026-04-26T10:31:12.063Z</time></trkpt><trkpt lat="43.343489" lon="11.9508626"><ele>266.0</ele><time>2026-04-26T10:31:14.063Z</time></trkpt><trkpt lat="43.3435533" lon="11.9509592"><ele>266.2</ele><time>2026-04-26T10:31:16.063Z</time></trkpt><trkpt lat="43.3436142" lon="11.9510745"><ele>266.40000000000003</ele><time>2026-04-26T10:31:18.063Z</time></trkpt><trkpt lat="43.3436728" lon="11.9511974"><ele>266.6</ele><time>2026-04-26T10:31:20.063Z</time></trkpt><trkpt lat="43.3437346" lon="11.9513224"><ele>266.8</ele><time>2026-04-26T10:31:22.063Z</time></trkpt><trkpt lat="43.343797" lon="11.9514379"><ele>267.0</ele><time>2026-04-26T10:31:24.063Z</time></trkpt><trkpt lat="43.3438573" lon="11.9515629"><ele>267.0</ele><time>2026-04-26T10:31:26.063Z</time></trkpt><trkpt lat="43.3439159" lon="11.9516867"><ele>267.0</ele><time>2026-04-26T10:31:28.063Z</time></trkpt><trkpt lat="43.3439709" lon="11.9518105"><ele>267.0</ele><time>2026-04-26T10:31:30.062Z</time></trkpt><trkpt lat="43.3440239" lon="11.9519497"><ele>267.0</ele><time>2026-04-26T10:31:32.063Z</time></trkpt><trkpt lat="43.3440661" lon="11.9520885"><ele>267.0</ele><time>2026-04-26T10:31:34.063Z</time></trkpt><trkpt lat="43.344106" lon="11.9522332"><ele>266.75</ele><time>2026-04-26T10:31:36.063Z</time></trkpt><trkpt lat="43.3441409" lon="11.952376"><ele>266.5</ele><time>2026-04-26T10:31:38.062Z</time></trkpt><trkpt lat="43.3441765" lon="11.9525276"><ele>266.25</ele><time>2026-04-26T10:31:40.063Z</time></trkpt><trkpt lat="43.3442124" lon="11.9526781"><ele>266.0</ele><time>2026-04-26T10:31:42.063Z</time></trkpt><trkpt lat="43.344254" lon="11.952831"><ele>266.0</ele><time>2026-04-26T10:31:44.063Z</time></trkpt><trkpt lat="43.3442967" lon="11.9529761"><ele>266.0</ele><time>2026-04-26T10:31:46.063Z</time></trkpt><trkpt lat="43.3443437" lon="11.9531134"><ele>266.0</ele><time>2026-04-26T10:31:48.063Z</time></trkpt><trkpt lat="43.3443829" lon="11.9532574"><ele>266.0</ele><time>2026-04-26T10:31:50.062Z</time></trkpt><trkpt lat="43.3444129" lon="11.9534081"><ele>266.25</ele><time>2026-04-26T10:31:52.063Z</time></trkpt><trkpt lat="43.3444488" lon="11.9535511"><ele>266.5</ele><time>2026-04-26T10:31:54.063Z</time></trkpt><trkpt lat="43.3444822" lon="11.9536959"><ele>266.75</ele><time>2026-04-26T10:31:56.062Z</time></trkpt><trkpt lat="43.344511" lon="11.9538463"><ele>267.0</ele><time>2026-04-26T10:31:58.063Z</time></trkpt><trkpt lat="43.344542" lon="11.954"><ele>267.0</ele><time>2026-04-26T10:32:00.063Z</time></trkpt><trkpt lat="43.3445623" lon="11.9541556"><ele>267.0</ele><time>2026-04-26T10:32:02.063Z</time></trkpt><trkpt lat="43.3445978" lon="11.9542949"><ele>267.0</ele><time>2026-04-26T10:32:04.062Z</time></trkpt><trkpt lat="43.3446381" lon="11.9544375"><ele>267.0</ele><time>2026-04-26T10:32:06.063Z</time></trkpt><trkpt lat="43.3446669" lon="11.9545815"><ele>267.0</ele><time>2026-04-26T10:32:08.063Z</time></trkpt><trkpt lat="43.3447022" lon="11.9547208"><ele>267.4</ele><time>2026-04-26T10:32:10.063Z</time></trkpt><trkpt lat="43.3447393" lon="11.9548631"><ele>267.79999999999995</ele><time>2026-04-26T10:32:12.063Z</time></trkpt><trkpt lat="43.3447691" lon="11.9550097"><ele>268.2</ele><time>2026-04-26T10:32:14.063Z</time></trkpt><trkpt lat="43.3448031" lon="11.9551518"><ele>268.59999999999997</ele><time>2026-04-26T10:32:16.063Z</time></trkpt><trkpt lat="43.3448292" lon="11.9552958"><ele>269.0</ele><time>2026-04-26T10:32:18.063Z</time></trkpt><trkpt lat="43.3448708" lon="11.9554345"><ele>269.0</ele><time>2026-04-26T10:32:20.063Z</time></trkpt><trkpt lat="43.3449109" lon="11.9555661"><ele>269.0</ele><time>2026-04-26T10:32:22.063Z</time></trkpt><trkpt lat="43.3449529" lon="11.9556983"><ele>269.0</ele><time>2026-04-26T10:32:24.063Z</time></trkpt><trkpt lat="43.3449832" lon="11.9558301"><ele>269.0</ele><time>2026-04-26T10:32:26.063Z</time></trkpt><trkpt lat="43.345012" lon="11.9559676"><ele>269.0</ele><time>2026-04-26T10:32:28.063Z</time></trkpt><trkpt lat="43.3450456" lon="11.9561054"><ele>269.2</ele><time>2026-04-26T10:32:30.063Z</time></trkpt><trkpt lat="43.3450809" lon="11.9562395"><ele>269.4</ele><time>2026-04-26T10:32:32.063Z</time></trkpt><trkpt lat="43.3451118" lon="11.9563814"><ele>269.6</ele><time>2026-04-26T10:32:34.063Z</time></trkpt><trkpt lat="43.3451474" lon="11.9565151"><ele>269.8</ele><time>2026-04-26T10:32:36.062Z</time></trkpt><trkpt lat="43.345187" lon="11.9566536"><ele>270.0</ele><time>2026-04-26T10:32:38.062Z</time></trkpt><trkpt lat="43.3452178" lon="11.9567902"><ele>270.0</ele><time>2026-04-26T10:32:40.063Z</time></trkpt><trkpt lat="43.3452479" lon="11.9569175"><ele>270.0</ele><time>2026-04-26T10:32:42.063Z</time></trkpt><trkpt lat="43.3452772" lon="11.9570476"><ele>270.0</ele><time>2026-04-26T10:32:44.063Z</time></trkpt><trkpt lat="43.3453102" lon="11.9571791"><ele>270.0</ele><time>2026-04-26T10:32:46.063Z</time></trkpt><trkpt lat="43.3453398" lon="11.9573101"><ele>270.0</ele><time>2026-04-26T10:32:48.063Z</time></trkpt><trkpt lat="43.3453715" lon="11.9574448"><ele>270.0</ele><time>2026-04-26T10:32:50.063Z</time></trkpt><trkpt lat="43.3454042" lon="11.9575789"><ele>270.0</ele><time>2026-04-26T10:32:52.063Z</time></trkpt><trkpt lat="43.345443" lon="11.9577147"><ele>270.0</ele><time>2026-04-26T10:32:54.063Z</time></trkpt><trkpt lat="43.3454799" lon="11.9578485"><ele>270.0</ele><time>2026-04-26T10:32:56.063Z</time></trkpt><trkpt lat="43.3455158" lon="11.957983"><ele>270.0</ele><time>2026-04-26T10:32:58.063Z</time></trkpt><trkpt lat="43.3455483" lon="11.9581284"><ele>270.0</ele><time>2026-04-26T10:33:00.063Z</time></trkpt><trkpt lat="43.345581" lon="11.9582689"><ele>270.0</ele><time>2026-04-26T10:33:02.063Z</time></trkpt><trkpt lat="43.3456148" lon="11.9584036"><ele>270.0</ele><time>2026-04-26T10:33:04.063Z</time></trkpt><trkpt lat="43.3456468" lon="11.9585428"><ele>270.0</ele><time>2026-04-26T10:33:06.063Z</time></trkpt><trkpt lat="43.345679" lon="11.9586814"><ele>270.0</ele><time>2026-04-26T10:33:08.063Z</time></trkpt><trkpt lat="43.345718" lon="11.9588207"><ele>270.0</ele><time>2026-04-26T10:33:10.063Z</time></trkpt><trkpt lat="43.3457621" lon="11.9589637"><ele>270.0</ele><time>2026-04-26T10:33:12.063Z</time></trkpt><trkpt lat="43.3457982" lon="11.9591015"><ele>270.0</ele><time>2026-04-26T10:33:14.063Z</time></trkpt><trkpt lat="43.3458308" lon="11.9592419"><ele>270.0</ele><time>2026-04-26T10:33:16.063Z</time></trkpt><trkpt lat="43.3458713" lon="11.9593755"><ele>270.0</ele><time>2026-04-26T10:33:18.063Z</time></trkpt><trkpt lat="43.3459076" lon="11.959509"><ele>270.1666666666667</ele><time>2026-04-26T10:33:20.063Z</time></trkpt><trkpt lat="43.3459389" lon="11.9596385"><ele>270.3333333333333</ele><time>2026-04-26T10:33:22.063Z</time></trkpt><trkpt lat="43.345971" lon="11.9597684"><ele>270.5</ele><time>2026-04-26T10:33:24.063Z</time></trkpt><trkpt lat="43.3460135" lon="11.9598816"><ele>270.66666666666663</ele><time>2026-04-26T10:33:26.063Z</time></trkpt><trkpt lat="43.3460501" lon="11.9599813"><ele>270.8333333333333</ele><time>2026-04-26T10:33:28.063Z</time></trkpt><trkpt lat="43.3460757" lon="11.9600721"><ele>271.0</ele><time>2026-04-26T10:33:31.062Z</time></trkpt><trkpt lat="43.3460974" lon="11.9602539"><ele>271.3333333333333</ele><time>2026-04-26T10:34:03.064Z</time></trkpt><trkpt lat="43.3460506" lon="11.9603303"><ele>271.66666666666663</ele><time>2026-04-26T10:34:09.064Z</time></trkpt><trkpt lat="43.3459575" lon="11.9603318"><ele>272.0</ele><time>2026-04-26T10:34:35.064Z</time></trkpt><trkpt lat="43.345889" lon="11.9603443"><ele>272.3333333333333</ele><time>2026-04-26T10:34:38.064Z</time></trkpt><trkpt lat="43.3458444" lon="11.9604166"><ele>272.6666666666667</ele><time>2026-04-26T10:34:41.064Z</time></trkpt><trkpt lat="43.3458723" lon="11.960522"><ele>273.0</ele><time>2026-04-26T10:34:45.064Z</time></trkpt><trkpt lat="43.3459177" lon="11.9605973"><ele>273.0</ele><time>2026-04-26T10:34:48.064Z</time></trkpt><trkpt lat="43.3459589" lon="11.9607005"><ele>273.0</ele><time>2026-04-26T10:34:52.064Z</time></trkpt><trkpt lat="43.3460093" lon="11.9607831"><ele>273.0</ele><time>2026-04-26T10:34:55.064Z</time></trkpt><trkpt lat="43.3460552" lon="11.9608692"><ele>273.0</ele><time>2026-04-26T10:34:58.064Z</time></trkpt><trkpt lat="43.3461099" lon="11.9609601"><ele>273.0</ele><time>2026-04-26T10:35:01.064Z</time></trkpt><trkpt lat="43.3461513" lon="11.9610303"><ele>273.0</ele><time>2026-04-26T10:35:03.064Z</time></trkpt><trkpt lat="43.3462081" lon="11.9611342"><ele>273.0</ele><time>2026-04-26T10:35:06.064Z</time></trkpt><trkpt lat="43.3462493" lon="11.9612092"><ele>273.0</ele><time>2026-04-26T10:35:08.064Z</time></trkpt><trkpt lat="43.3462873" lon="11.9612813"><ele>273.0</ele><time>2026-04-26T10:35:10.063Z</time></trkpt><trkpt lat="43.3463277" lon="11.9613534"><ele>273.0</ele><time>2026-04-26T10:35:12.064Z</time></trkpt><trkpt lat="43.3463733" lon="11.9614317"><ele>273.0</ele><time>2026-04-26T10:35:14.064Z</time></trkpt><trkpt lat="43.3464162" lon="11.9615045"><ele>273.0</ele><time>2026-04-26T10:35:16.063Z</time></trkpt><trkpt lat="43.346456" lon="11.9615969"><ele>273.0</ele><time>2026-04-26T10:35:18.064Z</time></trkpt><trkpt lat="43.3464996" lon="11.9616882"><ele>272.8333333333333</ele><time>2026-04-26T10:35:20.064Z</time></trkpt><trkpt lat="43.3465508" lon="11.9617856"><ele>272.6666666666667</ele><time>2026-04-26T10:35:22.064Z</time></trkpt><trkpt lat="43.3465989" lon="11.9618809"><ele>272.5</ele><time>2026-04-26T10:35:24.064Z</time></trkpt><trkpt lat="43.3466486" lon="11.9619811"><ele>272.33333333333337</ele><time>2026-04-26T10:35:26.064Z</time></trkpt><trkpt lat="43.346695" lon="11.9620817"><ele>272.1666666666667</ele><time>2026-04-26T10:35:28.063Z</time></trkpt><trkpt lat="43.3467388" lon="11.9621829"><ele>272.0</ele><time>2026-04-26T10:35:30.063Z</time></trkpt><trkpt lat="43.3467862" lon="11.9622956"><ele>272.0</ele><time>2026-04-26T10:35:32.064Z</time></trkpt><trkpt lat="43.3468357" lon="11.9624007"><ele>272.0</ele><time>2026-04-26T10:35:34.063Z</time></trkpt><trkpt lat="43.3468838" lon="11.9625039"><ele>272.0</ele><time>2026-04-26T10:35:36.062Z</time></trkpt><trkpt lat="43.3469325" lon="11.9626101"><ele>272.0</ele><time>2026-04-26T10:35:38.063Z</time></trkpt><trkpt lat="43.3469806" lon="11.962714"><ele>272.0</ele><time>2026-04-26T10:35:40.063Z</time></trkpt><trkpt lat="43.3470262" lon="11.9628077"><ele>272.0</ele><time>2026-04-26T10:35:42.063Z</time></trkpt><trkpt lat="43.3470698" lon="11.9629095"><ele>271.8</ele><time>2026-04-26T10:35:44.063Z</time></trkpt><trkpt lat="43.3471197" lon="11.9630133"><ele>271.6</ele><time>2026-04-26T10:35:46.063Z</time></trkpt><trkpt lat="43.3471685" lon="11.963126"><ele>271.40000000000003</ele><time>2026-04-26T10:35:48.063Z</time></trkpt><trkpt lat="43.3472233" lon="11.963233"><ele>271.2</ele><time>2026-04-26T10:35:50.063Z</time></trkpt><trkpt lat="43.3472729" lon="11.9633439"><ele>271.0</ele><time>2026-04-26T10:35:52.063Z</time></trkpt><trkpt lat="43.3473219" lon="11.9634424"><ele>271.5</ele><time>2026-04-26T10:35:54.063Z</time></trkpt><trkpt lat="43.3473701" lon="11.963536"><ele>272.0</ele><time>2026-04-26T10:35:56.063Z</time></trkpt><trkpt lat="43.3474142" lon="11.9636377"><ele>272.5</ele><time>2026-04-26T10:35:58.063Z</time></trkpt><trkpt lat="43.347454" lon="11.9637375"><ele>273.0</ele><time>2026-04-26T10:36:00.063Z</time></trkpt><trkpt lat="43.3474995" lon="11.9638399"><ele>273.5</ele><time>2026-04-26T10:36:02.063Z</time></trkpt><trkpt lat="43.3475492" lon="11.9639297"><ele>274.0</ele><time>2026-04-26T10:36:04.063Z</time></trkpt><trkpt lat="43.3475958" lon="11.9640237"><ele>274.0</ele><time>2026-04-26T10:36:06.063Z</time></trkpt><trkpt lat="43.3476424" lon="11.9641185"><ele>274.0</ele><time>2026-04-26T10:36:08.063Z</time></trkpt><trkpt lat="43.3476928" lon="11.9642105"><ele>274.0</ele><time>2026-04-26T10:36:10.063Z</time></trkpt><trkpt lat="43.347738" lon="11.9643042"><ele>274.0</ele><time>2026-04-26T10:36:12.063Z</time></trkpt><trkpt lat="43.3477885" lon="11.964394"><ele>274.0</ele><time>2026-04-26T10:36:14.063Z</time></trkpt><trkpt lat="43.3478374" lon="11.9644858"><ele>274.0</ele><time>2026-04-26T10:36:16.063Z</time></trkpt><trkpt lat="43.3478877" lon="11.9645781"><ele>274.0</ele><time>2026-04-26T10:36:18.063Z</time></trkpt><trkpt lat="43.3479432" lon="11.9646728"><ele>274.0</ele><time>2026-04-26T10:36:20.063Z</time></trkpt><trkpt lat="43.348002" lon="11.964766"><ele>274.0</ele><time>2026-04-26T10:36:22.063Z</time></trkpt><trkpt lat="43.3480597" lon="11.9648644"><ele>274.0</ele><time>2026-04-26T10:36:24.063Z</time></trkpt><trkpt lat="43.3481164" lon="11.964967"><ele>274.0</ele><time>2026-04-26T10:36:26.063Z</time></trkpt><trkpt lat="43.3481732" lon="11.965069"><ele>274.59999999999997</ele><time>2026-04-26T10:36:28.063Z</time></trkpt><trkpt lat="43.3482288" lon="11.9651705"><ele>275.2</ele><time>2026-04-26T10:36:30.062Z</time></trkpt><trkpt lat="43.3482812" lon="11.9652729"><ele>275.79999999999995</ele><time>2026-04-26T10:36:32.063Z</time></trkpt><trkpt lat="43.3483318" lon="11.9653791"><ele>276.4</ele><time>2026-04-26T10:36:34.063Z</time></trkpt><trkpt lat="43.3483813" lon="11.9654845"><ele>277.0</ele><time>2026-04-26T10:36:36.063Z</time></trkpt><trkpt lat="43.3484269" lon="11.9655924"><ele>277.0</ele><time>2026-04-26T10:36:38.063Z</time></trkpt><trkpt lat="43.3484742" lon="11.965698"><ele>277.0</ele><time>2026-04-26T10:36:40.063Z</time></trkpt><trkpt lat="43.3485229" lon="11.9658072"><ele>277.0</ele><time>2026-04-26T10:36:42.062Z</time></trkpt><trkpt lat="43.3485722" lon="11.9659239"><ele>277.0</ele><time>2026-04-26T10:36:44.063Z</time></trkpt><trkpt lat="43.3486201" lon="11.9660366"><ele>277.0</ele><time>2026-04-26T10:36:46.063Z</time></trkpt><trkpt lat="43.3486676" lon="11.9661475"><ele>276.8</ele><time>2026-04-26T10:36:48.062Z</time></trkpt><trkpt lat="43.3487214" lon="11.9662553"><ele>276.6</ele><time>2026-04-26T10:36:50.063Z</time></trkpt><trkpt lat="43.348772" lon="11.9663648"><ele>276.40000000000003</ele><time>2026-04-26T10:36:52.063Z</time></trkpt><trkpt lat="43.348814" lon="11.9664707"><ele>276.2</ele><time>2026-04-26T10:36:54.063Z</time></trkpt><trkpt lat="43.3488649" lon="11.966582"><ele>276.0</ele><time>2026-04-26T10:36:56.063Z</time></trkpt><trkpt lat="43.3489121" lon="11.9666912"><ele>276.5</ele><time>2026-04-26T10:36:58.063Z</time></trkpt><trkpt lat="43.3489614" lon="11.9667997"><ele>277.0</ele><time>2026-04-26T10:37:00.063Z</time></trkpt><trkpt lat="43.3490048" lon="11.9669068"><ele>277.5</ele><time>2026-04-26T10:37:02.063Z</time></trkpt><trkpt lat="43.3490498" lon="11.9670138"><ele>278.0</ele><time>2026-04-26T10:37:04.063Z</time></trkpt><trkpt lat="43.3490969" lon="11.9671159"><ele>278.5</ele><time>2026-04-26T10:37:06.063Z</time></trkpt><trkpt lat="43.3491415" lon="11.9672206"><ele>279.0</ele><time>2026-04-26T10:37:08.062Z</time></trkpt><trkpt lat="43.349191" lon="11.9673126"><ele>279.0</ele><time>2026-04-26T10:37:10.063Z</time></trkpt><trkpt lat="43.3492389" lon="11.9673846"><ele>279.0</ele><time>2026-04-26T10:37:12.062Z</time></trkpt><trkpt lat="43.3492798" lon="11.9674573"><ele>279.0</ele><time>2026-04-26T10:37:14.063Z</time></trkpt><trkpt lat="43.3493045" lon="11.9675647"><ele>279.0</ele><time>2026-04-26T10:37:16.062Z</time></trkpt><trkpt lat="43.3493293" lon="11.9676819"><ele>279.0</ele><time>2026-04-26T10:37:18.063Z</time></trkpt><trkpt lat="43.3493551" lon="11.9677989"><ele>279.0</ele><time>2026-04-26T10:37:20.063Z</time></trkpt><trkpt lat="43.3493749" lon="11.9679185"><ele>278.8</ele><time>2026-04-26T10:37:22.063Z</time></trkpt><trkpt lat="43.3493899" lon="11.9680389"><ele>278.59999999999997</ele><time>2026-04-26T10:37:24.062Z</time></trkpt><trkpt lat="43.3494054" lon="11.9681606"><ele>278.4</ele><time>2026-04-26T10:37:26.063Z</time></trkpt><trkpt lat="43.3494217" lon="11.9682828"><ele>278.2</ele><time>2026-04-26T10:37:28.062Z</time></trkpt><trkpt lat="43.3494397" lon="11.9684088"><ele>278.0</ele><time>2026-04-26T10:37:30.063Z</time></trkpt><trkpt lat="43.3494461" lon="11.9685303"><ele>278.0</ele><time>2026-04-26T10:37:32.063Z</time></trkpt><trkpt lat="43.3494633" lon="11.9686486"><ele>278.0</ele><time>2026-04-26T10:37:34.063Z</time></trkpt><trkpt lat="43.349485" lon="11.9687652"><ele>278.0</ele><time>2026-04-26T10:37:36.063Z</time></trkpt><trkpt lat="43.3495062" lon="11.9688854"><ele>278.0</ele><time>2026-04-26T10:37:38.063Z</time></trkpt><trkpt lat="43.3495201" lon="11.9690069"><ele>278.0</ele><time>2026-04-26T10:37:40.063Z</time></trkpt><trkpt lat="43.349535" lon="11.9691342"><ele>278.0</ele><time>2026-04-26T10:37:42.063Z</time></trkpt><trkpt lat="43.3495567" lon="11.9692539"><ele>278.0</ele><time>2026-04-26T10:37:44.063Z</time></trkpt><trkpt lat="43.3495789" lon="11.9693774"><ele>278.0</ele><time>2026-04-26T10:37:46.063Z</time></trkpt><trkpt lat="43.3495849" lon="11.9695004"><ele>278.0</ele><time>2026-04-26T10:37:48.063Z</time></trkpt><trkpt lat="43.3496041" lon="11.969626"><ele>278.0</ele><time>2026-04-26T10:37:50.062Z</time></trkpt><trkpt lat="43.34962" lon="11.9697453"><ele>278.0</ele><time>2026-04-26T10:37:52.063Z</time></trkpt><trkpt lat="43.3496372" lon="11.9698685"><ele>278.0</ele><time>2026-04-26T10:37:54.063Z</time></trkpt><trkpt lat="43.3496463" lon="11.969988"><ele>278.0</ele><time>2026-04-26T10:37:56.063Z</time></trkpt><trkpt lat="43.3496547" lon="11.9701059"><ele>278.0</ele><time>2026-04-26T10:37:58.063Z</time></trkpt><trkpt lat="43.3496574" lon="11.9702287"><ele>278.0</ele><time>2026-04-26T10:38:00.063Z</time></trkpt><trkpt lat="43.3496616" lon="11.9703501"><ele>278.0</ele><time>2026-04-26T10:38:02.063Z</time></trkpt><trkpt lat="43.349666" lon="11.9704716"><ele>278.0</ele><time>2026-04-26T10:38:04.063Z</time></trkpt><trkpt lat="43.3496752" lon="11.970595"><ele>277.8</ele><time>2026-04-26T10:38:06.063Z</time></trkpt><trkpt lat="43.349681" lon="11.97072"><ele>277.6</ele><time>2026-04-26T10:38:08.063Z</time></trkpt><trkpt lat="43.349686" lon="11.9708433"><ele>277.4</ele><time>2026-04-26T10:38:10.063Z</time></trkpt><trkpt lat="43.3496897" lon="11.9709609"><ele>277.2</ele><time>2026-04-26T10:38:12.063Z</time></trkpt><trkpt lat="43.3496907" lon="11.9710893"><ele>277.0</ele><time>2026-04-26T10:38:14.063Z</time></trkpt><trkpt lat="43.349697" lon="11.9712161"><ele>277.4</ele><time>2026-04-26T10:38:16.063Z</time></trkpt><trkpt lat="43.3496978" lon="11.9713443"><ele>277.79999999999995</ele><time>2026-04-26T10:38:18.063Z</time></trkpt><trkpt lat="43.3497028" lon="11.9714724"><ele>278.2</ele><time>2026-04-26T10:38:20.063Z</time></trkpt><trkpt lat="43.3497057" lon="11.9716043"><ele>278.59999999999997</ele><time>2026-04-26T10:38:22.063Z</time></trkpt><trkpt lat="43.3497097" lon="11.9717363"><ele>279.0</ele><time>2026-04-26T10:38:24.063Z</time></trkpt><trkpt lat="43.3497137" lon="11.971876"><ele>279.4</ele><time>2026-04-26T10:38:26.063Z</time></trkpt><trkpt lat="43.3497176" lon="11.972005"><ele>279.79999999999995</ele><time>2026-04-26T10:38:28.063Z</time></trkpt><trkpt lat="43.3497217" lon="11.9721352"><ele>280.20000000000005</ele><time>2026-04-26T10:38:30.063Z</time></trkpt><trkpt lat="43.3497199" lon="11.9722701"><ele>280.6</ele><time>2026-04-26T10:38:32.063Z</time></trkpt><trkpt lat="43.3497266" lon="11.9723968"><ele>281.0</ele><time>2026-04-26T10:38:34.063Z</time></trkpt><trkpt lat="43.3497302" lon="11.9725294"><ele>281.0</ele><time>2026-04-26T10:38:36.063Z</time></trkpt><trkpt lat="43.3497343" lon="11.9726641"><ele>281.0</ele><time>2026-04-26T10:38:38.063Z</time></trkpt><trkpt lat="43.3497371" lon="11.9727982"><ele>281.0</ele><time>2026-04-26T10:38:40.063Z</time></trkpt><trkpt lat="43.3497422" lon="11.9729254"><ele>281.0</ele><time>2026-04-26T10:38:42.063Z</time></trkpt><trkpt lat="43.3497456" lon="11.9730594"><ele>281.0</ele><time>2026-04-26T10:38:44.063Z</time></trkpt><trkpt lat="43.3497404" lon="11.9731903"><ele>281.0</ele><time>2026-04-26T10:38:46.063Z</time></trkpt><trkpt lat="43.3497357" lon="11.9733225"><ele>281.0</ele><time>2026-04-26T10:38:48.062Z</time></trkpt><trkpt lat="43.3497347" lon="11.9734522"><ele>281.0</ele><time>2026-04-26T10:38:50.063Z</time></trkpt><trkpt lat="43.3497368" lon="11.9735829"><ele>281.0</ele><time>2026-04-26T10:38:52.063Z</time></trkpt><trkpt lat="43.3497328" lon="11.973715"><ele>281.0</ele><time>2026-04-26T10:38:54.063Z</time></trkpt><trkpt lat="43.3497347" lon="11.973846"><ele>281.2</ele><time>2026-04-26T10:38:56.063Z</time></trkpt><trkpt lat="43.3497339" lon="11.9739773"><ele>281.40000000000003</ele><time>2026-04-26T10:38:58.063Z</time></trkpt><trkpt lat="43.3497287" lon="11.974109"><ele>281.6</ele><time>2026-04-26T10:39:00.063Z</time></trkpt><trkpt lat="43.3497236" lon="11.9742429"><ele>281.8</ele><time>2026-04-26T10:39:02.063Z</time></trkpt><trkpt lat="43.3497249" lon="11.9743823"><ele>282.0</ele><time>2026-04-26T10:39:04.063Z</time></trkpt><trkpt lat="43.3497203" lon="11.9745208"><ele>282.6</ele><time>2026-04-26T10:39:06.063Z</time></trkpt><trkpt lat="43.3497187" lon="11.9746521"><ele>283.2</ele><time>2026-04-26T10:39:08.063Z</time></trkpt><trkpt lat="43.3497232" lon="11.9747828"><ele>283.8</ele><time>2026-04-26T10:39:10.063Z</time></trkpt><trkpt lat="43.3497344" lon="11.9749215"><ele>284.4</ele><time>2026-04-26T10:39:12.063Z</time></trkpt><trkpt lat="43.3497421" lon="11.975064"><ele>285.0</ele><time>2026-04-26T10:39:14.063Z</time></trkpt><trkpt lat="43.349745" lon="11.9751987"><ele>285.0</ele><time>2026-04-26T10:39:16.063Z</time></trkpt><trkpt lat="43.3497444" lon="11.9753351"><ele>285.0</ele><time>2026-04-26T10:39:18.063Z</time></trkpt><trkpt lat="43.3497383" lon="11.975474"><ele>285.0</ele><time>2026-04-26T10:39:20.063Z</time></trkpt><trkpt lat="43.349746" lon="11.9756096"><ele>285.0</ele><time>2026-04-26T10:39:22.063Z</time></trkpt><trkpt lat="43.3497658" lon="11.9757496"><ele>285.0</ele><time>2026-04-26T10:39:24.063Z</time></trkpt><trkpt lat="43.3497847" lon="11.9758328"><ele>284.6</ele><time>2026-04-26T10:39:25.063Z</time></trkpt><trkpt lat="43.349825" lon="11.9759842"><ele>284.2</ele><time>2026-04-26T10:39:27.063Z</time></trkpt><trkpt lat="43.3498586" lon="11.9760981"><ele>283.8</ele><time>2026-04-26T10:39:29.063Z</time></trkpt><trkpt lat="43.3498893" lon="11.9762289"><ele>283.4</ele><time>2026-04-26T10:39:31.063Z</time></trkpt><trkpt lat="43.3499204" lon="11.9763622"><ele>283.0</ele><time>2026-04-26T10:39:33.063Z</time></trkpt><trkpt lat="43.3499494" lon="11.9764964"><ele>283.0</ele><time>2026-04-26T10:39:35.063Z</time></trkpt><trkpt lat="43.3499763" lon="11.9766291"><ele>283.0</ele><time>2026-04-26T10:39:37.063Z</time></trkpt><trkpt lat="43.3500079" lon="11.9767629"><ele>283.0</ele><time>2026-04-26T10:39:39.063Z</time></trkpt><trkpt lat="43.3500359" lon="11.9768936"><ele>283.0</ele><time>2026-04-26T10:39:41.063Z</time></trkpt><trkpt lat="43.3500636" lon="11.9770304"><ele>283.0</ele><time>2026-04-26T10:39:43.063Z</time></trkpt><trkpt lat="43.3500902" lon="11.9771636"><ele>283.0</ele><time>2026-04-26T10:39:45.063Z</time></trkpt><trkpt lat="43.3501144" lon="11.9772853"><ele>283.0</ele><time>2026-04-26T10:39:47.063Z</time></trkpt><trkpt lat="43.3501447" lon="11.977407"><ele>283.0</ele><time>2026-04-26T10:39:49.063Z</time></trkpt><trkpt lat="43.3501745" lon="11.9775262"><ele>283.0</ele><time>2026-04-26T10:39:51.063Z</time></trkpt><trkpt lat="43.3501994" lon="11.977656"><ele>283.0</ele><time>2026-04-26T10:39:53.063Z</time></trkpt><trkpt lat="43.3502241" lon="11.9777776"><ele>283.0</ele><time>2026-04-26T10:39:55.063Z</time></trkpt><trkpt lat="43.3502527" lon="11.9778972"><ele>283.0</ele><time>2026-04-26T10:39:57.063Z</time></trkpt><trkpt lat="43.3502725" lon="11.9780286"><ele>283.0</ele><time>2026-04-26T10:39:59.063Z</time></trkpt><trkpt lat="43.3502878" lon="11.9781568"><ele>283.0</ele><time>2026-04-26T10:40:01.063Z</time></trkpt><trkpt lat="43.3502991" lon="11.9782884"><ele>283.0</ele><time>2026-04-26T10:40:03.063Z</time></trkpt><trkpt lat="43.3503082" lon="11.9784239"><ele>283.4</ele><time>2026-04-26T10:40:05.063Z</time></trkpt><trkpt lat="43.3503206" lon="11.9785617"><ele>283.8</ele><time>2026-04-26T10:40:07.063Z</time></trkpt><trkpt lat="43.3503304" lon="11.9787025"><ele>284.2</ele><time>2026-04-26T10:40:09.063Z</time></trkpt><trkpt lat="43.3503431" lon="11.9788375"><ele>284.6</ele><time>2026-04-26T10:40:11.062Z</time></trkpt><trkpt lat="43.3503567" lon="11.9789698"><ele>285.0</ele><time>2026-04-26T10:40:13.063Z</time></trkpt><trkpt lat="43.350371" lon="11.9790962"><ele>285.0</ele><time>2026-04-26T10:40:15.063Z</time></trkpt><trkpt lat="43.3503804" lon="11.9792223"><ele>285.0</ele><time>2026-04-26T10:40:17.063Z</time></trkpt><trkpt lat="43.3503938" lon="11.9793491"><ele>285.0</ele><time>2026-04-26T10:40:19.063Z</time></trkpt><trkpt lat="43.3504031" lon="11.9794878"><ele>285.0</ele><time>2026-04-26T10:40:21.063Z</time></trkpt><trkpt lat="43.3504109" lon="11.9796226"><ele>285.0</ele><time>2026-04-26T10:40:23.063Z</time></trkpt><trkpt lat="43.3504244" lon="11.9797505"><ele>285.0</ele><time>2026-04-26T10:40:25.063Z</time></trkpt><trkpt lat="43.3504359" lon="11.9798788"><ele>285.0</ele><time>2026-04-26T10:40:27.063Z</time></trkpt><trkpt lat="43.3504476" lon="11.9800107"><ele>285.0</ele><time>2026-04-26T10:40:29.063Z</time></trkpt><trkpt lat="43.3504634" lon="11.9801478"><ele>285.0</ele><time>2026-04-26T10:40:31.063Z</time></trkpt><trkpt lat="43.3504945" lon="11.9802782"><ele>285.0</ele><time>2026-04-26T10:40:33.063Z</time></trkpt><trkpt lat="43.3505148" lon="11.9804077"><ele>285.0</ele><time>2026-04-26T10:40:35.063Z</time></trkpt><trkpt lat="43.350539" lon="11.9805459"><ele>285.0</ele><time>2026-04-26T10:40:37.063Z</time></trkpt><trkpt lat="43.3505703" lon="11.9807052"><ele>285.0</ele><time>2026-04-26T10:40:39.063Z</time></trkpt><trkpt lat="43.3506084" lon="11.9808355"><ele>285.0</ele><time>2026-04-26T10:40:41.063Z</time></trkpt><trkpt lat="43.3506379" lon="11.9809579"><ele>285.0</ele><time>2026-04-26T10:40:43.063Z</time></trkpt><trkpt lat="43.350671" lon="11.9810844"><ele>285.4</ele><time>2026-04-26T10:40:45.063Z</time></trkpt><trkpt lat="43.3507104" lon="11.9812127"><ele>285.8</ele><time>2026-04-26T10:40:47.063Z</time></trkpt><trkpt lat="43.3507524" lon="11.981337"><ele>286.2</ele><time>2026-04-26T10:40:49.063Z</time></trkpt><trkpt lat="43.3507943" lon="11.9814632"><ele>286.6</ele><time>2026-04-26T10:40:51.063Z</time></trkpt><trkpt lat="43.3508344" lon="11.9815831"><ele>287.0</ele><time>2026-04-26T10:40:53.063Z</time></trkpt><trkpt lat="43.3508704" lon="11.9817194"><ele>287.2</ele><time>2026-04-26T10:40:55.063Z</time></trkpt><trkpt lat="43.350907" lon="11.981845"><ele>287.4</ele><time>2026-04-26T10:40:57.063Z</time></trkpt><trkpt lat="43.3509515" lon="11.9819722"><ele>287.6</ele><time>2026-04-26T10:40:59.063Z</time></trkpt><trkpt lat="43.3509944" lon="11.9820938"><ele>287.8</ele><time>2026-04-26T10:41:01.063Z</time></trkpt><trkpt lat="43.3510397" lon="11.9822103"><ele>288.0</ele><time>2026-04-26T10:41:03.063Z</time></trkpt><trkpt lat="43.3510811" lon="11.9823312"><ele>288.0</ele><time>2026-04-26T10:41:05.063Z</time></trkpt><trkpt lat="43.3511279" lon="11.982458"><ele>288.0</ele><time>2026-04-26T10:41:07.063Z</time></trkpt><trkpt lat="43.3511761" lon="11.982576"><ele>288.0</ele><time>2026-04-26T10:41:09.063Z</time></trkpt><trkpt lat="43.3512208" lon="11.9826979"><ele>288.0</ele><time>2026-04-26T10:41:11.063Z</time></trkpt><trkpt lat="43.3512677" lon="11.9828169"><ele>288.0</ele><time>2026-04-26T10:41:13.063Z</time></trkpt><trkpt lat="43.3513148" lon="11.982941"><ele>288.2</ele><time>2026-04-26T10:41:15.063Z</time></trkpt><trkpt lat="43.3513609" lon="11.9830548"><ele>288.4</ele><time>2026-04-26T10:41:17.063Z</time></trkpt><trkpt lat="43.3514063" lon="11.983173"><ele>288.59999999999997</ele><time>2026-04-26T10:41:19.062Z</time></trkpt><trkpt lat="43.3514537" lon="11.9832905"><ele>288.8</ele><time>2026-04-26T10:41:21.063Z</time></trkpt><trkpt lat="43.3514964" lon="11.9834028"><ele>289.0</ele><time>2026-04-26T10:41:23.063Z</time></trkpt><trkpt lat="43.3515337" lon="11.9835233"><ele>289.2</ele><time>2026-04-26T10:41:25.063Z</time></trkpt><trkpt lat="43.3515785" lon="11.9836418"><ele>289.4</ele><time>2026-04-26T10:41:27.063Z</time></trkpt><trkpt lat="43.3516212" lon="11.9837552"><ele>289.6</ele><time>2026-04-26T10:41:29.063Z</time></trkpt><trkpt lat="43.3516658" lon="11.9838688"><ele>289.8</ele><time>2026-04-26T10:41:31.063Z</time></trkpt><trkpt lat="43.3517116" lon="11.9839904"><ele>290.0</ele><time>2026-04-26T10:41:33.063Z</time></trkpt><trkpt lat="43.3517589" lon="11.9841004"><ele>290.2</ele><time>2026-04-26T10:41:35.063Z</time></trkpt><trkpt lat="43.3518051" lon="11.9842109"><ele>290.4</ele><time>2026-04-26T10:41:37.063Z</time></trkpt><trkpt lat="43.3518523" lon="11.9843192"><ele>290.6</ele><time>2026-04-26T10:41:39.063Z</time></trkpt><trkpt lat="43.3519005" lon="11.9844378"><ele>290.8</ele><time>2026-04-26T10:41:41.063Z</time></trkpt><trkpt lat="43.3519396" lon="11.984539"><ele>291.0</ele><time>2026-04-26T10:41:43.063Z</time></trkpt><trkpt lat="43.3519862" lon="11.9846529"><ele>291.0</ele><time>2026-04-26T10:41:45.063Z</time></trkpt><trkpt lat="43.3520332" lon="11.9847695"><ele>291.0</ele><time>2026-04-26T10:41:47.063Z</time></trkpt><trkpt lat="43.3520833" lon="11.9848739"><ele>291.0</ele><time>2026-04-26T10:41:49.063Z</time></trkpt><trkpt lat="43.3521284" lon="11.9849827"><ele>291.0</ele><time>2026-04-26T10:41:51.063Z</time></trkpt><trkpt lat="43.3521776" lon="11.985088"><ele>291.0</ele><time>2026-04-26T10:41:53.063Z</time></trkpt><trkpt lat="43.3522187" lon="11.9852009"><ele>291.40000000000003</ele><time>2026-04-26T10:41:55.062Z</time></trkpt><trkpt lat="43.3522607" lon="11.9853177"><ele>291.8</ele><time>2026-04-26T10:41:57.063Z</time></trkpt><trkpt lat="43.3523061" lon="11.9854366"><ele>292.20000000000005</ele><time>2026-04-26T10:41:59.063Z</time></trkpt><trkpt lat="43.3523562" lon="11.9855437"><ele>292.6</ele><time>2026-04-26T10:42:01.063Z</time></trkpt><trkpt lat="43.3524131" lon="11.9856414"><ele>293.0</ele><time>2026-04-26T10:42:03.063Z</time></trkpt><trkpt lat="43.3524655" lon="11.9857419"><ele>293.0</ele><time>2026-04-26T10:42:05.063Z</time></trkpt><trkpt lat="43.3525184" lon="11.9858392"><ele>293.0</ele><time>2026-04-26T10:42:07.063Z</time></trkpt><trkpt lat="43.3525677" lon="11.985937"><ele>293.0</ele><time>2026-04-26T10:42:09.063Z</time></trkpt><trkpt lat="43.3526154" lon="11.9860406"><ele>293.0</ele><time>2026-04-26T10:42:11.063Z</time></trkpt><trkpt lat="43.3526625" lon="11.9861451"><ele>293.0</ele><time>2026-04-26T10:42:13.063Z</time></trkpt><trkpt lat="43.3527123" lon="11.9862416"><ele>293.0</ele><time>2026-04-26T10:42:15.063Z</time></trkpt><trkpt lat="43.3527534" lon="11.986339"><ele>292.99999999999994</ele><time>2026-04-26T10:42:17.063Z</time></trkpt><trkpt lat="43.3527864" lon="11.9864174"><ele>293.0</ele><time>2026-04-26T10:42:19.063Z</time></trkpt><trkpt lat="43.3528365" lon="11.9865271"><ele>293.0</ele><time>2026-04-26T10:42:22.063Z</time></trkpt><trkpt lat="43.3528712" lon="11.9866097"><ele>293.0</ele><time>2026-04-26T10:42:24.062Z</time></trkpt><trkpt lat="43.3529049" lon="11.9866877"><ele>293.0</ele><time>2026-04-26T10:42:26.063Z</time></trkpt><trkpt lat="43.3529531" lon="11.9867681"><ele>292.99999999999994</ele><time>2026-04-26T10:42:29.063Z</time></trkpt><trkpt lat="43.3530049" lon="11.9868384"><ele>293.0</ele><time>2026-04-26T10:42:33.063Z</time></trkpt><trkpt lat="43.3530332" lon="11.9869426"><ele>293.1666666666667</ele><time>2026-04-26T10:42:37.063Z</time></trkpt><trkpt lat="43.3530691" lon="11.9870181"><ele>293.33333333333337</ele><time>2026-04-26T10:42:39.063Z</time></trkpt><trkpt lat="43.3531061" lon="11.98711"><ele>293.5</ele><time>2026-04-26T10:42:41.063Z</time></trkpt><trkpt lat="43.3531483" lon="11.9872049"><ele>293.6666666666667</ele><time>2026-04-26T10:42:43.063Z</time></trkpt><trkpt lat="43.353195" lon="11.9873129"><ele>293.8333333333333</ele><time>2026-04-26T10:42:45.063Z</time></trkpt><trkpt lat="43.3532399" lon="11.987412"><ele>294.0</ele><time>2026-04-26T10:42:47.063Z</time></trkpt><trkpt lat="43.3532856" lon="11.9875134"><ele>294.0</ele><time>2026-04-26T10:42:49.063Z</time></trkpt><trkpt lat="43.3533291" lon="11.9876154"><ele>294.0</ele><time>2026-04-26T10:42:51.062Z</time></trkpt><trkpt lat="43.3533764" lon="11.9877172"><ele>294.0</ele><time>2026-04-26T10:42:53.063Z</time></trkpt><trkpt lat="43.3534136" lon="11.9878195"><ele>294.0</ele><time>2026-04-26T10:42:55.063Z</time></trkpt><trkpt lat="43.3534531" lon="11.9879164"><ele>294.0</ele><time>2026-04-26T10:42:57.063Z</time></trkpt><trkpt lat="43.3534945" lon="11.9880147"><ele>294.0</ele><time>2026-04-26T10:42:59.063Z</time></trkpt><trkpt lat="43.353535" lon="11.9881197"><ele>294.0</ele><time>2026-04-26T10:43:01.063Z</time></trkpt><trkpt lat="43.3535756" lon="11.9882292"><ele>294.0</ele><time>2026-04-26T10:43:03.063Z</time></trkpt><trkpt lat="43.3536187" lon="11.9883296"><ele>294.0</ele><time>2026-04-26T10:43:05.063Z</time></trkpt><trkpt lat="43.3536581" lon="11.9884266"><ele>294.0</ele><time>2026-04-26T10:43:07.063Z</time></trkpt><trkpt lat="43.3536947" lon="11.988525"><ele>294.0</ele><time>2026-04-26T10:43:09.063Z</time></trkpt><trkpt lat="43.3537338" lon="11.9886226"><ele>294.0</ele><time>2026-04-26T10:43:11.063Z</time></trkpt><trkpt lat="43.3537704" lon="11.9887246"><ele>293.8333333333333</ele><time>2026-04-26T10:43:13.062Z</time></trkpt><trkpt lat="43.3538089" lon="11.9888269"><ele>293.6666666666667</ele><time>2026-04-26T10:43:15.063Z</time></trkpt><trkpt lat="43.3538464" lon="11.9889243"><ele>293.5</ele><time>2026-04-26T10:43:17.063Z</time></trkpt><trkpt lat="43.3538868" lon="11.9890224"><ele>293.33333333333337</ele><time>2026-04-26T10:43:19.063Z</time></trkpt><trkpt lat="43.3539269" lon="11.9891181"><ele>293.1666666666667</ele><time>2026-04-26T10:43:21.062Z</time></trkpt><trkpt lat="43.3539701" lon="11.9892109"><ele>293.0</ele><time>2026-04-26T10:43:23.063Z</time></trkpt><trkpt lat="43.354008" lon="11.9893127"><ele>293.5</ele><time>2026-04-26T10:43:25.063Z</time></trkpt><trkpt lat="43.3540455" lon="11.9894129"><ele>294.0</ele><time>2026-04-26T10:43:27.062Z</time></trkpt><trkpt lat="43.3540929" lon="11.9895127"><ele>294.5</ele><time>2026-04-26T10:43:29.063Z</time></trkpt><trkpt lat="43.3541318" lon="11.9896022"><ele>295.0</ele><time>2026-04-26T10:43:31.063Z</time></trkpt><trkpt lat="43.3541705" lon="11.9896968"><ele>295.5</ele><time>2026-04-26T10:43:33.063Z</time></trkpt><trkpt lat="43.3542093" lon="11.9897841"><ele>296.0</ele><time>2026-04-26T10:43:35.063Z</time></trkpt><trkpt lat="43.3542399" lon="11.9898724"><ele>296.0</ele><time>2026-04-26T10:43:37.063Z</time></trkpt><trkpt lat="43.3542709" lon="11.9899647"><ele>296.0</ele><time>2026-04-26T10:43:39.063Z</time></trkpt><trkpt lat="43.3543009" lon="11.9900598"><ele>296.0</ele><time>2026-04-26T10:43:41.063Z</time></trkpt><trkpt lat="43.3543476" lon="11.9901452"><ele>296.0</ele><time>2026-04-26T10:43:43.063Z</time></trkpt><trkpt lat="43.3543821" lon="11.9902431"><ele>296.0</ele><time>2026-04-26T10:43:45.063Z</time></trkpt><trkpt lat="43.3544143" lon="11.9903363"><ele>296.0</ele><time>2026-04-26T10:43:47.063Z</time></trkpt><trkpt lat="43.3544528" lon="11.9904318"><ele>296.5</ele><time>2026-04-26T10:43:49.063Z</time></trkpt><trkpt lat="43.3544929" lon="11.9905255"><ele>297.0</ele><time>2026-04-26T10:43:51.063Z</time></trkpt><trkpt lat="43.3545325" lon="11.9906178"><ele>297.5</ele><time>2026-04-26T10:43:53.063Z</time></trkpt><trkpt lat="43.3545733" lon="11.9907079"><ele>298.0</ele><time>2026-04-26T10:43:55.063Z</time></trkpt><trkpt lat="43.3546121" lon="11.9908029"><ele>298.5</ele><time>2026-04-26T10:43:57.063Z</time></trkpt><trkpt lat="43.354649" lon="11.9908989"><ele>299.0</ele><time>2026-04-26T10:43:59.063Z</time></trkpt><trkpt lat="43.3546833" lon="11.9910028"><ele>299.0</ele><time>2026-04-26T10:44:01.063Z</time></trkpt><trkpt lat="43.354722" lon="11.9911058"><ele>299.0</ele><time>2026-04-26T10:44:03.063Z</time></trkpt><trkpt lat="43.3547625" lon="11.9912057"><ele>299.0</ele><time>2026-04-26T10:44:05.063Z</time></trkpt><trkpt lat="43.3548059" lon="11.9913023"><ele>299.0</ele><time>2026-04-26T10:44:07.063Z</time></trkpt><trkpt lat="43.3548534" lon="11.9914063"><ele>299.0</ele><time>2026-04-26T10:44:09.063Z</time></trkpt><trkpt lat="43.3548959" lon="11.9915199"><ele>299.0</ele><time>2026-04-26T10:44:11.062Z</time></trkpt><trkpt lat="43.3549365" lon="11.9916222"><ele>299.5</ele><time>2026-04-26T10:44:13.063Z</time></trkpt><trkpt lat="43.3549756" lon="11.9917227"><ele>300.0</ele><time>2026-04-26T10:44:15.063Z</time></trkpt><trkpt lat="43.3550168" lon="11.9918222"><ele>300.5</ele><time>2026-04-26T10:44:17.063Z</time></trkpt><trkpt lat="43.3550586" lon="11.9919201"><ele>301.0</ele><time>2026-04-26T10:44:19.063Z</time></trkpt><trkpt lat="43.3551035" lon="11.9920099"><ele>301.5</ele><time>2026-04-26T10:44:21.063Z</time></trkpt><trkpt lat="43.3551427" lon="11.9921036"><ele>302.0</ele><time>2026-04-26T10:44:23.063Z</time></trkpt><trkpt lat="43.3551824" lon="11.9921855"><ele>302.0</ele><time>2026-04-26T10:44:25.063Z</time></trkpt><trkpt lat="43.3552222" lon="11.9922644"><ele>302.0</ele><time>2026-04-26T10:44:27.063Z</time></trkpt><trkpt lat="43.3552564" lon="11.9923585"><ele>302.0</ele><time>2026-04-26T10:44:29.063Z</time></trkpt><trkpt lat="43.3552553" lon="11.9924681"><ele>302.0</ele><time>2026-04-26T10:44:31.063Z</time></trkpt><trkpt lat="43.3552162" lon="11.9925704"><ele>302.0</ele><time>2026-04-26T10:44:33.062Z</time></trkpt><trkpt lat="43.3551823" lon="11.9926829"><ele>302.0</ele><time>2026-04-26T10:44:35.063Z</time></trkpt><trkpt lat="43.3551665" lon="11.9928012"><ele>302.4</ele><time>2026-04-26T10:44:37.063Z</time></trkpt><trkpt lat="43.3551465" lon="11.9929332"><ele>302.79999999999995</ele><time>2026-04-26T10:44:39.063Z</time></trkpt><trkpt lat="43.3551299" lon="11.9930629"><ele>303.2</ele><time>2026-04-26T10:44:41.063Z</time></trkpt><trkpt lat="43.355112" lon="11.9931964"><ele>303.59999999999997</ele><time>2026-04-26T10:44:43.063Z</time></trkpt><trkpt lat="43.355102" lon="11.9933253"><ele>304.0</ele><time>2026-04-26T10:44:45.063Z</time></trkpt><trkpt lat="43.3550686" lon="11.993434"><ele>304.0</ele><time>2026-04-26T10:44:47.063Z</time></trkpt><trkpt lat="43.3550111" lon="11.9934976"><ele>304.0</ele><time>2026-04-26T10:44:49.062Z</time></trkpt><trkpt lat="43.3549254" lon="11.9934861"><ele>304.0</ele><time>2026-04-26T10:44:51.063Z</time></trkpt><trkpt lat="43.3548386" lon="11.9934297"><ele>304.0</ele><time>2026-04-26T10:44:53.063Z</time></trkpt><trkpt lat="43.3547372" lon="11.9933938"><ele>304.0</ele><time>2026-04-26T10:44:55.063Z</time></trkpt><trkpt lat="43.3546273" lon="11.9933896"><ele>304.0</ele><time>2026-04-26T10:44:57.063Z</time></trkpt><trkpt lat="43.3545122" lon="11.9933789"><ele>304.0</ele><time>2026-04-26T10:44:59.063Z</time></trkpt><trkpt lat="43.3543993" lon="11.9933355"><ele>304.0</ele><time>2026-04-26T10:45:01.063Z</time></trkpt><trkpt lat="43.3542869" lon="11.9932814"><ele>304.0</ele><time>2026-04-26T10:45:03.063Z</time></trkpt><trkpt lat="43.3541807" lon="11.9932091"><ele>304.0</ele><time>2026-04-26T10:45:05.063Z</time></trkpt><trkpt lat="43.3540901" lon="11.9931322"><ele>304.0</ele><time>2026-04-26T10:45:07.062Z</time></trkpt><trkpt lat="43.3539972" lon="11.9930492"><ele>304.0</ele><time>2026-04-26T10:45:09.063Z</time></trkpt><trkpt lat="43.3539062" lon="11.9929657"><ele>304.0</ele><time>2026-04-26T10:45:11.063Z</time></trkpt><trkpt lat="43.3538229" lon="11.9928834"><ele>304.0</ele><time>2026-04-26T10:45:13.063Z</time></trkpt><trkpt lat="43.353751" lon="11.9927977"><ele>304.0</ele><time>2026-04-26T10:45:15.063Z</time></trkpt><trkpt lat="43.3536779" lon="11.9927122"><ele>304.0</ele><time>2026-04-26T10:45:17.063Z</time></trkpt><trkpt lat="43.3536322" lon="11.992624"><ele>304.0</ele><time>2026-04-26T10:45:19.063Z</time></trkpt><trkpt lat="43.3535801" lon="11.9925401"><ele>304.0</ele><time>2026-04-26T10:45:22.063Z</time></trkpt><trkpt lat="43.3535408" lon="11.9924093"><ele>304.0</ele><time>2026-04-26T10:45:25.063Z</time></trkpt><trkpt lat="43.3535321" lon="11.9923227"><ele>304.0</ele><time>2026-04-26T10:45:26.063Z</time></trkpt><trkpt lat="43.3535211" lon="11.9922293"><ele>303.8333333333333</ele><time>2026-04-26T10:45:27.063Z</time></trkpt><trkpt lat="43.3535006" lon="11.9921227"><ele>303.66666666666663</ele><time>2026-04-26T10:45:28.063Z</time></trkpt><trkpt lat="43.353473" lon="11.992009"><ele>303.5</ele><time>2026-04-26T10:45:29.063Z</time></trkpt><trkpt lat="43.353433" lon="11.9919014"><ele>303.3333333333333</ele><time>2026-04-26T10:45:30.063Z</time></trkpt><trkpt lat="43.3533878" lon="11.9917989"><ele>303.1666666666667</ele><time>2026-04-26T10:45:31.063Z</time></trkpt><trkpt lat="43.3533295" lon="11.9917056"><ele>303.0</ele><time>2026-04-26T10:45:32.063Z</time></trkpt><trkpt lat="43.3532709" lon="11.9916231"><ele>303.0</ele><time>2026-04-26T10:45:33.063Z</time></trkpt><trkpt lat="43.3532068" lon="11.9915416"><ele>303.0</ele><time>2026-04-26T10:45:34.063Z</time></trkpt><trkpt lat="43.3531469" lon="11.9914579"><ele>303.0</ele><time>2026-04-26T10:45:35.063Z</time></trkpt><trkpt lat="43.3530849" lon="11.9913762"><ele>303.0</ele><time>2026-04-26T10:45:36.063Z</time></trkpt><trkpt lat="43.353022" lon="11.9912971"><ele>303.0</ele><time>2026-04-26T10:45:37.063Z</time></trkpt><trkpt lat="43.3529592" lon="11.9912292"><ele>303.0</ele><time>2026-04-26T10:45:38.063Z</time></trkpt><trkpt lat="43.3528975" lon="11.9911563"><ele>303.0</ele><time>2026-04-26T10:45:39.063Z</time></trkpt><trkpt lat="43.3528426" lon="11.991081"><ele>303.0</ele><time>2026-04-26T10:45:40.063Z</time></trkpt><trkpt lat="43.3527859" lon="11.9910078"><ele>303.0</ele><time>2026-04-26T10:45:41.063Z</time></trkpt><trkpt lat="43.3527302" lon="11.9909387"><ele>303.0</ele><time>2026-04-26T10:45:42.063Z</time></trkpt><trkpt lat="43.3526751" lon="11.9908678"><ele>303.0</ele><time>2026-04-26T10:45:43.062Z</time></trkpt><trkpt lat="43.3526192" lon="11.990799"><ele>303.0</ele><time>2026-04-26T10:45:44.063Z</time></trkpt><trkpt lat="43.3525627" lon="11.9907292"><ele>303.14285714285717</ele><time>2026-04-26T10:45:45.063Z</time></trkpt><trkpt lat="43.3525055" lon="11.9906629"><ele>303.2857142857143</ele><time>2026-04-26T10:45:46.063Z</time></trkpt><trkpt lat="43.3524501" lon="11.9905989"><ele>303.42857142857144</ele><time>2026-04-26T10:45:47.063Z</time></trkpt><trkpt lat="43.3523959" lon="11.9905371"><ele>303.57142857142856</ele><time>2026-04-26T10:45:48.063Z</time></trkpt><trkpt lat="43.352341" lon="11.9904683"><ele>303.7142857142857</ele><time>2026-04-26T10:45:49.063Z</time></trkpt><trkpt lat="43.352283" lon="11.990398"><ele>303.85714285714283</ele><time>2026-04-26T10:45:50.063Z</time></trkpt><trkpt lat="43.3522253" lon="11.9903287"><ele>304.0</ele><time>2026-04-26T10:45:51.062Z</time></trkpt><trkpt lat="43.3521701" lon="11.9902619"><ele>304.0</ele><time>2026-04-26T10:45:52.062Z</time></trkpt><trkpt lat="43.3521136" lon="11.9902029"><ele>304.0</ele><time>2026-04-26T10:45:53.063Z</time></trkpt><trkpt lat="43.3520536" lon="11.9901425"><ele>304.0</ele><time>2026-04-26T10:45:54.063Z</time></trkpt><trkpt lat="43.3519959" lon="11.9900866"><ele>304.0</ele><time>2026-04-26T10:45:55.063Z</time></trkpt><trkpt lat="43.3519403" lon="11.9900396"><ele>304.0</ele><time>2026-04-26T10:45:56.063Z</time></trkpt><trkpt lat="43.3518807" lon="11.9899866"><ele>304.0</ele><time>2026-04-26T10:45:57.063Z</time></trkpt><trkpt lat="43.3518177" lon="11.9899418"><ele>304.0</ele><time>2026-04-26T10:45:58.063Z</time></trkpt><trkpt lat="43.35175" lon="11.9898885"><ele>303.57142857142856</ele><time>2026-04-26T10:45:59.063Z</time></trkpt><trkpt lat="43.3516847" lon="11.9898333"><ele>303.14285714285717</ele><time>2026-04-26T10:46:00.062Z</time></trkpt><trkpt lat="43.3516199" lon="11.989781"><ele>302.7142857142857</ele><time>2026-04-26T10:46:01.062Z</time></trkpt><trkpt lat="43.3515599" lon="11.9897254"><ele>302.2857142857143</ele><time>2026-04-26T10:46:02.063Z</time></trkpt><trkpt lat="43.3514995" lon="11.9896641"><ele>301.8571428571429</ele><time>2026-04-26T10:46:03.062Z</time></trkpt><trkpt lat="43.3514355" lon="11.9896089"><ele>301.42857142857144</ele><time>2026-04-26T10:46:04.063Z</time></trkpt><trkpt lat="43.3513768" lon="11.9895569"><ele>301.0</ele><time>2026-04-26T10:46:05.063Z</time></trkpt><trkpt lat="43.3513144" lon="11.9895019"><ele>301.0</ele><time>2026-04-26T10:46:06.063Z</time></trkpt><trkpt lat="43.3512597" lon="11.9894472"><ele>301.0</ele><time>2026-04-26T10:46:07.063Z</time></trkpt><trkpt lat="43.3512125" lon="11.9893818"><ele>301.0</ele><time>2026-04-26T10:46:08.063Z</time></trkpt><trkpt lat="43.3511673" lon="11.9893"><ele>301.0</ele><time>2026-04-26T10:46:09.063Z</time></trkpt><trkpt lat="43.3511266" lon="11.9892098"><ele>301.0</ele><time>2026-04-26T10:46:10.063Z</time></trkpt><trkpt lat="43.3510857" lon="11.9891145"><ele>301.0</ele><time>2026-04-26T10:46:11.063Z</time></trkpt><trkpt lat="43.3510413" lon="11.9890246"><ele>301.0</ele><time>2026-04-26T10:46:12.063Z</time></trkpt><trkpt lat="43.3509839" lon="11.9889548"><ele>300.7142857142857</ele><time>2026-04-26T10:46:13.063Z</time></trkpt><trkpt lat="43.3509222" lon="11.9889091"><ele>300.42857142857144</ele><time>2026-04-26T10:46:14.063Z</time></trkpt><trkpt lat="43.3508568" lon="11.9888654"><ele>300.1428571428571</ele><time>2026-04-26T10:46:15.063Z</time></trkpt><trkpt lat="43.3507933" lon="11.9888339"><ele>299.8571428571429</ele><time>2026-04-26T10:46:16.063Z</time></trkpt><trkpt lat="43.3507237" lon="11.9888022"><ele>299.57142857142856</ele><time>2026-04-26T10:46:17.063Z</time></trkpt><trkpt lat="43.3506553" lon="11.9887769"><ele>299.2857142857143</ele><time>2026-04-26T10:46:18.063Z</time></trkpt><trkpt lat="43.3505883" lon="11.9887514"><ele>299.0</ele><time>2026-04-26T10:46:19.063Z</time></trkpt><trkpt lat="43.3505223" lon="11.988735"><ele>299.0</ele><time>2026-04-26T10:46:20.063Z</time></trkpt><trkpt lat="43.3504565" lon="11.9887081"><ele>299.0</ele><time>2026-04-26T10:46:21.063Z</time></trkpt><trkpt lat="43.3503956" lon="11.9886769"><ele>299.0</ele><time>2026-04-26T10:46:22.063Z</time></trkpt><trkpt lat="43.3502976" lon="11.9885932"><ele>299.0</ele><time>2026-04-26T10:46:24.063Z</time></trkpt><trkpt lat="43.3502075" lon="11.9884881"><ele>299.0</ele><time>2026-04-26T10:46:26.063Z</time></trkpt><trkpt lat="43.3501336" lon="11.9883753"><ele>298.59999999999997</ele><time>2026-04-26T10:46:28.063Z</time></trkpt><trkpt lat="43.3500786" lon="11.9882505"><ele>298.2</ele><time>2026-04-26T10:46:30.062Z</time></trkpt><trkpt lat="43.3500409" lon="11.988122"><ele>297.79999999999995</ele><time>2026-04-26T10:46:32.063Z</time></trkpt><trkpt lat="43.350003" lon="11.9880035"><ele>297.4</ele><time>2026-04-26T10:46:34.063Z</time></trkpt><trkpt lat="43.349954" lon="11.9878583"><ele>297.0</ele><time>2026-04-26T10:46:36.063Z</time></trkpt><trkpt lat="43.3499267" lon="11.9877709"><ele>297.0</ele><time>2026-04-26T10:46:37.063Z</time></trkpt><trkpt lat="43.3499035" lon="11.9876756"><ele>297.0</ele><time>2026-04-26T10:46:38.063Z</time></trkpt><trkpt lat="43.3498836" lon="11.9875745"><ele>297.0</ele><time>2026-04-26T10:46:39.062Z</time></trkpt><trkpt lat="43.3498667" lon="11.9874808"><ele>297.0</ele><time>2026-04-26T10:46:40.063Z</time></trkpt><trkpt lat="43.3498555" lon="11.9873885"><ele>297.0</ele><time>2026-04-26T10:46:41.063Z</time></trkpt><trkpt lat="43.3498427" lon="11.987286"><ele>297.0</ele><time>2026-04-26T10:46:42.063Z</time></trkpt><trkpt lat="43.3498312" lon="11.9871922"><ele>297.0</ele><time>2026-04-26T10:46:43.063Z</time></trkpt><trkpt lat="43.3498214" lon="11.9870956"><ele>296.8571428571429</ele><time>2026-04-26T10:46:44.063Z</time></trkpt><trkpt lat="43.3498081" lon="11.9870019"><ele>296.7142857142857</ele><time>2026-04-26T10:46:45.063Z</time></trkpt><trkpt lat="43.3497987" lon="11.9869155"><ele>296.57142857142856</ele><time>2026-04-26T10:46:46.063Z</time></trkpt><trkpt lat="43.3497844" lon="11.9868258"><ele>296.42857142857144</ele><time>2026-04-26T10:46:47.063Z</time></trkpt><trkpt lat="43.3497621" lon="11.9867351"><ele>296.2857142857143</ele><time>2026-04-26T10:46:48.063Z</time></trkpt><trkpt lat="43.3497378" lon="11.986642"><ele>296.14285714285717</ele><time>2026-04-26T10:46:49.063Z</time></trkpt><trkpt lat="43.3497163" lon="11.9865496"><ele>296.0</ele><time>2026-04-26T10:46:50.063Z</time></trkpt><trkpt lat="43.3496934" lon="11.9864509"><ele>296.0</ele><time>2026-04-26T10:46:51.063Z</time></trkpt><trkpt lat="43.3496694" lon="11.986349"><ele>296.0</ele><time>2026-04-26T10:46:52.063Z</time></trkpt><trkpt lat="43.3496422" lon="11.9862472"><ele>296.0</ele><time>2026-04-26T10:46:53.062Z</time></trkpt><trkpt lat="43.3496159" lon="11.9861411"><ele>296.0</ele><time>2026-04-26T10:46:54.063Z</time></trkpt><trkpt lat="43.349587" lon="11.986035"><ele>296.0</ele><time>2026-04-26T10:46:55.063Z</time></trkpt><trkpt lat="43.3495618" lon="11.9859223"><ele>296.0</ele><time>2026-04-26T10:46:56.063Z</time></trkpt><trkpt lat="43.3495381" lon="11.9858135"><ele>296.0</ele><time>2026-04-26T10:46:57.063Z</time></trkpt><trkpt lat="43.3495133" lon="11.9857011"><ele>296.0</ele><time>2026-04-26T10:46:58.063Z</time></trkpt><trkpt lat="43.3494924" lon="11.9855903"><ele>296.0</ele><time>2026-04-26T10:46:59.063Z</time></trkpt><trkpt lat="43.3494688" lon="11.9854798"><ele>296.0</ele><time>2026-04-26T10:47:00.063Z</time></trkpt><trkpt lat="43.3494433" lon="11.9853719"><ele>296.0</ele><time>2026-04-26T10:47:01.063Z</time></trkpt><trkpt lat="43.3494127" lon="11.9852673"><ele>296.0</ele><time>2026-04-26T10:47:02.063Z</time></trkpt><trkpt lat="43.3493836" lon="11.9851586"><ele>296.0</ele><time>2026-04-26T10:47:03.063Z</time></trkpt><trkpt lat="43.3493551" lon="11.9850544"><ele>296.0</ele><time>2026-04-26T10:47:04.063Z</time></trkpt><trkpt lat="43.3493255" lon="11.9849499"><ele>296.0</ele><time>2026-04-26T10:47:05.063Z</time></trkpt><trkpt lat="43.3493023" lon="11.9848377"><ele>296.0</ele><time>2026-04-26T10:47:06.063Z</time></trkpt><trkpt lat="43.3492861" lon="11.9847261"><ele>296.0</ele><time>2026-04-26T10:47:07.063Z</time></trkpt><trkpt lat="43.349277" lon="11.9846184"><ele>296.0</ele><time>2026-04-26T10:47:08.063Z</time></trkpt><trkpt lat="43.3492717" lon="11.9845125"><ele>295.0</ele><time>2026-04-26T10:47:09.063Z</time></trkpt><trkpt lat="43.3492678" lon="11.9844089"><ele>294.0</ele><time>2026-04-26T10:47:10.063Z</time></trkpt><trkpt lat="43.3492638" lon="11.9843043"><ele>293.0</ele><time>2026-04-26T10:47:11.063Z</time></trkpt><trkpt lat="43.349259" lon="11.9842023"><ele>292.0</ele><time>2026-04-26T10:47:12.063Z</time></trkpt><trkpt lat="43.3492556" lon="11.9841071"><ele>291.0</ele><time>2026-04-26T10:47:13.063Z</time></trkpt><trkpt lat="43.3492529" lon="11.9840158"><ele>290.0</ele><time>2026-04-26T10:47:14.063Z</time></trkpt><trkpt lat="43.3492426" lon="11.9838674"><ele>290.0</ele><time>2026-04-26T10:47:16.063Z</time></trkpt><trkpt lat="43.3492211" lon="11.9837154"><ele>290.0</ele><time>2026-04-26T10:47:18.062Z</time></trkpt><trkpt lat="43.3492066" lon="11.9836237"><ele>290.0</ele><time>2026-04-26T10:47:19.063Z</time></trkpt><trkpt lat="43.3491857" lon="11.9835164"><ele>290.0</ele><time>2026-04-26T10:47:20.063Z</time></trkpt><trkpt lat="43.3491639" lon="11.9833994"><ele>290.0</ele><time>2026-04-26T10:47:21.063Z</time></trkpt><trkpt lat="43.3491408" lon="11.9832766"><ele>290.0</ele><time>2026-04-26T10:47:22.063Z</time></trkpt><trkpt lat="43.3491148" lon="11.9831533"><ele>289.6</ele><time>2026-04-26T10:47:23.063Z</time></trkpt><trkpt lat="43.3490823" lon="11.9830315"><ele>289.2</ele><time>2026-04-26T10:47:24.062Z</time></trkpt><trkpt lat="43.3490423" lon="11.9829097"><ele>288.8</ele><time>2026-04-26T10:47:25.063Z</time></trkpt><trkpt lat="43.3489972" lon="11.9827932"><ele>288.4</ele><time>2026-04-26T10:47:26.063Z</time></trkpt><trkpt lat="43.3489456" lon="11.9826818"><ele>288.0</ele><time>2026-04-26T10:47:27.063Z</time></trkpt><trkpt lat="43.3488935" lon="11.9825792"><ele>287.8333333333333</ele><time>2026-04-26T10:47:28.063Z</time></trkpt><trkpt lat="43.3488471" lon="11.9824735"><ele>287.6666666666667</ele><time>2026-04-26T10:47:29.063Z</time></trkpt><trkpt lat="43.3488043" lon="11.9823649"><ele>287.5</ele><time>2026-04-26T10:47:30.063Z</time></trkpt><trkpt lat="43.3487712" lon="11.9822507"><ele>287.33333333333337</ele><time>2026-04-26T10:47:31.063Z</time></trkpt><trkpt lat="43.3487451" lon="11.982138"><ele>287.1666666666667</ele><time>2026-04-26T10:47:32.063Z</time></trkpt><trkpt lat="43.3487281" lon="11.982028"><ele>287.0</ele><time>2026-04-26T10:47:33.062Z</time></trkpt><trkpt lat="43.3487037" lon="11.9819227"><ele>287.0</ele><time>2026-04-26T10:47:34.063Z</time></trkpt><trkpt lat="43.3486765" lon="11.9818199"><ele>287.0</ele><time>2026-04-26T10:47:35.063Z</time></trkpt><trkpt lat="43.3486411" lon="11.981721"><ele>287.0</ele><time>2026-04-26T10:47:36.063Z</time></trkpt><trkpt lat="43.3485966" lon="11.9816289"><ele>287.0</ele><time>2026-04-26T10:47:37.063Z</time></trkpt><trkpt lat="43.3485462" lon="11.9815414"><ele>287.0</ele><time>2026-04-26T10:47:38.063Z</time></trkpt><trkpt lat="43.3484958" lon="11.9814555"><ele>287.0</ele><time>2026-04-26T10:47:39.063Z</time></trkpt><trkpt lat="43.3484453" lon="11.9813706"><ele>286.6666666666667</ele><time>2026-04-26T10:47:40.063Z</time></trkpt><trkpt lat="43.3483945" lon="11.981286"><ele>286.33333333333337</ele><time>2026-04-26T10:47:41.063Z</time></trkpt><trkpt lat="43.3483459" lon="11.9811987"><ele>286.0</ele><time>2026-04-26T10:47:42.063Z</time></trkpt><trkpt lat="43.3482941" lon="11.9811076"><ele>285.6666666666667</ele><time>2026-04-26T10:47:43.063Z</time></trkpt><trkpt lat="43.3482481" lon="11.9810185"><ele>285.3333333333333</ele><time>2026-04-26T10:47:44.063Z</time></trkpt><trkpt lat="43.3482014" lon="11.9809279"><ele>285.0</ele><time>2026-04-26T10:47:45.063Z</time></trkpt><trkpt lat="43.3481575" lon="11.9808417"><ele>285.0</ele><time>2026-04-26T10:47:46.063Z</time></trkpt><trkpt lat="43.3481152" lon="11.9807529"><ele>285.0</ele><time>2026-04-26T10:47:47.063Z</time></trkpt><trkpt lat="43.3480728" lon="11.9806647"><ele>285.0</ele><time>2026-04-26T10:47:48.063Z</time></trkpt><trkpt lat="43.3480283" lon="11.9805824"><ele>285.0</ele><time>2026-04-26T10:47:49.063Z</time></trkpt><trkpt lat="43.3479819" lon="11.9805085"><ele>285.0</ele><time>2026-04-26T10:47:50.063Z</time></trkpt><trkpt lat="43.3479329" lon="11.9804374"><ele>285.0</ele><time>2026-04-26T10:47:51.063Z</time></trkpt><trkpt lat="43.3478857" lon="11.9803679"><ele>285.0</ele><time>2026-04-26T10:47:52.063Z</time></trkpt><trkpt lat="43.3478393" lon="11.9802965"><ele>285.0</ele><time>2026-04-26T10:47:53.063Z</time></trkpt><trkpt lat="43.3477907" lon="11.9802274"><ele>285.0</ele><time>2026-04-26T10:47:54.063Z</time></trkpt><trkpt lat="43.3477438" lon="11.9801501"><ele>285.0</ele><time>2026-04-26T10:47:55.063Z</time></trkpt><trkpt lat="43.3476989" lon="11.9800744"><ele>285.0</ele><time>2026-04-26T10:47:56.063Z</time></trkpt><trkpt lat="43.3476521" lon="11.9799991"><ele>285.0</ele><time>2026-04-26T10:47:57.062Z</time></trkpt><trkpt lat="43.3476058" lon="11.979928"><ele>285.0</ele><time>2026-04-26T10:47:58.063Z</time></trkpt><trkpt lat="43.3475653" lon="11.9798552"><ele>285.0</ele><time>2026-04-26T10:47:59.063Z</time></trkpt><trkpt lat="43.3475279" lon="11.9797784"><ele>285.0</ele><time>2026-04-26T10:48:00.063Z</time></trkpt><trkpt lat="43.3474895" lon="11.9797007"><ele>285.0</ele><time>2026-04-26T10:48:01.063Z</time></trkpt><trkpt lat="43.347454" lon="11.9796229"><ele>285.0</ele><time>2026-04-26T10:48:02.063Z</time></trkpt><trkpt lat="43.3474183" lon="11.9795467"><ele>285.0</ele><time>2026-04-26T10:48:03.063Z</time></trkpt><trkpt lat="43.3473805" lon="11.9794744"><ele>285.0</ele><time>2026-04-26T10:48:04.063Z</time></trkpt><trkpt lat="43.3473461" lon="11.9793997"><ele>285.0</ele><time>2026-04-26T10:48:05.063Z</time></trkpt><trkpt lat="43.3473143" lon="11.9793238"><ele>285.0</ele><time>2026-04-26T10:48:06.063Z</time></trkpt><trkpt lat="43.3472847" lon="11.9792451"><ele>284.85714285714283</ele><time>2026-04-26T10:48:07.063Z</time></trkpt><trkpt lat="43.3472533" lon="11.9791668"><ele>284.7142857142857</ele><time>2026-04-26T10:48:08.063Z</time></trkpt><trkpt lat="43.34722" lon="11.9790906"><ele>284.57142857142856</ele><time>2026-04-26T10:48:09.063Z</time></trkpt><trkpt lat="43.3471853" lon="11.979012"><ele>284.42857142857144</ele><time>2026-04-26T10:48:10.063Z</time></trkpt><trkpt lat="43.3471533" lon="11.9789308"><ele>284.2857142857143</ele><time>2026-04-26T10:48:11.063Z</time></trkpt><trkpt lat="43.3471175" lon="11.9788541"><ele>284.1428571428571</ele><time>2026-04-26T10:48:12.063Z</time></trkpt><trkpt lat="43.3470837" lon="11.9787802"><ele>284.0</ele><time>2026-04-26T10:48:13.063Z</time></trkpt><trkpt lat="43.3470488" lon="11.9787067"><ele>284.59999999999997</ele><time>2026-04-26T10:48:14.063Z</time></trkpt><trkpt lat="43.3469803" lon="11.9785744"><ele>285.2</ele><time>2026-04-26T10:48:16.063Z</time></trkpt><trkpt lat="43.3469208" lon="11.9784591"><ele>285.79999999999995</ele><time>2026-04-26T10:48:18.063Z</time></trkpt><trkpt lat="43.3468679" lon="11.9783461"><ele>286.4</ele><time>2026-04-26T10:48:20.062Z</time></trkpt><trkpt lat="43.3468105" lon="11.9782164"><ele>287.0</ele><time>2026-04-26T10:48:22.063Z</time></trkpt><trkpt lat="43.3467403" lon="11.9780863"><ele>287.0</ele><time>2026-04-26T10:48:24.063Z</time></trkpt><trkpt lat="43.3467015" lon="11.9780151"><ele>287.0</ele><time>2026-04-26T10:48:25.063Z</time></trkpt><trkpt lat="43.3466662" lon="11.9779368"><ele>287.0</ele><time>2026-04-26T10:48:26.063Z</time></trkpt><trkpt lat="43.3466044" lon="11.9777853"><ele>287.0</ele><time>2026-04-26T10:48:28.063Z</time></trkpt><trkpt lat="43.346573" lon="11.977708"><ele>287.0</ele><time>2026-04-26T10:48:29.062Z</time></trkpt><trkpt lat="43.3465444" lon="11.9776304"><ele>287.0</ele><time>2026-04-26T10:48:30.063Z</time></trkpt><trkpt lat="43.3464859" lon="11.9774776"><ele>286.6666666666667</ele><time>2026-04-26T10:48:32.063Z</time></trkpt><trkpt lat="43.346427" lon="11.9773271"><ele>286.33333333333337</ele><time>2026-04-26T10:48:34.063Z</time></trkpt><trkpt lat="43.3463994" lon="11.9772487"><ele>286.0</ele><time>2026-04-26T10:48:35.063Z</time></trkpt><trkpt lat="43.3463743" lon="11.9771671"><ele>285.6666666666667</ele><time>2026-04-26T10:48:36.063Z</time></trkpt><trkpt lat="43.3463495" lon="11.977083"><ele>285.3333333333333</ele><time>2026-04-26T10:48:37.063Z</time></trkpt><trkpt lat="43.3463292" lon="11.9770001"><ele>285.0</ele><time>2026-04-26T10:48:38.063Z</time></trkpt><trkpt lat="43.3462932" lon="11.9768392"><ele>285.0</ele><time>2026-04-26T10:48:40.063Z</time></trkpt><trkpt lat="43.3462607" lon="11.9766806"><ele>285.0</ele><time>2026-04-26T10:48:42.062Z</time></trkpt><trkpt lat="43.3462285" lon="11.9765254"><ele>285.0</ele><time>2026-04-26T10:48:44.063Z</time></trkpt><trkpt lat="43.3461914" lon="11.9763724"><ele>285.0</ele><time>2026-04-26T10:48:46.063Z</time></trkpt><trkpt lat="43.3461579" lon="11.976221"><ele>285.0</ele><time>2026-04-26T10:48:48.063Z</time></trkpt><trkpt lat="43.3461122" lon="11.9760764"><ele>285.0</ele><time>2026-04-26T10:48:50.062Z</time></trkpt><trkpt lat="43.3460539" lon="11.975944"><ele>285.0</ele><time>2026-04-26T10:48:52.063Z</time></trkpt><trkpt lat="43.3459759" lon="11.9758274"><ele>285.0</ele><time>2026-04-26T10:48:54.063Z</time></trkpt><trkpt lat="43.3459095" lon="11.9757004"><ele>285.25</ele><time>2026-04-26T10:48:56.063Z</time></trkpt><trkpt lat="43.3458464" lon="11.9755694"><ele>285.5</ele><time>2026-04-26T10:48:58.062Z</time></trkpt><trkpt lat="43.3457851" lon="11.9754401"><ele>285.75</ele><time>2026-04-26T10:49:00.063Z</time></trkpt><trkpt lat="43.3457166" lon="11.975313"><ele>286.0</ele><time>2026-04-26T10:49:02.063Z</time></trkpt><trkpt lat="43.3456336" lon="11.9751977"><ele>286.0</ele><time>2026-04-26T10:49:04.063Z</time></trkpt><trkpt lat="43.3455412" lon="11.9750921"><ele>286.0</ele><time>2026-04-26T10:49:06.063Z</time></trkpt><trkpt lat="43.3454433" lon="11.974992"><ele>286.0</ele><time>2026-04-26T10:49:08.062Z</time></trkpt><trkpt lat="43.3453415" lon="11.9749036"><ele>286.0</ele><time>2026-04-26T10:49:10.062Z</time></trkpt><trkpt lat="43.345243" lon="11.9748029"><ele>286.25</ele><time>2026-04-26T10:49:12.062Z</time></trkpt><trkpt lat="43.3451487" lon="11.974711"><ele>286.5</ele><time>2026-04-26T10:49:14.063Z</time></trkpt><trkpt lat="43.3450586" lon="11.9746081"><ele>286.75</ele><time>2026-04-26T10:49:16.062Z</time></trkpt><trkpt lat="43.3449972" lon="11.9744729"><ele>287.0</ele><time>2026-04-26T10:49:18.063Z</time></trkpt><trkpt lat="43.3449594" lon="11.9743442"><ele>287.0</ele><time>2026-04-26T10:49:20.063Z</time></trkpt><trkpt lat="43.3449441" lon="11.9742304"><ele>287.0</ele><time>2026-04-26T10:49:22.063Z</time></trkpt><trkpt lat="43.3449278" lon="11.9741088"><ele>287.0</ele><time>2026-04-26T10:49:24.063Z</time></trkpt><trkpt lat="43.3449028" lon="11.9739755"><ele>287.0</ele><time>2026-04-26T10:49:26.063Z</time></trkpt><trkpt lat="43.3448638" lon="11.9738333"><ele>287.0</ele><time>2026-04-26T10:49:28.063Z</time></trkpt><trkpt lat="43.3448061" lon="11.9736807"><ele>287.2</ele><time>2026-04-26T10:49:30.063Z</time></trkpt><trkpt lat="43.3447716" lon="11.973608"><ele>287.4</ele><time>2026-04-26T10:49:31.063Z</time></trkpt><trkpt lat="43.3447086" lon="11.9734622"><ele>287.6</ele><time>2026-04-26T10:49:33.063Z</time></trkpt><trkpt lat="43.3446569" lon="11.9733176"><ele>287.8</ele><time>2026-04-26T10:49:35.063Z</time></trkpt><trkpt lat="43.3446139" lon="11.9731637"><ele>288.0</ele><time>2026-04-26T10:49:37.063Z</time></trkpt><trkpt lat="43.3445805" lon="11.9730037"><ele>288.0</ele><time>2026-04-26T10:49:39.063Z</time></trkpt><trkpt lat="43.3445391" lon="11.9728446"><ele>288.0</ele><time>2026-04-26T10:49:41.063Z</time></trkpt><trkpt lat="43.3445027" lon="11.9726846"><ele>288.0</ele><time>2026-04-26T10:49:43.063Z</time></trkpt><trkpt lat="43.3444695" lon="11.9725278"><ele>288.0</ele><time>2026-04-26T10:49:45.063Z</time></trkpt><trkpt lat="43.3444484" lon="11.9723761"><ele>288.0</ele><time>2026-04-26T10:49:47.063Z</time></trkpt><trkpt lat="43.3444175" lon="11.97223"><ele>288.0</ele><time>2026-04-26T10:49:49.063Z</time></trkpt><trkpt lat="43.344374" lon="11.9720921"><ele>288.0</ele><time>2026-04-26T10:49:51.063Z</time></trkpt><trkpt lat="43.3443209" lon="11.9719544"><ele>288.0</ele><time>2026-04-26T10:49:53.063Z</time></trkpt><trkpt lat="43.3442755" lon="11.9718014"><ele>288.0</ele><time>2026-04-26T10:49:55.063Z</time></trkpt><trkpt lat="43.3442345" lon="11.9716414"><ele>288.0</ele><time>2026-04-26T10:49:57.063Z</time></trkpt><trkpt lat="43.3441778" lon="11.9714897"><ele>288.0</ele><time>2026-04-26T10:49:59.063Z</time></trkpt><trkpt lat="43.3441196" lon="11.9713392"><ele>288.0</ele><time>2026-04-26T10:50:01.063Z</time></trkpt><trkpt lat="43.3440935" lon="11.97126"><ele>288.0</ele><time>2026-04-26T10:50:02.063Z</time></trkpt><trkpt lat="43.344045" lon="11.9711025"><ele>288.0</ele><time>2026-04-26T10:50:04.063Z</time></trkpt><trkpt lat="43.3440035" lon="11.9709386"><ele>288.0</ele><time>2026-04-26T10:50:06.062Z</time></trkpt><trkpt lat="43.3439847" lon="11.9708466"><ele>288.0</ele><time>2026-04-26T10:50:07.063Z</time></trkpt><trkpt lat="43.3439692" lon="11.9707557"><ele>288.0</ele><time>2026-04-26T10:50:08.062Z</time></trkpt><trkpt lat="43.3439584" lon="11.9706621"><ele>288.0</ele><time>2026-04-26T10:50:09.063Z</time></trkpt><trkpt lat="43.343948" lon="11.9705671"><ele>288.0</ele><time>2026-04-26T10:50:10.063Z</time></trkpt><trkpt lat="43.3439425" lon="11.9704692"><ele>286.8571428571429</ele><time>2026-04-26T10:50:11.063Z</time></trkpt><trkpt lat="43.3439414" lon="11.9703701"><ele>285.7142857142857</ele><time>2026-04-26T10:50:12.063Z</time></trkpt><trkpt lat="43.3439375" lon="11.9702732"><ele>284.57142857142856</ele><time>2026-04-26T10:50:13.063Z</time></trkpt><trkpt lat="43.3439378" lon="11.9701782"><ele>283.42857142857144</ele><time>2026-04-26T10:50:14.063Z</time></trkpt><trkpt lat="43.3439376" lon="11.9700841"><ele>282.2857142857143</ele><time>2026-04-26T10:50:15.063Z</time></trkpt><trkpt lat="43.3439329" lon="11.9699931"><ele>281.14285714285717</ele><time>2026-04-26T10:50:16.063Z</time></trkpt><trkpt lat="43.3439212" lon="11.9699073"><ele>280.0</ele><time>2026-04-26T10:50:17.062Z</time></trkpt><trkpt lat="43.3439065" lon="11.9698212"><ele>279.85714285714283</ele><time>2026-04-26T10:50:18.063Z</time></trkpt><trkpt lat="43.3438906" lon="11.9697367"><ele>279.7142857142857</ele><time>2026-04-26T10:50:19.063Z</time></trkpt><trkpt lat="43.3438739" lon="11.9696531"><ele>279.57142857142856</ele><time>2026-04-26T10:50:20.063Z</time></trkpt><trkpt lat="43.3438572" lon="11.9695685"><ele>279.42857142857144</ele><time>2026-04-26T10:50:21.063Z</time></trkpt><trkpt lat="43.3438379" lon="11.9694847"><ele>279.2857142857143</ele><time>2026-04-26T10:50:22.063Z</time></trkpt><trkpt lat="43.3438137" lon="11.9694035"><ele>279.1428571428571</ele><time>2026-04-26T10:50:23.063Z</time></trkpt><trkpt lat="43.3437658" lon="11.9692431"><ele>279.0</ele><time>2026-04-26T10:50:25.063Z</time></trkpt><trkpt lat="43.3437464" lon="11.9691589"><ele>279.0</ele><time>2026-04-26T10:50:26.063Z</time></trkpt><trkpt lat="43.3437265" lon="11.9690754"><ele>279.0</ele><time>2026-04-26T10:50:27.063Z</time></trkpt><trkpt lat="43.3436931" lon="11.9689081"><ele>279.0</ele><time>2026-04-26T10:50:29.063Z</time></trkpt><trkpt lat="43.3436783" lon="11.9688219"><ele>279.0</ele><time>2026-04-26T10:50:30.063Z</time></trkpt><trkpt lat="43.343665" lon="11.9687341"><ele>279.0</ele><time>2026-04-26T10:50:31.063Z</time></trkpt><trkpt lat="43.343654" lon="11.9686451"><ele>279.0</ele><time>2026-04-26T10:50:32.063Z</time></trkpt><trkpt lat="43.3436444" lon="11.9685556"><ele>279.0</ele><time>2026-04-26T10:50:33.063Z</time></trkpt><trkpt lat="43.3436382" lon="11.9684684"><ele>279.0</ele><time>2026-04-26T10:50:34.063Z</time></trkpt><trkpt lat="43.3436288" lon="11.968377"><ele>279.0</ele><time>2026-04-26T10:50:35.063Z</time></trkpt><trkpt lat="43.3436025" lon="11.9682036"><ele>279.0</ele><time>2026-04-26T10:50:37.063Z</time></trkpt><trkpt lat="43.3435688" lon="11.9680378"><ele>279.0</ele><time>2026-04-26T10:50:39.063Z</time></trkpt><trkpt lat="43.3435532" lon="11.9679478"><ele>278.85714285714283</ele><time>2026-04-26T10:50:40.063Z</time></trkpt><trkpt lat="43.3435349" lon="11.9678597"><ele>278.7142857142857</ele><time>2026-04-26T10:50:41.063Z</time></trkpt><trkpt lat="43.3435152" lon="11.9677761"><ele>278.57142857142856</ele><time>2026-04-26T10:50:42.063Z</time></trkpt><trkpt lat="43.3434989" lon="11.9676884"><ele>278.42857142857144</ele><time>2026-04-26T10:50:43.063Z</time></trkpt><trkpt lat="43.3434839" lon="11.9675993"><ele>278.2857142857143</ele><time>2026-04-26T10:50:44.063Z</time></trkpt><trkpt lat="43.3434743" lon="11.9675061"><ele>278.1428571428571</ele><time>2026-04-26T10:50:45.063Z</time></trkpt><trkpt lat="43.343462" lon="11.9674149"><ele>278.0</ele><time>2026-04-26T10:50:46.063Z</time></trkpt><trkpt lat="43.3434461" lon="11.967322"><ele>277.85714285714283</ele><time>2026-04-26T10:50:47.062Z</time></trkpt><trkpt lat="43.3434244" lon="11.967232"><ele>277.7142857142857</ele><time>2026-04-26T10:50:48.063Z</time></trkpt><trkpt lat="43.3434036" lon="11.9671442"><ele>277.57142857142856</ele><time>2026-04-26T10:50:49.063Z</time></trkpt><trkpt lat="43.3433772" lon="11.9670564"><ele>277.42857142857144</ele><time>2026-04-26T10:50:50.063Z</time></trkpt><trkpt lat="43.3433513" lon="11.9669717"><ele>277.2857142857143</ele><time>2026-04-26T10:50:51.063Z</time></trkpt><trkpt lat="43.3433284" lon="11.9668859"><ele>277.1428571428571</ele><time>2026-04-26T10:50:52.063Z</time></trkpt><trkpt lat="43.3433048" lon="11.9667998"><ele>277.0</ele><time>2026-04-26T10:50:53.063Z</time></trkpt><trkpt lat="43.3432834" lon="11.9667156"><ele>276.85714285714283</ele><time>2026-04-26T10:50:54.063Z</time></trkpt><trkpt lat="43.3432655" lon="11.9666259"><ele>276.71428571428567</ele><time>2026-04-26T10:50:55.063Z</time></trkpt><trkpt lat="43.3432427" lon="11.9665354"><ele>276.57142857142856</ele><time>2026-04-26T10:50:56.063Z</time></trkpt><trkpt lat="43.3432161" lon="11.966448"><ele>276.42857142857144</ele><time>2026-04-26T10:50:57.063Z</time></trkpt><trkpt lat="43.3431908" lon="11.9663554"><ele>276.28571428571433</ele><time>2026-04-26T10:50:58.062Z</time></trkpt><trkpt lat="43.3431648" lon="11.9662654"><ele>276.14285714285717</ele><time>2026-04-26T10:50:59.063Z</time></trkpt><trkpt lat="43.3431342" lon="11.9661759"><ele>276.0</ele><time>2026-04-26T10:51:00.063Z</time></trkpt><trkpt lat="43.3431035" lon="11.9660864"><ele>276.0</ele><time>2026-04-26T10:51:01.063Z</time></trkpt><trkpt lat="43.3430718" lon="11.9659966"><ele>276.0</ele><time>2026-04-26T10:51:02.063Z</time></trkpt><trkpt lat="43.3430423" lon="11.9659082"><ele>276.0</ele><time>2026-04-26T10:51:03.063Z</time></trkpt><trkpt lat="43.3430137" lon="11.9658191"><ele>276.0</ele><time>2026-04-26T10:51:04.063Z</time></trkpt><trkpt lat="43.3429856" lon="11.9657251"><ele>276.0</ele><time>2026-04-26T10:51:05.063Z</time></trkpt><trkpt lat="43.3429589" lon="11.9656356"><ele>276.0</ele><time>2026-04-26T10:51:06.063Z</time></trkpt><trkpt lat="43.3429356" lon="11.9655466"><ele>276.0</ele><time>2026-04-26T10:51:07.063Z</time></trkpt><trkpt lat="43.3429106" lon="11.9654602"><ele>276.0</ele><time>2026-04-26T10:51:08.063Z</time></trkpt><trkpt lat="43.3428825" lon="11.9653741"><ele>276.0</ele><time>2026-04-26T10:51:09.063Z</time></trkpt><trkpt lat="43.3428542" lon="11.9652859"><ele>276.0</ele><time>2026-04-26T10:51:10.063Z</time></trkpt><trkpt lat="43.3428218" lon="11.9651974"><ele>276.0</ele><time>2026-04-26T10:51:11.063Z</time></trkpt><trkpt lat="43.3427888" lon="11.9651149"><ele>276.0</ele><time>2026-04-26T10:51:12.063Z</time></trkpt><trkpt lat="43.3427563" lon="11.9650308"><ele>276.0</ele><time>2026-04-26T10:51:13.062Z</time></trkpt><trkpt lat="43.3427201" lon="11.9649536"><ele>276.0</ele><time>2026-04-26T10:51:14.063Z</time></trkpt><trkpt lat="43.3426882" lon="11.9648698"><ele>275.8571428571429</ele><time>2026-04-26T10:51:15.063Z</time></trkpt><trkpt lat="43.3426597" lon="11.9647883"><ele>275.7142857142857</ele><time>2026-04-26T10:51:16.063Z</time></trkpt><trkpt lat="43.3426351" lon="11.9647056"><ele>275.57142857142856</ele><time>2026-04-26T10:51:17.063Z</time></trkpt><trkpt lat="43.34261" lon="11.9646224"><ele>275.42857142857144</ele><time>2026-04-26T10:51:18.063Z</time></trkpt><trkpt lat="43.3425841" lon="11.9645398"><ele>275.2857142857143</ele><time>2026-04-26T10:51:19.063Z</time></trkpt><trkpt lat="43.3425569" lon="11.9644579"><ele>275.14285714285717</ele><time>2026-04-26T10:51:20.063Z</time></trkpt><trkpt lat="43.3425391" lon="11.9643728"><ele>275.0</ele><time>2026-04-26T10:51:21.063Z</time></trkpt><trkpt lat="43.3425232" lon="11.9642886"><ele>274.5</ele><time>2026-04-26T10:51:22.063Z</time></trkpt><trkpt lat="43.34249" lon="11.9641259"><ele>274.0</ele><time>2026-04-26T10:51:24.063Z</time></trkpt><trkpt lat="43.3424625" lon="11.96396"><ele>273.5</ele><time>2026-04-26T10:51:26.063Z</time></trkpt><trkpt lat="43.3424354" lon="11.9638045"><ele>273.0</ele><time>2026-04-26T10:51:28.063Z</time></trkpt><trkpt lat="43.3424157" lon="11.9636461"><ele>273.0</ele><time>2026-04-26T10:51:30.063Z</time></trkpt><trkpt lat="43.3424018" lon="11.9634865"><ele>273.0</ele><time>2026-04-26T10:51:32.062Z</time></trkpt><trkpt lat="43.3423833" lon="11.9633242"><ele>273.0</ele><time>2026-04-26T10:51:34.063Z</time></trkpt><trkpt lat="43.3423552" lon="11.9631614"><ele>273.0</ele><time>2026-04-26T10:51:36.062Z</time></trkpt><trkpt lat="43.3423295" lon="11.9630006"><ele>273.0</ele><time>2026-04-26T10:51:38.063Z</time></trkpt><trkpt lat="43.3423056" lon="11.9628478"><ele>273.0</ele><time>2026-04-26T10:51:40.062Z</time></trkpt><trkpt lat="43.342281" lon="11.9627102"><ele>273.0</ele><time>2026-04-26T10:51:42.063Z</time></trkpt><trkpt lat="43.3422569" lon="11.9625827"><ele>273.0</ele><time>2026-04-26T10:51:44.063Z</time></trkpt><trkpt lat="43.3422258" lon="11.9624832"><ele>273.0</ele><time>2026-04-26T10:51:46.063Z</time></trkpt><trkpt lat="43.342197" lon="11.9623881"><ele>273.6</ele><time>2026-04-26T10:51:48.063Z</time></trkpt><trkpt lat="43.342166" lon="11.9622712"><ele>274.20000000000005</ele><time>2026-04-26T10:51:50.063Z</time></trkpt><trkpt lat="43.3421274" lon="11.9621366"><ele>274.8</ele><time>2026-04-26T10:51:52.063Z</time></trkpt><trkpt lat="43.3420638" lon="11.961995"><ele>275.40000000000003</ele><time>2026-04-26T10:51:54.063Z</time></trkpt><trkpt lat="43.3419964" lon="11.9618593"><ele>276.0</ele><time>2026-04-26T10:51:56.063Z</time></trkpt><trkpt lat="43.3419203" lon="11.9617347"><ele>275.25</ele><time>2026-04-26T10:51:58.063Z</time></trkpt><trkpt lat="43.3418402" lon="11.9616141"><ele>274.5</ele><time>2026-04-26T10:52:00.063Z</time></trkpt><trkpt lat="43.3417724" lon="11.9614901"><ele>273.75</ele><time>2026-04-26T10:52:02.063Z</time></trkpt><trkpt lat="43.3417014" lon="11.9613656"><ele>273.0</ele><time>2026-04-26T10:52:04.063Z</time></trkpt><trkpt lat="43.3416261" lon="11.9612353"><ele>273.0</ele><time>2026-04-26T10:52:06.063Z</time></trkpt><trkpt lat="43.3415871" lon="11.9611635"><ele>273.0</ele><time>2026-04-26T10:52:07.063Z</time></trkpt><trkpt lat="43.341554" lon="11.9610873"><ele>273.0</ele><time>2026-04-26T10:52:08.063Z</time></trkpt><trkpt lat="43.3415235" lon="11.9610079"><ele>273.0</ele><time>2026-04-26T10:52:09.063Z</time></trkpt><trkpt lat="43.3414934" lon="11.9609306"><ele>273.0</ele><time>2026-04-26T10:52:10.063Z</time></trkpt><trkpt lat="43.3414654" lon="11.9608516"><ele>273.0</ele><time>2026-04-26T10:52:11.063Z</time></trkpt><trkpt lat="43.3414405" lon="11.9607711"><ele>273.0</ele><time>2026-04-26T10:52:12.063Z</time></trkpt><trkpt lat="43.3414045" lon="11.9606095"><ele>273.0</ele><time>2026-04-26T10:52:14.063Z</time></trkpt><trkpt lat="43.3413917" lon="11.960441"><ele>273.0</ele><time>2026-04-26T10:52:16.063Z</time></trkpt><trkpt lat="43.3413875" lon="11.9602793"><ele>273.0</ele><time>2026-04-26T10:52:18.063Z</time></trkpt><trkpt lat="43.341387" lon="11.9601131"><ele>273.0</ele><time>2026-04-26T10:52:20.062Z</time></trkpt><trkpt lat="43.3413765" lon="11.9599478"><ele>273.0</ele><time>2026-04-26T10:52:22.063Z</time></trkpt><trkpt lat="43.3413679" lon="11.9597918"><ele>273.0</ele><time>2026-04-26T10:52:24.063Z</time></trkpt><trkpt lat="43.3413543" lon="11.9596339"><ele>273.0</ele><time>2026-04-26T10:52:26.063Z</time></trkpt><trkpt lat="43.3413513" lon="11.9594737"><ele>273.0</ele><time>2026-04-26T10:52:28.063Z</time></trkpt><trkpt lat="43.341391" lon="11.9593233"><ele>272.4</ele><time>2026-04-26T10:52:30.063Z</time></trkpt><trkpt lat="43.3414543" lon="11.9591741"><ele>271.8</ele><time>2026-04-26T10:52:32.063Z</time></trkpt><trkpt lat="43.3414889" lon="11.9591007"><ele>271.2</ele><time>2026-04-26T10:52:33.063Z</time></trkpt><trkpt lat="43.3415242" lon="11.9590274"><ele>270.6</ele><time>2026-04-26T10:52:34.063Z</time></trkpt><trkpt lat="43.3415888" lon="11.9588796"><ele>270.0</ele><time>2026-04-26T10:52:36.063Z</time></trkpt><trkpt lat="43.3416395" lon="11.9587187"><ele>270.0</ele><time>2026-04-26T10:52:38.063Z</time></trkpt><trkpt lat="43.3416778" lon="11.958549"><ele>270.0</ele><time>2026-04-26T10:52:40.063Z</time></trkpt><trkpt lat="43.3416884" lon="11.9584629"><ele>270.0</ele><time>2026-04-26T10:52:41.062Z</time></trkpt><trkpt lat="43.3416926" lon="11.9583747"><ele>270.0</ele><time>2026-04-26T10:52:42.063Z</time></trkpt><trkpt lat="43.3416923" lon="11.9582834"><ele>270.0</ele><time>2026-04-26T10:52:43.063Z</time></trkpt><trkpt lat="43.3416924" lon="11.9581946"><ele>270.0</ele><time>2026-04-26T10:52:44.063Z</time></trkpt><trkpt lat="43.3416894" lon="11.9581052"><ele>269.5</ele><time>2026-04-26T10:52:45.063Z</time></trkpt><trkpt lat="43.3416898" lon="11.9580158"><ele>269.0</ele><time>2026-04-26T10:52:46.062Z</time></trkpt><trkpt lat="43.341694" lon="11.9578403"><ele>268.5</ele><time>2026-04-26T10:52:48.063Z</time></trkpt><trkpt lat="43.3416967" lon="11.9577495"><ele>268.0</ele><time>2026-04-26T10:52:49.063Z</time></trkpt><trkpt lat="43.3416985" lon="11.9576585"><ele>267.5</ele><time>2026-04-26T10:52:50.063Z</time></trkpt><trkpt lat="43.3417007" lon="11.9575698"><ele>267.0</ele><time>2026-04-26T10:52:51.063Z</time></trkpt><trkpt lat="43.3417077" lon="11.9574805"><ele>267.0</ele><time>2026-04-26T10:52:52.063Z</time></trkpt><trkpt lat="43.3417169" lon="11.9573119"><ele>267.0</ele><time>2026-04-26T10:52:54.063Z</time></trkpt><trkpt lat="43.3417325" lon="11.9571436"><ele>267.0</ele><time>2026-04-26T10:52:56.063Z</time></trkpt><trkpt lat="43.3417445" lon="11.9569737"><ele>267.0</ele><time>2026-04-26T10:52:58.063Z</time></trkpt><trkpt lat="43.3417552" lon="11.9568052"><ele>267.0</ele><time>2026-04-26T10:53:00.063Z</time></trkpt><trkpt lat="43.3417568" lon="11.9566401"><ele>267.0</ele><time>2026-04-26T10:53:02.063Z</time></trkpt><trkpt lat="43.3417414" lon="11.9564747"><ele>267.0</ele><time>2026-04-26T10:53:04.063Z</time></trkpt><trkpt lat="43.341744" lon="11.9563137"><ele>267.0</ele><time>2026-04-26T10:53:06.063Z</time></trkpt><trkpt lat="43.3417595" lon="11.9562288"><ele>267.0</ele><time>2026-04-26T10:53:07.063Z</time></trkpt><trkpt lat="43.3418017" lon="11.9560684"><ele>267.0</ele><time>2026-04-26T10:53:09.063Z</time></trkpt><trkpt lat="43.3418431" lon="11.955907"><ele>267.0</ele><time>2026-04-26T10:53:11.063Z</time></trkpt><trkpt lat="43.3418656" lon="11.9557489"><ele>267.0</ele><time>2026-04-26T10:53:13.063Z</time></trkpt><trkpt lat="43.3418678" lon="11.9555856"><ele>267.0</ele><time>2026-04-26T10:53:15.063Z</time></trkpt><trkpt lat="43.3418451" lon="11.9554301"><ele>267.0</ele><time>2026-04-26T10:53:17.063Z</time></trkpt><trkpt lat="43.3417936" lon="11.9552864"><ele>267.0</ele><time>2026-04-26T10:53:19.063Z</time></trkpt><trkpt lat="43.341727" lon="11.9551476"><ele>267.0</ele><time>2026-04-26T10:53:21.062Z</time></trkpt><trkpt lat="43.3416573" lon="11.9550129"><ele>267.0</ele><time>2026-04-26T10:53:23.062Z</time></trkpt><trkpt lat="43.3415799" lon="11.9548902"><ele>267.0</ele><time>2026-04-26T10:53:25.063Z</time></trkpt><trkpt lat="43.341504" lon="11.9547645"><ele>267.0</ele><time>2026-04-26T10:53:27.063Z</time></trkpt><trkpt lat="43.3414256" lon="11.9546491"><ele>267.0</ele><time>2026-04-26T10:53:29.063Z</time></trkpt><trkpt lat="43.3413493" lon="11.9545293"><ele>267.0</ele><time>2026-04-26T10:53:31.063Z</time></trkpt><trkpt lat="43.3412844" lon="11.9543913"><ele>267.25</ele><time>2026-04-26T10:53:33.063Z</time></trkpt><trkpt lat="43.3412139" lon="11.9542662"><ele>267.5</ele><time>2026-04-26T10:53:35.063Z</time></trkpt><trkpt lat="43.3411386" lon="11.9541479"><ele>267.75</ele><time>2026-04-26T10:53:37.063Z</time></trkpt><trkpt lat="43.3410495" lon="11.9540445"><ele>268.0</ele><time>2026-04-26T10:53:39.063Z</time></trkpt><trkpt lat="43.3409615" lon="11.9539441"><ele>268.2</ele><time>2026-04-26T10:53:41.063Z</time></trkpt><trkpt lat="43.3408724" lon="11.9538537"><ele>268.4</ele><time>2026-04-26T10:53:43.063Z</time></trkpt><trkpt lat="43.3407894" lon="11.9537641"><ele>268.59999999999997</ele><time>2026-04-26T10:53:45.063Z</time></trkpt><trkpt lat="43.340715" lon="11.9536669"><ele>268.8</ele><time>2026-04-26T10:53:47.063Z</time></trkpt><trkpt lat="43.3406419" lon="11.9535855"><ele>269.0</ele><time>2026-04-26T10:53:49.063Z</time></trkpt><trkpt lat="43.3405775" lon="11.9535148"><ele>269.33333333333337</ele><time>2026-04-26T10:53:51.063Z</time></trkpt><trkpt lat="43.3405318" lon="11.9534476"><ele>269.6666666666667</ele><time>2026-04-26T10:53:53.062Z</time></trkpt><trkpt lat="43.3404834" lon="11.9533463"><ele>270.0</ele><time>2026-04-26T10:53:56.063Z</time></trkpt><trkpt lat="43.3404297" lon="11.953246"><ele>270.3333333333333</ele><time>2026-04-26T10:53:58.063Z</time></trkpt><trkpt lat="43.3403478" lon="11.9531133"><ele>270.66666666666663</ele><time>2026-04-26T10:54:00.063Z</time></trkpt><trkpt lat="43.3403027" lon="11.9530414"><ele>271.0</ele><time>2026-04-26T10:54:01.063Z</time></trkpt><trkpt lat="43.3402581" lon="11.9529655"><ele>271.0</ele><time>2026-04-26T10:54:02.063Z</time></trkpt><trkpt lat="43.3402073" lon="11.9528861"><ele>271.0</ele><time>2026-04-26T10:54:03.063Z</time></trkpt><trkpt lat="43.3401605" lon="11.9528064"><ele>271.0</ele><time>2026-04-26T10:54:04.063Z</time></trkpt><trkpt lat="43.3401134" lon="11.952725"><ele>271.0</ele><time>2026-04-26T10:54:05.062Z</time></trkpt><trkpt lat="43.3400657" lon="11.9526354"><ele>271.0</ele><time>2026-04-26T10:54:06.063Z</time></trkpt><trkpt lat="43.3400202" lon="11.9525461"><ele>271.0</ele><time>2026-04-26T10:54:07.063Z</time></trkpt><trkpt lat="43.3399774" lon="11.9524573"><ele>270.42857142857144</ele><time>2026-04-26T10:54:08.063Z</time></trkpt><trkpt lat="43.3399382" lon="11.9523666"><ele>269.8571428571429</ele><time>2026-04-26T10:54:09.063Z</time></trkpt><trkpt lat="43.339905" lon="11.9522747"><ele>269.28571428571433</ele><time>2026-04-26T10:54:10.063Z</time></trkpt><trkpt lat="43.3398725" lon="11.9521806"><ele>268.7142857142857</ele><time>2026-04-26T10:54:11.063Z</time></trkpt><trkpt lat="43.3398404" lon="11.952093"><ele>268.14285714285717</ele><time>2026-04-26T10:54:12.063Z</time></trkpt><trkpt lat="43.3398073" lon="11.9520035"><ele>267.5714285714286</ele><time>2026-04-26T10:54:13.063Z</time></trkpt><trkpt lat="43.3397742" lon="11.9519115"><ele>267.0</ele><time>2026-04-26T10:54:14.063Z</time></trkpt><trkpt lat="43.339742" lon="11.951821"><ele>266.8571428571429</ele><time>2026-04-26T10:54:15.063Z</time></trkpt><trkpt lat="43.339706" lon="11.9517333"><ele>266.7142857142857</ele><time>2026-04-26T10:54:16.063Z</time></trkpt><trkpt lat="43.339672" lon="11.9516463"><ele>266.57142857142856</ele><time>2026-04-26T10:54:17.063Z</time></trkpt><trkpt lat="43.3396393" lon="11.9515568"><ele>266.42857142857144</ele><time>2026-04-26T10:54:18.063Z</time></trkpt><trkpt lat="43.3396049" lon="11.9514703"><ele>266.2857142857143</ele><time>2026-04-26T10:54:19.063Z</time></trkpt><trkpt lat="43.3395729" lon="11.9513854"><ele>266.14285714285717</ele><time>2026-04-26T10:54:20.062Z</time></trkpt><trkpt lat="43.339536" lon="11.9513005"><ele>266.0</ele><time>2026-04-26T10:54:21.063Z</time></trkpt><trkpt lat="43.3395019" lon="11.9512154"><ele>265.85714285714283</ele><time>2026-04-26T10:54:22.063Z</time></trkpt><trkpt lat="43.3394695" lon="11.9511291"><ele>265.7142857142857</ele><time>2026-04-26T10:54:23.063Z</time></trkpt><trkpt lat="43.3394359" lon="11.9510434"><ele>265.57142857142856</ele><time>2026-04-26T10:54:24.063Z</time></trkpt><trkpt lat="43.3394037" lon="11.9509584"><ele>265.42857142857144</ele><time>2026-04-26T10:54:25.063Z</time></trkpt><trkpt lat="43.3393716" lon="11.9508731"><ele>265.2857142857143</ele><time>2026-04-26T10:54:26.063Z</time></trkpt><trkpt lat="43.3393382" lon="11.9507885"><ele>265.1428571428571</ele><time>2026-04-26T10:54:27.063Z</time></trkpt><trkpt lat="43.3393049" lon="11.9507041"><ele>265.0</ele><time>2026-04-26T10:54:28.063Z</time></trkpt><trkpt lat="43.3392726" lon="11.9506178"><ele>264.71428571428567</ele><time>2026-04-26T10:54:29.063Z</time></trkpt><trkpt lat="43.3392392" lon="11.9505348"><ele>264.42857142857144</ele><time>2026-04-26T10:54:30.063Z</time></trkpt><trkpt lat="43.3392066" lon="11.9504534"><ele>264.1428571428571</ele><time>2026-04-26T10:54:31.063Z</time></trkpt><trkpt lat="43.3391752" lon="11.9503703"><ele>263.85714285714283</ele><time>2026-04-26T10:54:32.063Z</time></trkpt><trkpt lat="43.3391443" lon="11.9502871"><ele>263.57142857142856</ele><time>2026-04-26T10:54:33.063Z</time></trkpt><trkpt lat="43.339114" lon="11.9502029"><ele>263.2857142857143</ele><time>2026-04-26T10:54:34.063Z</time></trkpt><trkpt lat="43.3390792" lon="11.9501236"><ele>263.0</ele><time>2026-04-26T10:54:35.063Z</time></trkpt><trkpt lat="43.339041" lon="11.9500485"><ele>263.2</ele><time>2026-04-26T10:54:36.063Z</time></trkpt><trkpt lat="43.3390063" lon="11.9499724"><ele>263.4</ele><time>2026-04-26T10:54:37.062Z</time></trkpt><trkpt lat="43.3389737" lon="11.9498978"><ele>263.59999999999997</ele><time>2026-04-26T10:54:38.063Z</time></trkpt><trkpt lat="43.3389071" lon="11.9497544"><ele>263.8</ele><time>2026-04-26T10:54:40.063Z</time></trkpt><trkpt lat="43.3388407" lon="11.9496164"><ele>264.0</ele><time>2026-04-26T10:54:42.063Z</time></trkpt><trkpt lat="43.3387713" lon="11.9494795"><ele>264.2</ele><time>2026-04-26T10:54:44.063Z</time></trkpt><trkpt lat="43.338718" lon="11.9493423"><ele>264.4</ele><time>2026-04-26T10:54:46.063Z</time></trkpt><trkpt lat="43.3386852" lon="11.9492032"><ele>264.6</ele><time>2026-04-26T10:54:48.063Z</time></trkpt><trkpt lat="43.3386886" lon="11.9490599"><ele>264.8</ele><time>2026-04-26T10:54:50.063Z</time></trkpt><trkpt lat="43.3387134" lon="11.9489271"><ele>265.0</ele><time>2026-04-26T10:54:52.063Z</time></trkpt><trkpt lat="43.3387699" lon="11.9488078"><ele>265.25</ele><time>2026-04-26T10:54:54.063Z</time></trkpt><trkpt lat="43.3388307" lon="11.9486784"><ele>265.5</ele><time>2026-04-26T10:54:56.063Z</time></trkpt><trkpt lat="43.3388972" lon="11.9485395"><ele>265.75</ele><time>2026-04-26T10:54:58.063Z</time></trkpt><trkpt lat="43.3389598" lon="11.9484052"><ele>266.0</ele><time>2026-04-26T10:55:00.063Z</time></trkpt><trkpt lat="43.3390174" lon="11.9482777"><ele>266.0</ele><time>2026-04-26T10:55:02.062Z</time></trkpt><trkpt lat="43.339075" lon="11.9481524"><ele>266.0</ele><time>2026-04-26T10:55:04.062Z</time></trkpt><trkpt lat="43.3391235" lon="11.9480115"><ele>266.0</ele><time>2026-04-26T10:55:06.063Z</time></trkpt><trkpt lat="43.3391755" lon="11.9478759"><ele>266.0</ele><time>2026-04-26T10:55:08.063Z</time></trkpt><trkpt lat="43.3392259" lon="11.9477577"><ele>266.0</ele><time>2026-04-26T10:55:10.063Z</time></trkpt><trkpt lat="43.3392638" lon="11.9476329"><ele>265.6666666666667</ele><time>2026-04-26T10:55:12.063Z</time></trkpt><trkpt lat="43.3393007" lon="11.9475133"><ele>265.33333333333337</ele><time>2026-04-26T10:55:14.063Z</time></trkpt><trkpt lat="43.3393353" lon="11.947391"><ele>265.0</ele><time>2026-04-26T10:55:16.063Z</time></trkpt><trkpt lat="43.3393816" lon="11.9472578"><ele>264.6666666666667</ele><time>2026-04-26T10:55:18.063Z</time></trkpt><trkpt lat="43.3394089" lon="11.9471751"><ele>264.3333333333333</ele><time>2026-04-26T10:55:19.063Z</time></trkpt><trkpt lat="43.3394366" lon="11.9470884"><ele>264.0</ele><time>2026-04-26T10:55:20.063Z</time></trkpt><trkpt lat="43.3394695" lon="11.9469987"><ele>264.0</ele><time>2026-04-26T10:55:21.063Z</time></trkpt><trkpt lat="43.3395037" lon="11.9469038"><ele>264.0</ele><time>2026-04-26T10:55:22.063Z</time></trkpt><trkpt lat="43.3395368" lon="11.9468115"><ele>264.0</ele><time>2026-04-26T10:55:23.063Z</time></trkpt><trkpt lat="43.3395666" lon="11.9467208"><ele>264.0</ele><time>2026-04-26T10:55:24.063Z</time></trkpt><trkpt lat="43.3395944" lon="11.9466315"><ele>264.0</ele><time>2026-04-26T10:55:25.063Z</time></trkpt><trkpt lat="43.3396212" lon="11.9465428"><ele>264.0</ele><time>2026-04-26T10:55:26.063Z</time></trkpt><trkpt lat="43.3396495" lon="11.9464507"><ele>264.0</ele><time>2026-04-26T10:55:27.063Z</time></trkpt><trkpt lat="43.339678" lon="11.9463586"><ele>263.85714285714283</ele><time>2026-04-26T10:55:28.063Z</time></trkpt><trkpt lat="43.3397071" lon="11.9462658"><ele>263.7142857142857</ele><time>2026-04-26T10:55:29.063Z</time></trkpt><trkpt lat="43.3397365" lon="11.9461773"><ele>263.57142857142856</ele><time>2026-04-26T10:55:30.063Z</time></trkpt><trkpt lat="43.3397684" lon="11.9460915"><ele>263.42857142857144</ele><time>2026-04-26T10:55:31.062Z</time></trkpt><trkpt lat="43.3397979" lon="11.9460043"><ele>263.2857142857143</ele><time>2026-04-26T10:55:32.062Z</time></trkpt><trkpt lat="43.3398278" lon="11.945917"><ele>263.1428571428571</ele><time>2026-04-26T10:55:33.063Z</time></trkpt><trkpt lat="43.3398547" lon="11.9458324"><ele>263.0</ele><time>2026-04-26T10:55:34.063Z</time></trkpt><trkpt lat="43.3398769" lon="11.9457503"><ele>263.0</ele><time>2026-04-26T10:55:35.063Z</time></trkpt><trkpt lat="43.3398992" lon="11.9456654"><ele>263.0</ele><time>2026-04-26T10:55:36.063Z</time></trkpt><trkpt lat="43.3399463" lon="11.9455048"><ele>263.0</ele><time>2026-04-26T10:55:38.063Z</time></trkpt><trkpt lat="43.3399917" lon="11.9453513"><ele>263.0</ele><time>2026-04-26T10:55:40.063Z</time></trkpt><trkpt lat="43.3400414" lon="11.9452085"><ele>263.0</ele><time>2026-04-26T10:55:42.063Z</time></trkpt><trkpt lat="43.3400844" lon="11.9450515"><ele>263.2</ele><time>2026-04-26T10:55:44.063Z</time></trkpt><trkpt lat="43.340112" lon="11.9448929"><ele>263.4</ele><time>2026-04-26T10:55:46.063Z</time></trkpt><trkpt lat="43.3401425" lon="11.9447266"><ele>263.59999999999997</ele><time>2026-04-26T10:55:48.062Z</time></trkpt><trkpt lat="43.3401621" lon="11.944644"><ele>263.8</ele><time>2026-04-26T10:55:49.063Z</time></trkpt><trkpt lat="43.3401883" lon="11.9445585"><ele>264.0</ele><time>2026-04-26T10:55:50.062Z</time></trkpt><trkpt lat="43.3402355" lon="11.9444052"><ele>264.0</ele><time>2026-04-26T10:55:52.063Z</time></trkpt><trkpt lat="43.340268" lon="11.9442383"><ele>264.0</ele><time>2026-04-26T10:55:54.063Z</time></trkpt><trkpt lat="43.3402819" lon="11.9441516"><ele>264.0</ele><time>2026-04-26T10:55:55.063Z</time></trkpt><trkpt lat="43.3402977" lon="11.9440639"><ele>264.0</ele><time>2026-04-26T10:55:56.063Z</time></trkpt><trkpt lat="43.3403278" lon="11.9438965"><ele>264.0</ele><time>2026-04-26T10:55:58.063Z</time></trkpt><trkpt lat="43.3403862" lon="11.9437431"><ele>263.85714285714283</ele><time>2026-04-26T10:56:00.063Z</time></trkpt><trkpt lat="43.3404324" lon="11.9436724"><ele>263.7142857142857</ele><time>2026-04-26T10:56:01.063Z</time></trkpt><trkpt lat="43.3404838" lon="11.9436089"><ele>263.57142857142856</ele><time>2026-04-26T10:56:02.062Z</time></trkpt><trkpt lat="43.3405361" lon="11.9435503"><ele>263.42857142857144</ele><time>2026-04-26T10:56:03.062Z</time></trkpt><trkpt lat="43.3405918" lon="11.943494"><ele>263.2857142857143</ele><time>2026-04-26T10:56:04.062Z</time></trkpt><trkpt lat="43.3406483" lon="11.9434425"><ele>263.1428571428571</ele><time>2026-04-26T10:56:05.062Z</time></trkpt><trkpt lat="43.3407039" lon="11.9433944"><ele>263.0</ele><time>2026-04-26T10:56:06.062Z</time></trkpt><trkpt lat="43.3407586" lon="11.9433445"><ele>263.0</ele><time>2026-04-26T10:56:07.062Z</time></trkpt><trkpt lat="43.3408118" lon="11.9432973"><ele>263.0</ele><time>2026-04-26T10:56:08.062Z</time></trkpt><trkpt lat="43.3408622" lon="11.9432416"><ele>263.0</ele><time>2026-04-26T10:56:09.062Z</time></trkpt><trkpt lat="43.3409078" lon="11.9431725"><ele>263.0</ele><time>2026-04-26T10:56:10.062Z</time></trkpt><trkpt lat="43.3409462" lon="11.9430971"><ele>263.0</ele><time>2026-04-26T10:56:11.062Z</time></trkpt><trkpt lat="43.3409776" lon="11.9430188"><ele>263.0</ele><time>2026-04-26T10:56:12.062Z</time></trkpt><trkpt lat="43.3410059" lon="11.9429383"><ele>263.0</ele><time>2026-04-26T10:56:13.062Z</time></trkpt><trkpt lat="43.3410278" lon="11.9428557"><ele>263.0</ele><time>2026-04-26T10:56:14.063Z</time></trkpt><trkpt lat="43.3410499" lon="11.94277"><ele>263.0</ele><time>2026-04-26T10:56:15.063Z</time></trkpt><trkpt lat="43.341068" lon="11.9426851"><ele>263.0</ele><time>2026-04-26T10:56:16.063Z</time></trkpt><trkpt lat="43.3411094" lon="11.9425246"><ele>263.0</ele><time>2026-04-26T10:56:18.062Z</time></trkpt><trkpt lat="43.3411538" lon="11.9423706"><ele>263.0</ele><time>2026-04-26T10:56:20.063Z</time></trkpt><trkpt lat="43.3411996" lon="11.9422191"><ele>263.0</ele><time>2026-04-26T10:56:22.062Z</time></trkpt><trkpt lat="43.341247" lon="11.9420716"><ele>263.0</ele><time>2026-04-26T10:56:24.062Z</time></trkpt><trkpt lat="43.3412898" lon="11.9419352"><ele>263.0</ele><time>2026-04-26T10:56:26.063Z</time></trkpt><trkpt lat="43.3413338" lon="11.9418065"><ele>263.0</ele><time>2026-04-26T10:56:28.063Z</time></trkpt><trkpt lat="43.3413704" lon="11.9416885"><ele>263.0</ele><time>2026-04-26T10:56:30.063Z</time></trkpt><trkpt lat="43.3414016" lon="11.9415824"><ele>263.1666666666667</ele><time>2026-04-26T10:56:32.062Z</time></trkpt><trkpt lat="43.3414145" lon="11.9414583"><ele>263.33333333333337</ele><time>2026-04-26T10:56:34.063Z</time></trkpt><trkpt lat="43.3414158" lon="11.941294"><ele>263.5</ele><time>2026-04-26T10:56:36.063Z</time></trkpt><trkpt lat="43.3414157" lon="11.9412022"><ele>263.6666666666667</ele><time>2026-04-26T10:56:37.063Z</time></trkpt><trkpt lat="43.3414151" lon="11.941108"><ele>263.8333333333333</ele><time>2026-04-26T10:56:38.063Z</time></trkpt><trkpt lat="43.3414175" lon="11.9410126"><ele>264.0</ele><time>2026-04-26T10:56:39.062Z</time></trkpt><trkpt lat="43.3414195" lon="11.9409173"><ele>264.1428571428571</ele><time>2026-04-26T10:56:40.063Z</time></trkpt><trkpt lat="43.3414239" lon="11.9408225"><ele>264.2857142857143</ele><time>2026-04-26T10:56:41.063Z</time></trkpt><trkpt lat="43.341429" lon="11.940728"><ele>264.42857142857144</ele><time>2026-04-26T10:56:42.063Z</time></trkpt><trkpt lat="43.3414353" lon="11.940635"><ele>264.57142857142856</ele><time>2026-04-26T10:56:43.063Z</time></trkpt><trkpt lat="43.3414444" lon="11.9405415"><ele>264.7142857142857</ele><time>2026-04-26T10:56:44.063Z</time></trkpt><trkpt lat="43.3414578" lon="11.9404543"><ele>264.85714285714283</ele><time>2026-04-26T10:56:45.063Z</time></trkpt><trkpt lat="43.3414749" lon="11.9403688"><ele>265.0</ele><time>2026-04-26T10:56:46.062Z</time></trkpt><trkpt lat="43.3414962" lon="11.9402845"><ele>264.99999999999994</ele><time>2026-04-26T10:56:47.062Z</time></trkpt><trkpt lat="43.3415195" lon="11.9402014"><ele>265.0</ele><time>2026-04-26T10:56:48.062Z</time></trkpt><trkpt lat="43.3415428" lon="11.9401206"><ele>265.0</ele><time>2026-04-26T10:56:49.062Z</time></trkpt><trkpt lat="43.3415692" lon="11.9400357"><ele>265.0</ele><time>2026-04-26T10:56:50.062Z</time></trkpt><trkpt lat="43.3415961" lon="11.9399528"><ele>265.0</ele><time>2026-04-26T10:56:51.062Z</time></trkpt><trkpt lat="43.3416266" lon="11.9398741"><ele>264.99999999999994</ele><time>2026-04-26T10:56:52.062Z</time></trkpt><trkpt lat="43.3416614" lon="11.9398002"><ele>265.0</ele><time>2026-04-26T10:56:53.062Z</time></trkpt><trkpt lat="43.3416993" lon="11.9397274"><ele>265.0</ele><time>2026-04-26T10:56:54.062Z</time></trkpt><trkpt lat="43.3417765" lon="11.9395941"><ele>265.0</ele><time>2026-04-26T10:56:56.062Z</time></trkpt><trkpt lat="43.3418169" lon="11.9395217"><ele>265.0</ele><time>2026-04-26T10:56:57.061Z</time></trkpt><trkpt lat="43.3418583" lon="11.9394558"><ele>265.0</ele><time>2026-04-26T10:56:58.062Z</time></trkpt><trkpt lat="43.3418977" lon="11.9393851"><ele>265.0</ele><time>2026-04-26T10:56:59.062Z</time></trkpt><trkpt lat="43.3419325" lon="11.9393107"><ele>265.0</ele><time>2026-04-26T10:57:00.062Z</time></trkpt><trkpt lat="43.3419921" lon="11.9391587"><ele>264.71428571428567</ele><time>2026-04-26T10:57:02.062Z</time></trkpt><trkpt lat="43.3420176" lon="11.9390785"><ele>264.42857142857144</ele><time>2026-04-26T10:57:03.062Z</time></trkpt><trkpt lat="43.3420418" lon="11.9389977"><ele>264.1428571428571</ele><time>2026-04-26T10:57:04.062Z</time></trkpt><trkpt lat="43.3420869" lon="11.9388403"><ele>263.85714285714283</ele><time>2026-04-26T10:57:06.062Z</time></trkpt><trkpt lat="43.3421054" lon="11.9387572"><ele>263.57142857142856</ele><time>2026-04-26T10:57:07.061Z</time></trkpt><trkpt lat="43.342126" lon="11.9386717"><ele>263.2857142857143</ele><time>2026-04-26T10:57:08.062Z</time></trkpt><trkpt lat="43.3421419" lon="11.9385867"><ele>263.0</ele><time>2026-04-26T10:57:09.062Z</time></trkpt><trkpt lat="43.3421639" lon="11.9384136"><ele>262.85714285714283</ele><time>2026-04-26T10:57:11.062Z</time></trkpt><trkpt lat="43.3421732" lon="11.9383238"><ele>262.71428571428567</ele><time>2026-04-26T10:57:12.062Z</time></trkpt><trkpt lat="43.3421846" lon="11.9382349"><ele>262.57142857142856</ele><time>2026-04-26T10:57:13.062Z</time></trkpt><trkpt lat="43.3421958" lon="11.9381449"><ele>262.42857142857144</ele><time>2026-04-26T10:57:14.062Z</time></trkpt><trkpt lat="43.3422067" lon="11.9380587"><ele>262.28571428571433</ele><time>2026-04-26T10:57:15.062Z</time></trkpt><trkpt lat="43.3422168" lon="11.9379709"><ele>262.14285714285717</ele><time>2026-04-26T10:57:16.062Z</time></trkpt><trkpt lat="43.3422283" lon="11.9378821"><ele>262.0</ele><time>2026-04-26T10:57:17.062Z</time></trkpt><trkpt lat="43.342242" lon="11.9377916"><ele>262.4</ele><time>2026-04-26T10:57:18.062Z</time></trkpt><trkpt lat="43.3422577" lon="11.9377072"><ele>262.79999999999995</ele><time>2026-04-26T10:57:19.062Z</time></trkpt><trkpt lat="43.342297" lon="11.9375447"><ele>263.2</ele><time>2026-04-26T10:57:21.062Z</time></trkpt><trkpt lat="43.342343" lon="11.9373893"><ele>263.59999999999997</ele><time>2026-04-26T10:57:23.062Z</time></trkpt><trkpt lat="43.3423827" lon="11.9372474"><ele>264.0</ele><time>2026-04-26T10:57:25.062Z</time></trkpt><trkpt lat="43.3424364" lon="11.9371133"><ele>264.2</ele><time>2026-04-26T10:57:27.062Z</time></trkpt><trkpt lat="43.342488" lon="11.9369785"><ele>264.4</ele><time>2026-04-26T10:57:29.062Z</time></trkpt><trkpt lat="43.3425257" lon="11.9368354"><ele>264.6</ele><time>2026-04-26T10:57:31.062Z</time></trkpt><trkpt lat="43.3425601" lon="11.9366991"><ele>264.8</ele><time>2026-04-26T10:57:33.062Z</time></trkpt><trkpt lat="43.3426014" lon="11.9365697"><ele>265.0</ele><time>2026-04-26T10:57:35.062Z</time></trkpt><trkpt lat="43.3426394" lon="11.9364329"><ele>265.2</ele><time>2026-04-26T10:57:37.061Z</time></trkpt><trkpt lat="43.3426431" lon="11.9362852"><ele>265.4</ele><time>2026-04-26T10:57:39.062Z</time></trkpt><trkpt lat="43.3426411" lon="11.93613"><ele>265.6</ele><time>2026-04-26T10:57:41.062Z</time></trkpt><trkpt lat="43.3426548" lon="11.9359838"><ele>265.8</ele><time>2026-04-26T10:57:43.061Z</time></trkpt><trkpt lat="43.3427102" lon="11.9358602"><ele>266.0</ele><time>2026-04-26T10:57:45.062Z</time></trkpt><trkpt lat="43.3427975" lon="11.9357946"><ele>266.0</ele><time>2026-04-26T10:57:47.062Z</time></trkpt><trkpt lat="43.3429081" lon="11.9358084"><ele>266.0</ele><time>2026-04-26T10:57:49.062Z</time></trkpt><trkpt lat="43.3430133" lon="11.9358311"><ele>266.0</ele><time>2026-04-26T10:57:51.062Z</time></trkpt><trkpt lat="43.3431271" lon="11.9358127"><ele>266.0</ele><time>2026-04-26T10:57:53.062Z</time></trkpt><trkpt lat="43.3432355" lon="11.9357634"><ele>266.0</ele><time>2026-04-26T10:57:55.062Z</time></trkpt><trkpt lat="43.3433403" lon="11.9357229"><ele>266.8</ele><time>2026-04-26T10:57:57.062Z</time></trkpt><trkpt lat="43.3434385" lon="11.9356788"><ele>267.6</ele><time>2026-04-26T10:57:59.062Z</time></trkpt><trkpt lat="43.3435261" lon="11.9356363"><ele>268.4</ele><time>2026-04-26T10:58:01.062Z</time></trkpt><trkpt lat="43.3436027" lon="11.9355931"><ele>269.2</ele><time>2026-04-26T10:58:03.062Z</time></trkpt><trkpt lat="43.343656" lon="11.9355215"><ele>270.0</ele><time>2026-04-26T10:58:05.062Z</time></trkpt><trkpt lat="43.3436687" lon="11.9353873"><ele>270.0</ele><time>2026-04-26T10:58:07.062Z</time></trkpt><trkpt lat="43.3436673" lon="11.9352314"><ele>270.0</ele><time>2026-04-26T10:58:09.062Z</time></trkpt><trkpt lat="43.3436724" lon="11.9351424"><ele>270.0</ele><time>2026-04-26T10:58:10.061Z</time></trkpt><trkpt lat="43.3436817" lon="11.9350559"><ele>270.0</ele><time>2026-04-26T10:58:11.062Z</time></trkpt><trkpt lat="43.3436989" lon="11.9349639"><ele>270.0</ele><time>2026-04-26T10:58:12.062Z</time></trkpt><trkpt lat="43.3437154" lon="11.9348755"><ele>270.0</ele><time>2026-04-26T10:58:13.062Z</time></trkpt><trkpt lat="43.3437283" lon="11.9347831"><ele>270.0</ele><time>2026-04-26T10:58:14.062Z</time></trkpt><trkpt lat="43.3437452" lon="11.9346888"><ele>269.57142857142856</ele><time>2026-04-26T10:58:15.062Z</time></trkpt><trkpt lat="43.3437605" lon="11.9345919"><ele>269.1428571428571</ele><time>2026-04-26T10:58:16.062Z</time></trkpt><trkpt lat="43.3437737" lon="11.9344993"><ele>268.7142857142857</ele><time>2026-04-26T10:58:17.062Z</time></trkpt><trkpt lat="43.3437836" lon="11.9344111"><ele>268.2857142857143</ele><time>2026-04-26T10:58:18.062Z</time></trkpt><trkpt lat="43.3437955" lon="11.9343199"><ele>267.8571428571429</ele><time>2026-04-26T10:58:19.062Z</time></trkpt><trkpt lat="43.3438016" lon="11.9342307"><ele>267.42857142857144</ele><time>2026-04-26T10:58:20.062Z</time></trkpt><trkpt lat="43.3438088" lon="11.9341443"><ele>267.0</ele><time>2026-04-26T10:58:21.062Z</time></trkpt><trkpt lat="43.3438159" lon="11.934058"><ele>266.8333333333333</ele><time>2026-04-26T10:58:22.062Z</time></trkpt><trkpt lat="43.3438253" lon="11.9339719"><ele>266.6666666666667</ele><time>2026-04-26T10:58:23.062Z</time></trkpt><trkpt lat="43.3438266" lon="11.9338815"><ele>266.5</ele><time>2026-04-26T10:58:24.062Z</time></trkpt><trkpt lat="43.3438219" lon="11.9337084"><ele>266.33333333333337</ele><time>2026-04-26T10:58:26.061Z</time></trkpt><trkpt lat="43.3438151" lon="11.9336162"><ele>266.1666666666667</ele><time>2026-04-26T10:58:27.062Z</time></trkpt><trkpt lat="43.3438068" lon="11.9335251"><ele>266.0</ele><time>2026-04-26T10:58:28.062Z</time></trkpt><trkpt lat="43.3437997" lon="11.9334364"><ele>266.0</ele><time>2026-04-26T10:58:29.062Z</time></trkpt><trkpt lat="43.3437965" lon="11.9333494"><ele>266.0</ele><time>2026-04-26T10:58:30.062Z</time></trkpt><trkpt lat="43.3437895" lon="11.9332596"><ele>266.0</ele><time>2026-04-26T10:58:31.062Z</time></trkpt><trkpt lat="43.3437659" lon="11.9330928"><ele>266.0</ele><time>2026-04-26T10:58:33.062Z</time></trkpt><trkpt lat="43.3437521" lon="11.9330054"><ele>266.0</ele><time>2026-04-26T10:58:34.062Z</time></trkpt><trkpt lat="43.3437398" lon="11.9329175"><ele>266.0</ele><time>2026-04-26T10:58:35.062Z</time></trkpt><trkpt lat="43.3437293" lon="11.9328314"><ele>266.0</ele><time>2026-04-26T10:58:36.062Z</time></trkpt><trkpt lat="43.3437207" lon="11.9326676"><ele>266.0</ele><time>2026-04-26T10:58:38.062Z</time></trkpt><trkpt lat="43.3437137" lon="11.9325779"><ele>266.0</ele><time>2026-04-26T10:58:39.062Z</time></trkpt><trkpt lat="43.3437116" lon="11.9324073"><ele>266.0</ele><time>2026-04-26T10:58:41.062Z</time></trkpt><trkpt lat="43.3437198" lon="11.9323157"><ele>266.0</ele><time>2026-04-26T10:58:42.062Z</time></trkpt><trkpt lat="43.343733" lon="11.932228"><ele>266.0</ele><time>2026-04-26T10:58:43.062Z</time></trkpt><trkpt lat="43.3437439" lon="11.9321393"><ele>266.0</ele><time>2026-04-26T10:58:44.062Z</time></trkpt><trkpt lat="43.3437511" lon="11.9320527"><ele>266.25</ele><time>2026-04-26T10:58:45.062Z</time></trkpt><trkpt lat="43.3437656" lon="11.9318868"><ele>266.5</ele><time>2026-04-26T10:58:47.062Z</time></trkpt><trkpt lat="43.3437831" lon="11.9317236"><ele>266.75</ele><time>2026-04-26T10:58:49.062Z</time></trkpt><trkpt lat="43.3438083" lon="11.9315648"><ele>267.0</ele><time>2026-04-26T10:58:51.061Z</time></trkpt><trkpt lat="43.3438379" lon="11.9314071"><ele>267.2</ele><time>2026-04-26T10:58:53.062Z</time></trkpt><trkpt lat="43.3438726" lon="11.931268"><ele>267.4</ele><time>2026-04-26T10:58:55.062Z</time></trkpt><trkpt lat="43.3439171" lon="11.931133"><ele>267.6</ele><time>2026-04-26T10:58:57.062Z</time></trkpt><trkpt lat="43.3439785" lon="11.9310288"><ele>267.8</ele><time>2026-04-26T10:58:59.062Z</time></trkpt><trkpt lat="43.3440322" lon="11.9309228"><ele>268.0</ele><time>2026-04-26T10:59:01.062Z</time></trkpt><trkpt lat="43.3440816" lon="11.9308298"><ele>268.8</ele><time>2026-04-26T10:59:03.062Z</time></trkpt><trkpt lat="43.3441316" lon="11.9307386"><ele>269.6</ele><time>2026-04-26T10:59:05.062Z</time></trkpt><trkpt lat="43.3441805" lon="11.930625"><ele>270.4</ele><time>2026-04-26T10:59:07.062Z</time></trkpt><trkpt lat="43.3442144" lon="11.9304957"><ele>271.2</ele><time>2026-04-26T10:59:09.061Z</time></trkpt><trkpt lat="43.3442067" lon="11.9303405"><ele>272.0</ele><time>2026-04-26T10:59:11.062Z</time></trkpt><trkpt lat="43.3441643" lon="11.9301826"><ele>272.0</ele><time>2026-04-26T10:59:13.062Z</time></trkpt><trkpt lat="43.3441338" lon="11.9300997"><ele>272.0</ele><time>2026-04-26T10:59:14.062Z</time></trkpt><trkpt lat="43.344099" lon="11.9300248"><ele>272.0</ele><time>2026-04-26T10:59:15.062Z</time></trkpt><trkpt lat="43.3440394" lon="11.9298868"><ele>272.0</ele><time>2026-04-26T10:59:17.062Z</time></trkpt><trkpt lat="43.3440062" lon="11.9298062"><ele>272.0</ele><time>2026-04-26T10:59:18.062Z</time></trkpt><trkpt lat="43.3439411" lon="11.9296542"><ele>272.0</ele><time>2026-04-26T10:59:20.062Z</time></trkpt><trkpt lat="43.3439081" lon="11.9295779"><ele>271.57142857142856</ele><time>2026-04-26T10:59:21.062Z</time></trkpt><trkpt lat="43.3438729" lon="11.9294999"><ele>271.1428571428571</ele><time>2026-04-26T10:59:22.062Z</time></trkpt><trkpt lat="43.3438375" lon="11.9294216"><ele>270.7142857142857</ele><time>2026-04-26T10:59:23.062Z</time></trkpt><trkpt lat="43.3437988" lon="11.9293481"><ele>270.2857142857143</ele><time>2026-04-26T10:59:24.062Z</time></trkpt><trkpt lat="43.3437608" lon="11.9292721"><ele>269.8571428571429</ele><time>2026-04-26T10:59:25.062Z</time></trkpt><trkpt lat="43.3437219" lon="11.9291886"><ele>269.42857142857144</ele><time>2026-04-26T10:59:26.062Z</time></trkpt><trkpt lat="43.3436793" lon="11.9291103"><ele>269.0</ele><time>2026-04-26T10:59:27.062Z</time></trkpt><trkpt lat="43.3436326" lon="11.9290291"><ele>269.0</ele><time>2026-04-26T10:59:28.062Z</time></trkpt><trkpt lat="43.3435847" lon="11.9289529"><ele>269.0</ele><time>2026-04-26T10:59:29.062Z</time></trkpt><trkpt lat="43.3435355" lon="11.9288822"><ele>269.0</ele><time>2026-04-26T10:59:30.062Z</time></trkpt><trkpt lat="43.3434864" lon="11.928804"><ele>269.0</ele><time>2026-04-26T10:59:31.062Z</time></trkpt><trkpt lat="43.3434393" lon="11.9287278"><ele>269.0</ele><time>2026-04-26T10:59:32.062Z</time></trkpt><trkpt lat="43.3433906" lon="11.928659"><ele>269.0</ele><time>2026-04-26T10:59:33.062Z</time></trkpt><trkpt lat="43.3433428" lon="11.9285877"><ele>269.0</ele><time>2026-04-26T10:59:34.062Z</time></trkpt><trkpt lat="43.3432974" lon="11.9285162"><ele>269.0</ele><time>2026-04-26T10:59:35.062Z</time></trkpt><trkpt lat="43.3432536" lon="11.9284491"><ele>269.0</ele><time>2026-04-26T10:59:36.061Z</time></trkpt><trkpt lat="43.3432107" lon="11.9283834"><ele>269.0</ele><time>2026-04-26T10:59:37.062Z</time></trkpt><trkpt lat="43.3431663" lon="11.9283169"><ele>269.0</ele><time>2026-04-26T10:59:38.062Z</time></trkpt><trkpt lat="43.3431203" lon="11.928248"><ele>269.0</ele><time>2026-04-26T10:59:39.062Z</time></trkpt><trkpt lat="43.3430771" lon="11.9281794"><ele>269.0</ele><time>2026-04-26T10:59:40.062Z</time></trkpt><trkpt lat="43.3430342" lon="11.9281077"><ele>269.0</ele><time>2026-04-26T10:59:41.062Z</time></trkpt><trkpt lat="43.3429534" lon="11.9279828"><ele>268.8</ele><time>2026-04-26T10:59:43.062Z</time></trkpt><trkpt lat="43.3428738" lon="11.9278661"><ele>268.59999999999997</ele><time>2026-04-26T10:59:45.062Z</time></trkpt><trkpt lat="43.3427979" lon="11.9277548"><ele>268.4</ele><time>2026-04-26T10:59:47.062Z</time></trkpt><trkpt lat="43.3427247" lon="11.9276411"><ele>268.2</ele><time>2026-04-26T10:59:49.062Z</time></trkpt><trkpt lat="43.3426528" lon="11.9275325"><ele>268.0</ele><time>2026-04-26T10:59:51.062Z</time></trkpt><trkpt lat="43.3425869" lon="11.9274366"><ele>268.8333333333333</ele><time>2026-04-26T10:59:53.062Z</time></trkpt><trkpt lat="43.3425289" lon="11.9273323"><ele>269.66666666666663</ele><time>2026-04-26T10:59:55.062Z</time></trkpt><trkpt lat="43.3424787" lon="11.9272269"><ele>270.5</ele><time>2026-04-26T10:59:57.062Z</time></trkpt><trkpt lat="43.3424238" lon="11.9271369"><ele>271.3333333333333</ele><time>2026-04-26T10:59:59.062Z</time></trkpt><trkpt lat="43.3423692" lon="11.9270648"><ele>272.1666666666667</ele><time>2026-04-26T11:00:01.062Z</time></trkpt><trkpt lat="43.3423234" lon="11.9269975"><ele>273.0</ele><time>2026-04-26T11:00:03.062Z</time></trkpt><trkpt lat="43.3422832" lon="11.9269302"><ele>273.0</ele><time>2026-04-26T11:00:05.061Z</time></trkpt><trkpt lat="43.34225" lon="11.9268554"><ele>273.0</ele><time>2026-04-26T11:00:07.062Z</time></trkpt><trkpt lat="43.3422214" lon="11.9267373"><ele>273.0</ele><time>2026-04-26T11:00:10.062Z</time></trkpt><trkpt lat="43.3422095" lon="11.92662"><ele>273.0</ele><time>2026-04-26T11:00:13.062Z</time></trkpt><trkpt lat="43.3422176" lon="11.9265021"><ele>273.0</ele><time>2026-04-26T11:00:16.062Z</time></trkpt><trkpt lat="43.342228" lon="11.9263853"><ele>273.0</ele><time>2026-04-26T11:00:19.062Z</time></trkpt><trkpt lat="43.3422541" lon="11.9262737"><ele>273.2857142857143</ele><time>2026-04-26T11:00:22.062Z</time></trkpt><trkpt lat="43.3422861" lon="11.926174"><ele>273.57142857142856</ele><time>2026-04-26T11:00:25.061Z</time></trkpt><trkpt lat="43.3423109" lon="11.9260715"><ele>273.8571428571429</ele><time>2026-04-26T11:00:28.062Z</time></trkpt><trkpt lat="43.3423312" lon="11.9259754"><ele>274.1428571428571</ele><time>2026-04-26T11:00:31.062Z</time></trkpt><trkpt lat="43.3423591" lon="11.9258898"><ele>274.42857142857144</ele><time>2026-04-26T11:00:34.062Z</time></trkpt><trkpt lat="43.3423794" lon="11.9258052"><ele>274.7142857142857</ele><time>2026-04-26T11:00:37.062Z</time></trkpt><trkpt lat="43.3423958" lon="11.9257162"><ele>275.0</ele><time>2026-04-26T11:00:40.062Z</time></trkpt><trkpt lat="43.3424216" lon="11.9256142"><ele>275.83333333333337</ele><time>2026-04-26T11:00:44.061Z</time></trkpt><trkpt lat="43.3424341" lon="11.9255079"><ele>276.6666666666667</ele><time>2026-04-26T11:00:48.061Z</time></trkpt><trkpt lat="43.3424499" lon="11.9254051"><ele>277.5</ele><time>2026-04-26T11:00:52.062Z</time></trkpt><trkpt lat="43.3424786" lon="11.9253066"><ele>278.3333333333333</ele><time>2026-04-26T11:00:56.062Z</time></trkpt><trkpt lat="43.3425194" lon="11.9252169"><ele>279.16666666666663</ele><time>2026-04-26T11:01:00.062Z</time></trkpt><trkpt lat="43.3425647" lon="11.925132"><ele>280.0</ele><time>2026-04-26T11:01:04.062Z</time></trkpt><trkpt lat="43.3426161" lon="11.9250481"><ele>281.42857142857144</ele><time>2026-04-26T11:01:08.062Z</time></trkpt><trkpt lat="43.3426781" lon="11.9249708"><ele>282.8571428571429</ele><time>2026-04-26T11:01:12.062Z</time></trkpt><trkpt lat="43.3427316" lon="11.9249247"><ele>284.2857142857143</ele><time>2026-04-26T11:01:15.062Z</time></trkpt><trkpt lat="43.3427929" lon="11.9248694"><ele>285.7142857142857</ele><time>2026-04-26T11:01:18.062Z</time></trkpt><trkpt lat="43.3428572" lon="11.9248302"><ele>287.14285714285717</ele><time>2026-04-26T11:01:21.062Z</time></trkpt><trkpt lat="43.3429178" lon="11.9248039"><ele>288.57142857142856</ele><time>2026-04-26T11:01:24.062Z</time></trkpt><trkpt lat="43.3429883" lon="11.9247708"><ele>290.0</ele><time>2026-04-26T11:01:27.062Z</time></trkpt><trkpt lat="43.343054" lon="11.9247419"><ele>290.0</ele><time>2026-04-26T11:01:30.062Z</time></trkpt><trkpt lat="43.3431207" lon="11.9247077"><ele>290.0</ele><time>2026-04-26T11:01:33.061Z</time></trkpt><trkpt lat="43.3431853" lon="11.924698"><ele>290.0</ele><time>2026-04-26T11:01:36.062Z</time></trkpt><trkpt lat="43.3432586" lon="11.924676"><ele>290.0</ele><time>2026-04-26T11:01:39.062Z</time></trkpt><trkpt lat="43.3433252" lon="11.9246528"><ele>290.0</ele><time>2026-04-26T11:01:42.062Z</time></trkpt><trkpt lat="43.3433976" lon="11.9246311"><ele>290.0</ele><time>2026-04-26T11:01:45.062Z</time></trkpt><trkpt lat="43.3434667" lon="11.9246105"><ele>290.0</ele><time>2026-04-26T11:01:48.062Z</time></trkpt><trkpt lat="43.3435405" lon="11.9245774"><ele>290.0</ele><time>2026-04-26T11:01:51.062Z</time></trkpt><trkpt lat="43.3436121" lon="11.9245718"><ele>290.0</ele><time>2026-04-26T11:01:54.062Z</time></trkpt><trkpt lat="43.3436869" lon="11.9245408"><ele>290.0</ele><time>2026-04-26T11:01:57.062Z</time></trkpt><trkpt lat="43.3437588" lon="11.924515"><ele>290.0</ele><time>2026-04-26T11:02:00.062Z</time></trkpt><trkpt lat="43.3438366" lon="11.9244764"><ele>290.0</ele><time>2026-04-26T11:02:03.062Z</time></trkpt><trkpt lat="43.3439073" lon="11.9244501"><ele>290.0</ele><time>2026-04-26T11:02:06.062Z</time></trkpt><trkpt lat="43.3439725" lon="11.9244306"><ele>290.0</ele><time>2026-04-26T11:02:09.062Z</time></trkpt><trkpt lat="43.3440523" lon="11.924399"><ele>290.83333333333337</ele><time>2026-04-26T11:02:13.062Z</time></trkpt><trkpt lat="43.3441109" lon="11.9243665"><ele>291.6666666666667</ele><time>2026-04-26T11:02:16.062Z</time></trkpt><trkpt lat="43.3441881" lon="11.9243309"><ele>292.5</ele><time>2026-04-26T11:02:20.062Z</time></trkpt><trkpt lat="43.3442608" lon="11.9242918"><ele>293.3333333333333</ele><time>2026-04-26T11:02:24.062Z</time></trkpt><trkpt lat="43.3443404" lon="11.9242877"><ele>294.16666666666663</ele><time>2026-04-26T11:02:28.062Z</time></trkpt><trkpt lat="43.3444015" lon="11.92426"><ele>295.0</ele><time>2026-04-26T11:02:31.062Z</time></trkpt><trkpt lat="43.3444779" lon="11.9242148"><ele>296.5714285714286</ele><time>2026-04-26T11:02:35.062Z</time></trkpt><trkpt lat="43.3445382" lon="11.9241735"><ele>298.14285714285717</ele><time>2026-04-26T11:02:38.062Z</time></trkpt><trkpt lat="43.3446023" lon="11.9241027"><ele>299.7142857142857</ele><time>2026-04-26T11:02:42.062Z</time></trkpt><trkpt lat="43.3446479" lon="11.9240116"><ele>301.28571428571433</ele><time>2026-04-26T11:02:46.062Z</time></trkpt><trkpt lat="43.3446758" lon="11.9239132"><ele>302.8571428571429</ele><time>2026-04-26T11:02:50.062Z</time></trkpt><trkpt lat="43.3446618" lon="11.923813"><ele>304.42857142857144</ele><time>2026-04-26T11:02:54.062Z</time></trkpt><trkpt lat="43.3446434" lon="11.9237254"><ele>306.0</ele><time>2026-04-26T11:02:57.062Z</time></trkpt><trkpt lat="43.3446079" lon="11.9236405"><ele>306.0</ele><time>2026-04-26T11:03:00.062Z</time></trkpt><trkpt lat="43.3445634" lon="11.9235661"><ele>306.0</ele><time>2026-04-26T11:03:03.062Z</time></trkpt><trkpt lat="43.3444952" lon="11.9235123"><ele>306.0</ele><time>2026-04-26T11:03:07.062Z</time></trkpt><trkpt lat="43.3444341" lon="11.9234847"><ele>306.0</ele><time>2026-04-26T11:03:10.062Z</time></trkpt><trkpt lat="43.3443737" lon="11.9234501"><ele>306.0</ele><time>2026-04-26T11:03:13.062Z</time></trkpt><trkpt lat="43.3443104" lon="11.9234346"><ele>306.0</ele><time>2026-04-26T11:03:16.062Z</time></trkpt><trkpt lat="43.3442464" lon="11.9234169"><ele>306.0</ele><time>2026-04-26T11:03:19.062Z</time></trkpt><trkpt lat="43.3441803" lon="11.9234188"><ele>306.0</ele><time>2026-04-26T11:03:22.062Z</time></trkpt><trkpt lat="43.3440998" lon="11.9234012"><ele>306.0</ele><time>2026-04-26T11:03:26.061Z</time></trkpt><trkpt lat="43.3440365" lon="11.9233665"><ele>306.0</ele><time>2026-04-26T11:03:29.062Z</time></trkpt><trkpt lat="43.3440236" lon="11.92327"><ele>306.0</ele><time>2026-04-26T11:03:33.062Z</time></trkpt><trkpt lat="43.3440768" lon="11.9232194"><ele>306.0</ele><time>2026-04-26T11:03:36.062Z</time></trkpt><trkpt lat="43.3441373" lon="11.9231791"><ele>306.0</ele><time>2026-04-26T11:03:39.061Z</time></trkpt><trkpt lat="43.3442088" lon="11.9231341"><ele>306.0</ele><time>2026-04-26T11:03:42.062Z</time></trkpt><trkpt lat="43.3442877" lon="11.9230978"><ele>308.3333333333333</ele><time>2026-04-26T11:03:45.062Z</time></trkpt><trkpt lat="43.3443613" lon="11.9230321"><ele>310.6666666666667</ele><time>2026-04-26T11:03:48.062Z</time></trkpt><trkpt lat="43.3444134" lon="11.9229781"><ele>313.0</ele><time>2026-04-26T11:03:50.062Z</time></trkpt><trkpt lat="43.3444684" lon="11.9229137"><ele>315.33333333333337</ele><time>2026-04-26T11:03:52.062Z</time></trkpt><trkpt lat="43.34452" lon="11.9228492"><ele>317.6666666666667</ele><time>2026-04-26T11:03:54.062Z</time></trkpt><trkpt lat="43.344531" lon="11.922724"><ele>320.0</ele><time>2026-04-26T11:03:57.062Z</time></trkpt><trkpt lat="43.3444849" lon="11.9226186"><ele>320.42857142857144</ele><time>2026-04-26T11:03:59.062Z</time></trkpt><trkpt lat="43.3444431" lon="11.9225244"><ele>320.8571428571429</ele><time>2026-04-26T11:04:01.062Z</time></trkpt><trkpt lat="43.3444064" lon="11.9224407"><ele>321.28571428571433</ele><time>2026-04-26T11:04:03.062Z</time></trkpt><trkpt lat="43.3443713" lon="11.9223612"><ele>321.7142857142857</ele><time>2026-04-26T11:04:05.062Z</time></trkpt><trkpt lat="43.3443285" lon="11.9222948"><ele>322.14285714285717</ele><time>2026-04-26T11:04:07.062Z</time></trkpt><trkpt lat="43.3442964" lon="11.9222196"><ele>322.5714285714286</ele><time>2026-04-26T11:04:09.062Z</time></trkpt><trkpt lat="43.3442638" lon="11.9221321"><ele>323.0</ele><time>2026-04-26T11:04:11.062Z</time></trkpt><trkpt lat="43.3442253" lon="11.9220468"><ele>323.0</ele><time>2026-04-26T11:04:13.062Z</time></trkpt><trkpt lat="43.3441796" lon="11.9219675"><ele>323.0</ele><time>2026-04-26T11:04:15.062Z</time></trkpt><trkpt lat="43.3441287" lon="11.92188"><ele>323.0</ele><time>2026-04-26T11:04:17.062Z</time></trkpt><trkpt lat="43.3440893" lon="11.9217737"><ele>323.0</ele><time>2026-04-26T11:04:19.062Z</time></trkpt><trkpt lat="43.3440438" lon="11.9216659"><ele>323.0</ele><time>2026-04-26T11:04:21.062Z</time></trkpt><trkpt lat="43.3439884" lon="11.921561"><ele>323.0</ele><time>2026-04-26T11:04:23.062Z</time></trkpt><trkpt lat="43.3439344" lon="11.9214522"><ele>323.0</ele><time>2026-04-26T11:04:25.062Z</time></trkpt><trkpt lat="43.3438929" lon="11.9213335"><ele>323.0</ele><time>2026-04-26T11:04:27.062Z</time></trkpt><trkpt lat="43.3438777" lon="11.9212195"><ele>323.0</ele><time>2026-04-26T11:04:29.062Z</time></trkpt><trkpt lat="43.343929" lon="11.9211092"><ele>323.0</ele><time>2026-04-26T11:04:31.062Z</time></trkpt><trkpt lat="43.3440192" lon="11.9210288"><ele>323.0</ele><time>2026-04-26T11:04:33.061Z</time></trkpt><trkpt lat="43.3441222" lon="11.9209204"><ele>321.1666666666667</ele><time>2026-04-26T11:04:35.062Z</time></trkpt><trkpt lat="43.3441655" lon="11.9208379"><ele>319.33333333333337</ele><time>2026-04-26T11:04:36.062Z</time></trkpt><trkpt lat="43.3441958" lon="11.9207442"><ele>317.5</ele><time>2026-04-26T11:04:37.062Z</time></trkpt><trkpt lat="43.3442164" lon="11.9206331"><ele>315.6666666666667</ele><time>2026-04-26T11:04:38.062Z</time></trkpt><trkpt lat="43.3442465" lon="11.9205246"><ele>313.8333333333333</ele><time>2026-04-26T11:04:39.062Z</time></trkpt><trkpt lat="43.3442716" lon="11.920418"><ele>312.0</ele><time>2026-04-26T11:04:40.062Z</time></trkpt><trkpt lat="43.3442996" lon="11.9203061"><ele>312.0</ele><time>2026-04-26T11:04:41.062Z</time></trkpt><trkpt lat="43.3443242" lon="11.9201876"><ele>312.0</ele><time>2026-04-26T11:04:42.062Z</time></trkpt><trkpt lat="43.3443466" lon="11.9200663"><ele>312.0</ele><time>2026-04-26T11:04:43.062Z</time></trkpt><trkpt lat="43.344371" lon="11.9199412"><ele>312.0</ele><time>2026-04-26T11:04:44.062Z</time></trkpt><trkpt lat="43.3443943" lon="11.9198119"><ele>312.0</ele><time>2026-04-26T11:04:45.062Z</time></trkpt><trkpt lat="43.3444179" lon="11.9196876"><ele>310.0</ele><time>2026-04-26T11:04:46.062Z</time></trkpt><trkpt lat="43.3444463" lon="11.9195548"><ele>308.0</ele><time>2026-04-26T11:04:47.062Z</time></trkpt><trkpt lat="43.344474" lon="11.9194235"><ele>306.0</ele><time>2026-04-26T11:04:48.061Z</time></trkpt><trkpt lat="43.3445018" lon="11.9192942"><ele>304.0</ele><time>2026-04-26T11:04:49.062Z</time></trkpt><trkpt lat="43.3445355" lon="11.9191677"><ele>302.0</ele><time>2026-04-26T11:04:50.062Z</time></trkpt><trkpt lat="43.3445825" lon="11.9190379"><ele>303.0</ele><time>2026-04-26T11:04:51.062Z</time></trkpt><trkpt lat="43.3446334" lon="11.9189086"><ele>304.0</ele><time>2026-04-26T11:04:52.062Z</time></trkpt><trkpt lat="43.3446905" lon="11.9187755"><ele>305.0</ele><time>2026-04-26T11:04:53.062Z</time></trkpt><trkpt lat="43.344748" lon="11.9186429"><ele>306.0</ele><time>2026-04-26T11:04:54.061Z</time></trkpt><trkpt lat="43.3448088" lon="11.9185106"><ele>307.0</ele><time>2026-04-26T11:04:55.062Z</time></trkpt><trkpt lat="43.344879" lon="11.9183822"><ele>303.5</ele><time>2026-04-26T11:04:56.062Z</time></trkpt><trkpt lat="43.3449564" lon="11.9182634"><ele>300.0</ele><time>2026-04-26T11:04:57.062Z</time></trkpt><trkpt lat="43.3450396" lon="11.9181493"><ele>296.5</ele><time>2026-04-26T11:04:58.062Z</time></trkpt><trkpt lat="43.3451187" lon="11.9180384"><ele>293.0</ele><time>2026-04-26T11:04:59.062Z</time></trkpt><trkpt lat="43.3451938" lon="11.9179359"><ele>293.0</ele><time>2026-04-26T11:05:00.062Z</time></trkpt><trkpt lat="43.3452733" lon="11.9178405"><ele>293.0</ele><time>2026-04-26T11:05:01.062Z</time></trkpt><trkpt lat="43.3453546" lon="11.9177427"><ele>293.0</ele><time>2026-04-26T11:05:02.062Z</time></trkpt><trkpt lat="43.3454328" lon="11.9176471"><ele>293.0</ele><time>2026-04-26T11:05:03.062Z</time></trkpt><trkpt lat="43.3455064" lon="11.9175504"><ele>293.0</ele><time>2026-04-26T11:05:04.062Z</time></trkpt><trkpt lat="43.3455789" lon="11.9174527"><ele>293.0</ele><time>2026-04-26T11:05:05.062Z</time></trkpt><trkpt lat="43.3456523" lon="11.9173544"><ele>293.0</ele><time>2026-04-26T11:05:06.062Z</time></trkpt><trkpt lat="43.3457245" lon="11.9172619"><ele>293.0</ele><time>2026-04-26T11:05:07.062Z</time></trkpt><trkpt lat="43.3457934" lon="11.9171686"><ele>293.0</ele><time>2026-04-26T11:05:08.061Z</time></trkpt><trkpt lat="43.3458567" lon="11.9170782"><ele>293.0</ele><time>2026-04-26T11:05:09.062Z</time></trkpt><trkpt lat="43.345917" lon="11.9169921"><ele>293.0</ele><time>2026-04-26T11:05:10.062Z</time></trkpt><trkpt lat="43.3459713" lon="11.9169076"><ele>293.0</ele><time>2026-04-26T11:05:11.062Z</time></trkpt><trkpt lat="43.3460208" lon="11.9168271"><ele>293.0</ele><time>2026-04-26T11:05:12.062Z</time></trkpt><trkpt lat="43.3460712" lon="11.9167556"><ele>293.0</ele><time>2026-04-26T11:05:13.062Z</time></trkpt><trkpt lat="43.3461397" lon="11.9166378"><ele>293.0</ele><time>2026-04-26T11:05:15.061Z</time></trkpt><trkpt lat="43.3461994" lon="11.9165522"><ele>293.0</ele><time>2026-04-26T11:05:17.062Z</time></trkpt><trkpt lat="43.3462427" lon="11.9164779"><ele>292.6666666666667</ele><time>2026-04-26T11:05:19.062Z</time></trkpt><trkpt lat="43.3462843" lon="11.9164126"><ele>292.33333333333337</ele><time>2026-04-26T11:05:21.062Z</time></trkpt><trkpt lat="43.3463399" lon="11.9163141"><ele>292.0</ele><time>2026-04-26T11:05:24.062Z</time></trkpt><trkpt lat="43.3463957" lon="11.9162284"><ele>291.6666666666667</ele><time>2026-04-26T11:05:27.062Z</time></trkpt><trkpt lat="43.3464524" lon="11.9161513"><ele>291.3333333333333</ele><time>2026-04-26T11:05:30.062Z</time></trkpt><trkpt lat="43.3465034" lon="11.9160657"><ele>291.0</ele><time>2026-04-26T11:05:33.062Z</time></trkpt><trkpt lat="43.3465511" lon="11.9159852"><ele>292.1666666666667</ele><time>2026-04-26T11:05:36.062Z</time></trkpt><trkpt lat="43.3465975" lon="11.9159057"><ele>293.3333333333333</ele><time>2026-04-26T11:05:39.062Z</time></trkpt><trkpt lat="43.3466328" lon="11.9157985"><ele>294.5</ele><time>2026-04-26T11:05:42.062Z</time></trkpt><trkpt lat="43.3466687" lon="11.915699"><ele>295.66666666666663</ele><time>2026-04-26T11:05:45.062Z</time></trkpt><trkpt lat="43.3466966" lon="11.9156115"><ele>296.8333333333333</ele><time>2026-04-26T11:05:48.062Z</time></trkpt><trkpt lat="43.346729" lon="11.9155141"><ele>298.0</ele><time>2026-04-26T11:05:52.062Z</time></trkpt><trkpt lat="43.3467608" lon="11.9154125"><ele>298.0</ele><time>2026-04-26T11:05:56.062Z</time></trkpt><trkpt lat="43.3467852" lon="11.9153188"><ele>298.0</ele><time>2026-04-26T11:06:00.062Z</time></trkpt><trkpt lat="43.346802" lon="11.9152222"><ele>298.0</ele><time>2026-04-26T11:06:05.062Z</time></trkpt><trkpt lat="43.3468262" lon="11.9151214"><ele>298.0</ele><time>2026-04-26T11:06:10.062Z</time></trkpt><trkpt lat="43.3468584" lon="11.9150409"><ele>298.0</ele><time>2026-04-26T11:06:15.061Z</time></trkpt><trkpt lat="43.3468951" lon="11.9149677"><ele>298.0</ele><time>2026-04-26T11:06:20.062Z</time></trkpt><trkpt lat="43.3469476" lon="11.9149146"><ele>298.0</ele><time>2026-04-26T11:06:25.062Z</time></trkpt><trkpt lat="43.3469957" lon="11.9149785"><ele>296.0</ele><time>2026-04-26T11:06:30.062Z</time></trkpt><trkpt lat="43.3470447" lon="11.9150585"><ele>296.0</ele><time>2026-04-26T11:06:35.062Z</time></trkpt><trkpt lat="43.3470919" lon="11.9151163"><ele>298.0</ele><time>2026-04-26T11:06:40.062Z</time></trkpt><trkpt lat="43.347112" lon="11.9150163"><ele>296.0</ele><time>2026-04-26T11:07:21.062Z</time></trkpt><trkpt lat="43.3471015" lon="11.9149248"><ele>296.0</ele><time>2026-04-26T11:07:30.062Z</time></trkpt></trkseg></trk></gpx>